[[{"header":{"parameterUnit":"m.s-1","parameterCategory":1,"la1":30.6,"la2":29.2853,"lo1":-89.7004,"lo2":-87.6739,"dy":0.0162,"dx":0.0183,"nx":112,"ny":82,"refTime":"2023-05-31T12:00:00:Z","depth":0,"parameterNumber":2,"parameterNumberName":"U-component_of_WINDS"},"data":[0.0,0.0,0.0,0.0,0.0,0.0,0.0,0.0,0.0,0.0,0.0,0.0,0.0,0.0,0.0,0.0,0.0,0.0,0.0,0.0,0.0,0.0,0.0,0.0,0.0,0.0,0.0,0.0,0.0,0.0,0.0,0.0,0.0,0.0,0.0,0.0,0.0,0.0,0.0,0.0,0.0,0.0,0.0,0.0,0.0,0.0,0.0,0.0,0.0,0.0,0.0,0.0,0.0,0.0,0.0,0.0,0.0,0.0,0.0,0.0,0.0,0.0,0.0,0.0,0.0,0.0,0.0,0.0,0.0,0.0,0.0,0.0,0.0,0.0,0.0,0.0,0.0,0.0,0.0,0.0,0.0,0.0,0.0,0.0,0.0,0.0,0.0,0.0,0.0,0.0,0.0449,-0.2054,-0.5095,-0.6843,-0.6592,-0.6139,-0.4152,-0.0075,0.0,0.0,0.0,0.0,0.0,0.0,0.0,0.0,0.0,0.0,0.0,0.0,0.0,0.0,0.0,0.0,0.0,0.0,0.0,0.0,0.0,0.0,0.0,0.0,0.0,0.0,0.0,0.0,0.0,0.0,0.0,0.0,0.0,0.0,0.0,0.0,0.0,0.0,0.0,0.0,0.0,0.0,0.0,0.0,0.0,0.0,0.0,0.0,0.0,0.0,0.0,0.0,0.0,0.0,0.0,0.0,0.0,0.0,0.0,0.0,0.0,0.0,0.0,0.0,0.0,0.0,0.0,0.0,0.0,0.0,0.0,0.0,0.0,0.0,0.0,0.0,0.0,0.0,0.0,0.0,0.0,0.0,0.0,0.0,0.0,0.0,0.0,0.0,0.0,0.0,0.0,0.0,0.0,0.0,0.0,0.0,0.0,0.0,0.0,0.0,0.0,0.0,0.0,0.0,-0.5529,-0.9501,-1.0563,-1.1071,-1.1338,-1.0728,-0.903,-0.6074,0.0,0.0,0.0,0.0,0.0,0.0,0.0,0.0,0.0,0.0,0.0,0.0,0.0,0.0,0.0,0.0,0.0,0.0,0.0,0.0,0.0,0.0,0.0,0.0,0.0,0.0,0.0,0.0,0.0,0.0,0.0,0.0,0.0,0.0,0.0,0.0,0.0,0.0,0.0,0.0,0.0,0.0,0.0,0.0,0.0,0.0,0.0,0.0,0.0,0.0,0.0,0.0,0.0,0.0,0.0,0.0,0.0,0.0,0.0,0.0,0.0,0.0,0.0,0.0,0.0,0.0,0.0,0.0,0.0,0.0,0.0,0.0,0.0,0.0,0.0,0.0,0.0,0.0,0.0,0.0,0.0,0.0,0.0,0.0,0.0,0.0,0.0,0.0,0.0,0.0,0.0,0.0,0.0,0.0,0.0,0.0,0.0,0.0,0.0,0.0,0.0,0.0,0.0,-0.7116,-1.0143,-1.4032,-1.434,-1.4403,-1.4741,-1.4277,-1.3114,-1.0906,-0.652,0.0,0.0,0.0,0.0,0.0,0.0,0.0,0.0,0.0,0.0,0.0,0.0,0.0,0.0,0.0,0.0,0.0,0.0,0.0,0.0,0.0,0.0,0.0,0.0,0.0,0.0,0.0,0.0,0.0,0.0,0.0,0.0,0.0,0.0,0.0,0.0,0.0,0.0,0.0,0.0,0.0,0.0,0.0,0.0,0.0,0.0,0.0,0.0,0.0,0.0,0.0,0.0,0.0,0.0,0.0,0.0,0.0,0.0,0.0,0.0,0.0,0.0,0.0,0.0,0.0,0.0,0.0,0.0,0.0,0.0,0.0,0.0,0.0,0.0,0.0,0.0,0.0,0.0,0.0,0.0,0.0,0.0,0.0,0.0,0.0,0.0,0.0,0.0,0.0,0.0,0.0,0.0,0.0,0.0,0.0,0.0,0.0,0.0,0.0,0.0,0.0,0.0,-1.2151,-1.3961,-1.6651,-1.6954,-1.7092,-1.7357,-1.7142,-1.6381,-1.4993,-1.4057,0.0,0.0,0.0,0.0,0.0,0.0,0.0,0.0,0.0,0.0,0.0,0.0,0.0,0.0,0.0,0.0,0.0,0.0,0.0,0.0,0.0,0.0,0.0,0.0,0.0,0.0,0.0,0.0,0.0,0.0,0.0,0.0,0.0,0.0,0.0,0.0,0.0,0.0,0.0,0.0,0.0,0.0,0.0,0.0,0.0,0.0,0.0,0.0,0.0,0.0,0.0,0.0,0.0,0.0,0.0,0.0,0.0,0.0,0.0,0.0,0.0,0.0,0.0,0.0,0.0,0.0,0.0,0.0,0.0,0.0,0.0,0.0,0.0,0.0,0.0,0.0,0.0,0.0,0.0,0.0,0.0,0.0,0.0,0.0,0.0,0.0,0.0,0.0,0.0,0.0,0.0,0.0,0.0,0.0,0.0,0.0,0.0,0.0,0.0,0.0,0.0,0.0,-1.5143,-1.6858,-1.7326,-1.8412,-1.91,-1.909,-1.9058,-1.8752,-1.814,-1.9,0.0,0.0,0.0,0.0,0.0,0.0,0.0,0.0,0.0,0.0,0.0,0.0,0.0,0.0,0.0,0.0,0.0,0.0,0.0,0.0,0.0,0.0,0.0,0.0,0.0,0.0,0.0,0.0,0.0,0.0,0.0,0.0,0.0,0.0,0.0,0.0,0.0,0.0,0.0,0.0,0.0,0.0,0.0,0.0,0.0,0.0,0.0,0.0,0.0,0.0,0.0,0.0,0.0,0.0,0.0,0.0,0.0,0.0,0.0,0.0,0.0,0.0,0.0,0.0,0.0,0.0,0.0,0.0,0.0,0.0,0.0,0.0,0.0,0.0,0.0,0.0,0.0,0.0,0.0,0.0,0.0,0.0,0.0,0.0,0.0,0.0,0.0,0.0,0.0,0.0,0.0,0.0,0.0,0.0,0.0,0.0,0.0,0.0,0.0,0.0,0.0,0.0,-1.5782,-1.7639,-1.8643,-1.9375,-1.9901,-2.0107,-1.989,-1.9868,-2.0052,0.0,0.0,0.0,0.0,0.0,0.0,0.0,0.0,0.0,0.0,0.0,0.0,0.0,0.0,0.0,0.0,0.0,0.0,0.0,0.0,0.0,0.0,0.0,0.0,0.0,0.0,0.0,0.0,0.0,0.0,0.0,0.0,0.0,0.0,0.0,0.0,0.0,0.0,0.0,0.0,0.0,0.0,0.0,0.0,0.0,0.0,0.0,0.0,0.0,0.0,0.0,0.0,0.0,0.0,0.0,0.0,0.0,0.0,0.0,0.0,0.0,0.0,0.0,0.0,0.0,0.0,0.0,0.0,0.0,0.0,0.0,0.0,0.0,0.0,0.0,0.0,0.0,0.0,0.0,0.0,0.0,0.0,0.0,0.0,0.0,0.0,0.0,0.0,0.0,0.0,0.0,0.0,0.0,0.0,0.0,0.0,0.0,0.0,0.0,0.0,0.0,0.0,-1.3884,-1.6086,-1.8065,-1.9253,-1.9846,-2.0302,-2.0764,-2.0752,-2.0869,-2.1262,0.0,0.0,0.0,0.0,0.0,0.0,0.0,0.0,0.0,0.0,0.0,0.0,0.0,0.0,0.0,0.0,0.0,0.0,0.0,0.0,0.0,0.0,0.0,0.0,0.0,0.0,0.0,0.0,0.0,0.0,0.0,0.0,0.0,0.0,0.0,0.0,0.0,0.0,0.0,0.0,0.0,0.0,0.0,0.0,0.0,0.0,0.0,0.0,0.0,0.0,0.0,0.0,0.0,0.0,0.0,0.0,0.0,0.0,0.0,0.0,0.0,0.0,0.0,0.0,0.0,0.0,0.0,0.0,0.0,0.0,0.0,0.0,0.0,0.0,0.0,0.0,0.0,0.0,0.0,0.0,0.0,0.0,0.0,0.0,0.0,0.0,0.0,0.0,0.0,0.0,0.0,0.0,0.0,0.0,0.0,0.0,0.0,0.0,0.0,0.0,0.0,0.0,-1.4132,-1.646,-1.823,-1.8911,-1.9628,-2.0355,-2.1094,-2.1639,-2.1827,0.0,0.0,0.0,0.0,0.0,0.0,0.0,0.0,0.0,0.0,0.0,0.0,0.0,0.0,0.0,0.0,0.0,0.0,0.0,0.0,0.0,0.0,0.0,0.0,0.0,0.0,0.0,0.0,0.0,0.0,0.0,0.0,0.0,0.0,0.0,0.0,0.0,0.0,0.0,0.0,0.0,0.0,0.0,0.0,0.0,0.0,0.0,0.0,0.0,0.0,0.0,0.0,0.0,0.0,0.0,0.0,0.0,0.0,0.0,0.0,0.0,0.0,0.0,0.0,0.0,0.0,0.0,0.0,0.0,0.0,0.0,0.0,0.0,0.0,0.0,0.0,0.0,0.0,0.0,0.0,0.0,0.0,0.0,0.0,0.0,0.0,0.0,0.0,0.0,0.0,0.0,0.0,0.0,0.0,0.0,0.0,0.0,0.0,0.0,0.0,0.0,0.0,0.0,-1.4202,-1.6541,-1.8213,-1.8267,-1.9533,-2.0117,-1.9672,-2.0752,-2.1262,-2.0921,0.0,0.0,0.0,0.0,0.0,0.0,0.0,0.0,0.0,0.0,0.0,0.0,0.0,0.0,0.0,0.0,0.0,0.0,0.0,0.0,0.0,0.0,0.0,0.0,0.0,0.0,0.0,0.0,0.0,0.0,0.0,0.0,0.0,0.0,0.0,0.0,0.0,0.0,0.0,0.0,0.0,0.0,0.0,0.0,0.0,0.0,0.0,0.0,0.0,0.0,0.0,0.0,0.0,0.0,0.0,0.0,0.0,0.0,0.0,0.0,0.0,0.0,0.0,0.0,0.0,0.0,0.0,0.0,0.0,0.0,0.0,0.0,0.0,0.0,0.0,0.0,0.0,0.0,0.0,0.0,0.0,0.0,0.0,0.0,0.0,0.0,0.0,0.0,0.0,0.0,0.0,0.0,0.0,0.0,0.0,0.0,0.0,0.0,0.0,0.0,0.0,0.0,-1.4205,-1.6112,-1.7494,-1.7527,-1.8385,-1.9048,-1.9189,-2.0015,-2.0676,-2.1037,0.0,0.0,0.0,0.0,0.0,0.0,0.0,0.0,0.0,0.0,0.0,0.0,0.0,0.0,0.0,0.0,0.0,0.0,0.0,0.0,0.0,0.0,0.0,0.0,0.0,0.0,0.0,0.0,0.0,0.0,0.0,0.0,0.0,0.0,0.0,0.0,0.0,0.0,0.0,0.0,0.0,0.0,0.0,0.0,0.0,0.0,0.0,0.0,0.0,0.0,0.0,0.0,0.0,0.0,0.0,0.0,0.0,0.0,0.0,0.0,0.0,0.0,0.0,0.0,0.0,0.0,0.0,0.0,0.0,0.0,0.0,0.0,0.0,0.0,0.0,0.0,0.0,0.0,0.0,0.0,0.0,0.0,0.0,0.0,0.0,0.0,0.0,0.0,0.0,0.0,0.0,0.0,0.0,0.0,0.0,0.0,0.0,0.0,0.0,0.0,0.0,0.0,-1.4153,-1.5393,-1.6393,-1.6685,-1.6796,-1.751,-1.9037,-1.9438,-2.0086,-2.1295,0.0,0.0,0.0,0.0,0.0,0.0,0.0,0.0,0.0,0.0,0.0,0.0,0.0,0.0,0.0,0.0,0.0,0.0,0.0,0.0,0.0,0.0,0.0,0.0,0.0,0.0,0.0,0.0,0.0,0.0,0.0,0.0,0.0,0.0,0.0,0.0,0.0,0.0,0.0,0.0,0.0,0.0,0.0,0.0,0.0,0.0,0.0,0.0,0.0,0.0,0.0,0.0,0.0,0.0,0.0,0.0,0.0,0.0,0.0,0.0,-0.8629,-0.8048,0.0,0.0,0.0,0.0,0.0,0.0,0.0,0.0,0.0,0.0,0.0,0.0,0.0,0.0,0.0,0.0,0.0,0.0,0.0,0.0,0.0,0.0,0.0,0.0,0.0,0.0,0.0,0.0,0.0,0.0,0.0,0.0,0.0,0.0,0.0,0.0,0.0,0.0,0.0,0.0,-1.4119,-1.5274,-1.6042,-1.5918,-1.7002,-1.7397,-1.6596,-1.8783,-1.9867,-1.9179,-2.0705,0.0,0.0,0.0,0.0,0.0,0.0,0.0,0.0,0.0,0.0,0.0,0.0,0.0,0.0,0.0,0.0,0.0,0.0,0.0,0.0,0.0,0.0,0.0,0.0,0.0,0.0,0.0,0.0,0.0,0.0,0.0,0.0,0.0,0.0,0.0,0.0,0.0,0.0,0.0,0.0,0.0,0.0,0.0,0.0,0.0,0.0,0.0,0.0,0.0,0.0,0.0,0.0,0.0,0.0,0.0,0.0,0.0,0.0,0.0,-1.1437,-1.0568,0.0,0.0,0.0,0.0,0.0,0.0,0.0,0.0,0.0,0.0,0.0,0.0,0.0,0.0,0.0,0.0,0.0,0.0,0.0,0.0,0.0,0.0,0.0,0.0,0.0,0.0,0.0,0.0,0.0,0.0,0.0,0.0,0.0,0.0,0.0,0.0,0.0,0.0,0.0,0.0,-1.4294,-1.5017,-1.5454,-1.5182,-1.5829,-1.6218,-1.5976,-1.7884,-1.9073,-1.8924,-2.0648,0.0,0.0,0.0,0.0,0.0,0.0,0.0,0.0,0.0,0.0,0.0,0.0,0.0,0.0,0.0,0.0,0.0,0.0,0.0,0.0,0.0,0.0,0.0,0.0,0.0,0.0,0.0,0.0,0.0,0.0,0.0,0.0,0.0,0.0,0.0,0.0,0.0,0.0,0.0,0.0,0.0,0.0,0.0,0.0,0.0,0.0,0.0,0.0,0.0,0.0,0.0,0.0,0.0,-1.5525,-1.5675,-1.5675,-1.5675,-1.5675,-1.5638,-1.3777,-1.3013,-1.2928,-1.1944,0.0,0.0,0.0,0.0,0.0,0.0,0.0,0.0,0.0,0.0,0.0,0.0,0.0,0.0,0.0,0.0,0.0,0.0,0.0,0.0,0.0,0.0,-1.1626,-1.3119,-1.2952,-1.2418,-1.2211,0.0,0.0,0.0,0.0,0.0,0.0,0.0,0.0,0.0,0.0,0.0,-1.4552,-1.4799,-1.4873,-1.4552,-1.4565,-1.4984,-1.5848,-1.7113,-1.8254,-1.9171,-2.0834,-2.1844,0.0,0.0,0.0,0.0,0.0,0.0,0.0,0.0,0.0,0.0,0.0,0.0,0.0,0.0,0.0,0.0,0.0,0.0,0.0,0.0,0.0,0.0,0.0,0.0,0.0,0.0,0.0,0.0,0.0,0.0,0.0,0.0,0.098,-0.1427,0.0,0.0,0.0,0.0,0.0,0.0,0.0,0.0,0.0,0.0,0.0,0.0,0.0,-1.5455,-1.5455,-1.5525,-1.5596,-1.5596,-1.5675,-1.5675,-1.5675,-1.5675,-1.5675,-1.5675,-1.5413,0.0,-1.524,-1.5072,0.0,0.0,0.0,0.0,0.0,0.0,0.0,0.0,0.0,0.0,0.0,0.0,0.0,0.0,0.0,0.0,0.0,0.0,0.0,0.0,0.0,0.0,-1.2131,-1.3266,-1.3905,-1.4243,-1.4235,-1.376,-1.3273,-1.29,-1.3477,-1.3912,0.0,0.0,0.0,0.0,0.0,0.0,-1.4455,-1.4561,-1.457,-1.4515,-1.4961,-1.5156,-1.4758,-1.6722,-1.8013,-1.8038,-2.0049,-2.1535,-2.2334,-2.2506,0.0,0.0,0.0,0.0,0.0,0.0,0.0,0.0,0.0,0.0,0.0,0.0,0.0,0.0,0.0,0.0,0.0,0.0,0.0,0.0,0.0,0.0,0.0,0.0,0.0,0.0,0.0,0.0,0.0,-0.104,-0.2754,-0.4387,-0.5029,-0.6124,0.0,0.0,0.0,0.0,0.0,0.0,0.0,0.0,0.0,-1.6932,-1.7019,-1.7019,-1.7019,-1.7019,-1.7019,-1.7019,-1.7019,-1.7019,-1.7019,-1.7019,-1.7207,-1.7531,-1.7148,-1.7207,-1.7463,-1.6228,-1.5675,-1.5675,0.0,0.0,0.0,0.0,-1.5122,-1.5089,-1.4482,-1.4347,-1.4188,-1.367,0.0,0.0,0.0,0.0,0.0,0.0,0.0,-1.4355,-1.5021,-1.4657,-1.4155,-1.4609,-1.4966,-1.5242,-1.5242,-1.4966,-1.4689,-1.4394,-1.4689,-1.4838,-1.4292,-1.4445,0.0,0.0,0.0,-1.424,-1.4446,-1.4515,-1.4515,-1.4515,-1.4734,-1.4793,-1.4515,-1.6345,-1.7501,-1.7523,-1.9532,-2.1049,-2.1815,-2.2273,-2.2567,0.0,0.0,0.0,0.0,0.0,0.0,0.0,0.0,0.0,0.0,0.0,0.0,0.0,0.0,0.0,0.0,0.0,0.0,0.0,0.0,0.0,0.0,0.0,0.0,0.0,0.0,0.0,0.0,-0.3801,-0.5295,-0.6706,-0.7682,-0.8702,0.0,0.0,0.0,0.0,0.0,0.0,-1.6306,-1.6533,-1.7073,-1.7998,-1.8008,-1.8008,-1.8008,-1.8008,-1.8008,-1.8008,-1.8134,-1.8134,-1.8008,-1.8405,-1.8731,-1.8977,-1.8462,-1.8519,-1.8844,-1.706,-1.6376,-1.6498,-1.6376,-1.6835,-1.7561,-1.6697,-1.6886,-1.7483,-1.6748,-1.6489,-1.6428,-1.6219,-1.6088,-1.5956,-1.5745,0.0,0.0,0.0,0.0,-1.6026,-1.6026,-1.5877,-1.5675,-1.5675,-1.5886,-1.6026,-1.6026,-1.6087,-1.5983,-1.5587,-1.5668,-1.5592,-1.5044,-1.52,0.0,-1.4622,-1.4614,-1.4606,-1.4506,-1.4515,-1.4515,-1.4515,-1.4515,-1.4515,-1.4515,-1.595,-1.7018,-1.7255,-1.9065,-2.0492,-2.1365,-2.1901,-2.2334,-2.2798,0.0,0.0,0.0,0.0,0.0,0.0,0.0,0.0,0.0,0.0,0.0,0.0,0.0,0.0,0.0,0.0,0.0,0.0,0.0,0.0,0.0,0.0,0.0,0.0,0.0,0.0,0.0,0.0,0.0,-0.82,-0.8897,0.0,0.0,0.0,0.0,-1.3592,-1.4894,-1.5835,-1.6372,-1.7025,-1.7568,-1.7998,-1.8008,-1.8008,-1.8008,-1.8008,-1.8008,-1.8008,-1.8654,-1.8586,-1.8076,-1.9386,-1.9639,-1.8977,-1.8977,-1.8977,-1.8911,-1.8192,-1.8259,-1.8767,-1.8124,-1.8721,-1.9835,-1.8957,-1.9079,-1.9596,-1.9399,-1.9013,-1.8489,-1.7784,-1.7179,-1.6724,-1.5948,-1.6733,0.0,0.0,-1.6862,-1.6862,-1.6862,-1.6298,-1.5675,-1.5675,-1.6306,-1.6862,-1.6862,-1.7062,-1.6978,-1.5747,-1.5748,-1.5968,-1.5847,0.0,-1.5368,-1.5524,-1.4935,-1.4506,-1.4515,-1.4515,-1.4515,-1.4515,-1.4515,-1.4515,-1.4515,-1.5662,-1.6609,-1.7245,-1.8495,-1.981,-2.1353,-2.1451,-2.2075,-2.333,-2.3403,0.0,0.0,0.0,0.0,0.0,0.0,0.0,0.0,0.0,0.0,0.0,0.0,0.0,0.0,0.0,0.0,0.0,0.0,0.0,0.0,0.0,0.0,0.0,0.0,0.0,0.0,0.0,0.0,-0.9926,-1.0695,0.0,-1.214,-1.3089,-1.3962,-1.4664,-1.5824,-1.6775,-1.7417,-1.8088,-1.8502,-1.8654,-1.9121,-1.9386,-1.9386,-1.9386,-1.9386,-1.9386,-1.9573,-1.9573,-1.9386,-1.9835,-2.0161,-2.0344,-1.9901,-1.9704,-1.9639,-1.8921,-1.8777,-1.8977,-1.8721,-1.9507,-2.0613,-1.9738,-1.9933,-2.0526,-1.9922,-1.9354,-1.8834,-1.8104,-1.7706,-1.7579,-1.7304,-1.7579,-1.794,-1.7647,-1.7579,-1.7579,-1.7579,-1.7373,-1.7157,-1.7157,-1.7175,-1.7255,-1.7255,-1.706,-1.6809,-1.6346,-1.6393,-1.6279,-1.5615,-1.5589,-1.544,-1.4995,-1.4768,-1.4616,-1.4506,-1.4515,-1.4515,-1.4515,-1.4515,-1.4515,-1.4515,-1.5245,-1.594,-1.6568,-1.7811,-1.904,-2.0204,-2.1008,-2.1889,-2.2871,-2.3198,-2.3582,0.0,0.0,0.0,0.0,0.0,0.0,0.0,0.0,0.0,0.0,0.0,0.0,0.0,0.0,0.0,0.0,0.0,0.0,0.0,0.0,0.0,0.0,0.0,0.0,0.0,-0.8898,-0.9741,-1.0773,-1.17,-1.2395,-1.2647,-1.3854,-1.4877,-1.5377,-1.6578,-1.7501,-1.794,-1.8395,-1.8787,-1.8977,-1.9441,-1.9835,-2.0096,-2.0096,-2.0096,-2.0096,-2.0355,-2.0291,-2.0107,-2.0624,-2.0944,-2.1071,-2.0613,-2.042,-2.0355,-1.9375,-1.9299,-1.9628,-1.9177,-1.989,-2.106,-2.0462,-2.059,-2.0996,-2.0204,-1.9486,-1.8911,-1.8202,-1.8008,-1.8008,-1.8008,-1.8008,-1.8008,-1.8008,-1.791,-1.7803,-1.7803,-1.7686,-1.7578,-1.7578,-1.7363,-1.7168,-1.7168,-1.6816,-1.6514,-1.6514,-1.6514,-1.6292,-1.5695,-1.5594,-1.5413,-1.4781,-1.4666,-1.4597,-1.4198,-1.4387,-1.4387,-1.4198,-1.4387,-1.4515,-1.4515,-1.5079,-1.5604,-1.5936,-1.7359,-1.8541,-1.9328,-2.0534,-2.1502,-2.2359,-2.3078,-2.3641,-2.4112,0.0,0.0,0.0,0.0,0.0,0.0,0.0,0.0,0.0,0.0,0.0,0.0,0.0,0.0,0.0,0.0,0.0,0.0,0.0,0.0,0.0,0.0,0.0,-0.8303,-0.8985,-0.9829,-1.0868,-1.1957,-1.2701,-1.3053,-1.463,-1.5745,-1.5745,-1.7157,-1.8008,-1.8008,-1.8008,-1.8327,-1.9044,-1.9034,-1.9441,-2.0161,-2.0172,-2.0172,-2.0161,-2.0805,-2.0805,-2.0237,-2.16,-2.18,-2.1123,-2.1123,-2.1135,-2.0996,-1.9628,-1.989,-2.0933,-1.9562,-1.989,-2.1123,-2.1123,-2.1123,-2.0996,-2.0291,-1.9573,-1.8911,-1.8202,-1.8008,-1.8008,-1.7998,-1.7988,-1.7988,-1.7978,-1.7676,-1.7363,-1.7363,-1.7051,-1.6665,-1.6665,-1.6719,-1.6709,-1.6709,-1.6357,-1.6105,-1.6105,-1.6105,-1.6105,-1.6045,-1.5594,-1.5156,-1.497,-1.4784,0.0,-1.3571,-1.407,-1.4198,-1.3571,-1.407,-1.4515,-1.4515,-1.502,-1.5428,-1.5557,-1.7195,-1.8392,-1.8987,-1.9984,-2.1008,-2.1877,-2.2896,-2.3641,-2.4054,0.0,0.0,0.0,0.0,0.0,0.0,0.0,0.0,0.0,0.0,0.0,0.0,0.0,0.0,0.0,0.0,0.0,0.0,0.0,0.0,0.0,-0.916,-0.9718,-1.0029,-1.0654,-1.1334,-1.2071,-1.2795,-1.352,-1.4126,-1.5114,-1.5956,-1.6515,-1.7442,-1.8008,-1.8008,-1.8462,-1.9044,-1.977,-2.0279,-2.0869,-2.16,-2.16,-2.16,-2.16,-2.18,-2.18,-2.1675,-2.1999,-2.2061,-2.1925,-2.1925,-2.1588,-2.106,-2.0677,-2.0473,-2.0291,-1.9375,-1.989,-2.1123,-2.1123,-2.1123,-2.0933,-1.9694,-1.9177,-1.8911,-1.8202,-1.8008,-1.7959,-1.7646,-1.7549,-1.749,-1.7178,-1.7002,-1.6914,-1.6914,-1.6826,-1.6665,-1.6665,-1.6484,-1.625,-1.625,-1.5898,-1.5586,-1.5586,-1.5586,-1.5537,-1.5438,-1.5292,-1.498,-1.4369,-1.4121,-1.3743,-1.3078,-1.345,-1.37,-1.3511,-1.407,-1.4515,-1.4515,-1.4625,-1.4911,-1.5198,-1.6215,-1.7319,-1.8521,-1.9404,-2.0495,-2.1877,-2.2896,-2.3463,0.0,0.0,0.0,0.0,0.0,0.0,0.0,0.0,0.0,0.0,0.0,0.0,0.0,0.0,0.0,0.0,0.0,0.0,0.0,0.0,0.0,0.0,-0.9614,-1.0218,-1.1037,-1.1484,-1.1929,-1.2526,-1.3119,-1.371,-1.4122,-1.5108,-1.5877,-1.6376,-1.7364,-1.8008,-1.8008,-1.8395,-1.8921,-1.9639,-2.002,-2.0549,-2.1336,-2.1336,-2.1474,-2.1726,-2.1726,-2.1925,-2.2197,-2.2197,-2.2197,-2.2197,-2.2197,-2.1987,-2.1526,-2.0933,-2.0613,-2.0484,0.0,0.0,0.0,0.0,-2.0484,-2.015,-1.9639,-1.8986,-1.8258,-1.7878,-1.7627,-1.7432,-1.7187,-1.7109,-1.7061,-1.6807,-1.6602,-1.6455,-1.6455,-1.6318,-1.6182,-1.6182,-1.5977,-1.5731,-1.5492,-1.5231,-1.4942,-1.4638,-1.4579,0.0,-1.4478,-1.4725,-1.4715,-1.4172,-1.3683,-1.3139,-1.2466,-1.2773,-1.2948,-1.2712,-1.326,-1.364,-1.364,-1.3941,0.0,0.0,0.0,-1.7282,-1.9062,-1.9836,0.0,0.0,0.0,-2.3198,-2.3403,-2.3878,0.0,0.0,-2.4086,-2.44,0.0,0.0,0.0,0.0,0.0,0.0,0.0,0.0,0.0,0.0,0.0,0.0,0.0,0.0,0.0,0.0,-0.9992,-1.0363,-1.1558,-1.1781,-1.2003,-1.2599,-1.3193,-1.3564,-1.3637,-1.4832,-1.5675,-1.5816,-1.7088,-1.794,-1.8008,-1.8008,0.0,0.0,0.0,-1.9365,-2.0096,-2.0096,-2.042,-2.0996,-2.0996,-2.1336,-2.1937,-2.1937,-2.1937,-2.1937,-2.1937,-2.1937,-2.1862,-2.0624,-2.042,-2.0996,-2.0869,-2.0085,-1.9044,-1.9639,-1.9507,-1.91,-1.9585,0.0,0.0,-1.7324,-1.7051,-1.6719,-1.667,-1.665,-1.665,-1.6592,-1.6237,-1.5926,-1.5926,-1.5575,-1.5177,-1.5177,-1.5177,-1.505,-1.4529,-1.441,-1.4231,-1.3631,-1.3511,-1.3511,-1.3511,-1.3983,-1.4282,-1.4034,-1.3364,-1.2581,-1.1802,-1.2097,-1.2151,-1.1545,-1.2089,0.0,-1.2512,-1.307,-1.3442,-1.3511,-1.5604,-1.7701,-1.9846,-2.0666,-2.1336,-2.1827,-2.2298,-2.2738,-2.321,-2.3688,-2.4086,-2.4452,-2.4821,-2.5188,0.0,0.0,0.0,0.0,0.0,0.0,0.0,0.0,0.0,0.0,0.0,0.0,0.0,0.0,0.0,-0.9846,-1.0293,-1.0887,-1.1632,-1.215,-1.2673,-1.3273,-1.3419,-1.3702,-1.433,-1.4681,-1.5313,-1.6585,-1.6932,-1.7364,-1.794,-1.8008,-1.8337,-1.8977,-1.8977,-1.9365,-2.0096,-2.0096,-2.0161,-2.0291,-2.0291,0.0,-2.0495,-2.0495,-2.0495,-2.0495,-2.0495,-2.0495,-2.0495,-2.0237,-2.0172,-2.0226,-1.9628,-1.9233,-1.8977,-1.8529,-1.8664,-1.8926,-1.8193,-1.7704,-1.7324,-1.6973,-1.6743,-1.667,-1.6299,-1.6191,0.0,-1.5762,-1.525,-1.4827,-1.4827,-1.4345,-1.3863,-1.3863,-1.3863,-1.3863,-1.3752,-1.3683,-1.3692,-1.3511,-1.3511,-1.3511,-1.3511,-1.3631,-1.3442,-1.2757,-1.2381,-1.1896,-1.1115,-1.1421,-1.167,-1.1483,-1.2089,-1.2512,-1.2512,-1.2634,-1.2948,-1.3442,-1.5604,-1.7369,-1.8711,-1.976,-2.0624,-2.1336,-2.1827,-2.2063,-2.2199,-2.2665,-2.3267,-2.3975,-2.465,-2.5188,0.0,0.0,0.0,0.0,0.0,0.0,0.0,0.0,0.0,0.0,0.0,-0.9387,-0.9846,0.0,-0.9922,-0.9922,-1.0443,-1.1037,-1.1632,-1.2231,-1.2826,-1.3419,-1.3492,-1.363,-1.3977,-1.4394,-1.51,-1.6228,-1.6306,-1.6655,-1.7432,-1.7432,-1.7628,-1.7959,-1.8317,-1.8664,-1.9054,-1.9054,-1.9253,-1.9573,-1.9573,-1.977,-2.0096,-2.0096,-2.0096,-2.0096,-2.0096,-2.0096,-2.0096,-1.9704,-1.9375,-1.8988,-1.8664,-1.8721,-1.8977,-1.8654,-1.8388,-1.8177,-1.7956,-1.7402,-1.6689,-1.6465,-1.625,-1.6025,-1.5801,-1.5732,-1.5634,-1.5117,-1.4706,-1.441,-1.4112,-1.3743,-1.3511,-1.3511,-1.3511,-1.339,-1.307,-1.3009,-1.2887,-1.2597,-1.2536,-1.2536,-1.2536,-1.2343,-1.2158,-1.2266,-1.1841,-1.1351,-1.0863,-1.0926,-1.1052,-1.1052,-1.1358,-1.1538,-1.1538,-1.1849,-1.2352,-1.3219,-1.5196,-1.6792,-1.7839,-1.8971,-2.0096,-2.1158,-2.1313,-2.1542,-2.1877,-2.2359,-2.3015,-2.38,-2.4408,-2.4948,0.0,0.0,0.0,0.0,0.0,0.0,0.0,-0.8627,-0.878,-0.9246,-0.962,-0.9922,-0.9922,-0.9922,-0.9922,-0.9922,-1.0443,-1.0962,-1.1484,-1.2003,-1.2599,-1.3119,-1.3346,-1.3492,-1.3492,-1.4049,-1.4681,-1.5455,-1.5463,-1.5807,-1.6655,-1.6793,-1.6932,-1.6932,-1.7647,-1.8008,-1.8008,-1.7862,-1.8056,-1.8566,-1.8422,-1.8757,-1.9497,-1.9497,-1.9562,-1.9704,-1.9704,-1.9639,-1.942,-1.8977,-1.8317,-1.7588,-1.7725,-1.8046,-1.8422,-1.871,-1.8191,-1.7439,-1.7904,-1.7211,-1.6055,-1.5846,-1.5515,-1.5177,-1.505,-1.505,-1.4932,-1.4469,-1.4222,-1.3983,-1.3442,-1.3199,-1.3139,-1.3139,-1.3139,-1.2956,-1.2328,-1.2143,-1.2027,-1.1421,-1.1303,-1.1303,-1.1303,-1.0926,-1.0919,-1.1834,-1.1296,-1.0674,-1.0485,-1.0301,-1.0174,-1.0174,-1.0174,-1.0231,-1.0364,-1.0919,-1.1711,-1.2743,-1.4414,-1.5891,-1.7054,-1.8055,-1.9288,-2.0764,-2.0719,-2.0962,-2.1565,-2.2051,-2.2774,-2.3564,-2.3859,-2.4536,-0.5321,-0.6066,-0.6945,-0.7484,-0.7561,-0.7638,0.0,-0.8479,-0.878,-0.9246,-0.962,-0.9922,-0.9922,-0.9922,-0.9922,-0.9922,-1.0443,-1.0812,-1.0887,-1.1409,-1.1855,-1.1855,-1.2826,-1.3492,-1.3492,-1.3564,-1.3912,-1.4673,-1.4744,-1.5029,-1.5807,-1.6515,-1.6932,-1.6932,-1.7647,-1.8008,-1.8008,-1.7364,-1.7079,-1.7139,-1.6437,-1.6507,-1.7276,-1.7276,-1.7628,-1.8202,-1.8202,-1.7842,-1.7276,-1.7852,-1.7295,-1.6026,-1.6724,-1.6655,-1.6228,-1.7638,-1.7811,-1.7324,-1.6998,-1.6537,-1.5936,-1.5012,-1.4625,-1.4469,-1.3863,-1.3683,-1.3692,-1.3623,-1.3191,-1.2696,-1.2634,-1.222,-1.1809,-1.1809,-1.1809,-1.1677,-1.1115,-1.0989,-1.0856,-1.0275,-1.0212,-1.0212,-1.0212,-1.0148,-1.0212,-1.0667,-1.0034,-0.9402,-0.921,-0.8947,-0.8748,-0.8748,-0.8748,-0.9005,-0.9582,-1.0205,-1.0912,-1.1659,-1.3016,-1.4501,-1.5946,-1.6682,-1.7707,-1.9243,-1.9835,-2.0226,-2.0291,-2.1008,-2.1827,-2.2713,-2.2774,-2.3741,-0.488,-0.5309,-0.5682,-0.6689,-0.6479,-0.6167,-0.6553,-0.6853,-0.731,-0.8241,-0.8466,-0.8613,-0.9079,-0.8846,-0.8694,-0.916,-0.9679,-1.0282,-1.0738,-1.1335,-1.1706,-1.1706,-1.215,-1.2599,-1.2973,-1.3273,-1.384,-1.453,-1.4186,-1.4266,-1.5029,-1.5384,-1.5587,-1.5587,-1.6306,-1.6664,-1.6664,-1.6376,-1.6237,-1.6237,-1.5886,-1.5774,-1.5969,-1.5969,-1.6057,-1.6108,-1.6108,-1.6035,-1.5969,-1.6319,-1.6111,-1.5745,-1.6088,-1.6026,-1.579,-1.6273,-1.6142,-1.5742,-1.5333,-1.4932,-1.4499,-1.4045,-1.3932,-1.3872,-1.3571,-1.3511,-1.3442,-1.3009,-1.2512,-1.202,-1.1593,-1.1101,-1.0661,-1.0661,-1.0661,-1.0598,-1.0408,-1.0021,-0.9831,-0.9952,-0.9366,-0.8907,-0.9372,-0.886,-0.8409,-0.8538,-0.9005,-0.921,-0.9017,-0.8689,-0.8355,-0.8081,-0.8016,-0.8146,-0.8404,-0.8715,-0.9296,-1.0275,-1.1495,-1.2848,-1.4465,-1.5431,-1.6655,-1.8325,-1.869,-1.9299,-2.0096,-2.0431,-2.1198,-2.2347,-2.2555,-2.3255,-0.4318,-0.459,-0.4629,-0.5979,-0.5702,-0.5234,-0.5544,-0.5774,-0.6234,-0.7165,-0.7391,-0.7621,-0.8161,-0.7851,-0.7693,-0.8237,-0.8765,-0.9291,-1.0132,-1.0582,-1.0956,-1.1186,-1.1335,-1.1632,-1.2077,-1.282,-1.3477,-1.4034,-1.3695,-1.3702,-1.4258,-1.4466,-1.4601,-1.4601,-1.5313,-1.5675,-1.5675,-1.5525,-1.5392,-1.5384,-1.4931,-1.4821,-1.4976,-1.5078,-1.5022,-1.482,-1.482,-1.4853,-1.4841,-1.5102,-1.5061,-1.4813,-1.5091,-1.5022,-1.4763,-1.4478,-1.4504,-1.4572,-1.4187,-1.3819,-1.345,-1.313,-1.3139,-1.313,-1.2696,-1.2642,-1.2642,-1.2012,-1.1578,-1.1212,-1.073,-1.0155,-0.9697,-0.9697,-0.9564,-0.9366,-0.9244,-0.886,-0.8603,-0.8918,-0.82,-0.7683,-0.821,-0.7567,-0.6915,-0.6715,-0.7567,-0.8226,-0.8096,-0.7702,-0.7302,-0.6967,-0.6902,-0.6967,-0.7158,-0.7223,-0.7747,-0.893,-0.9801,-1.1108,-1.2935,-1.393,-1.5189,-1.6936,-1.7248,-1.7997,-1.9201,-1.9607,-2.0409,-2.1463,-2.1877,-2.2347,-0.2974,-0.3541,-0.3865,-0.5277,-0.5622,-0.5622,-0.5622,-0.5931,-0.6163,-0.624,-0.678,-0.7242,-0.7238,-0.7387,-0.754,-0.754,-0.754,-0.7846,-0.8623,-0.878,-0.9079,-0.9841,-1.0443,-1.0812,-1.0887,-1.1929,-1.2673,-1.2673,-1.3193,-1.3492,-1.3564,-1.4186,-1.4601,-1.4601,-1.5313,-1.5675,-1.5675,-1.4958,-1.4601,-1.4593,-1.3077,-1.2924,-1.413,-1.4605,-1.4828,-1.482,-1.482,-1.4378,-1.3816,-1.4518,-1.3924,-1.2683,-1.349,-1.3289,-1.2579,-1.2248,-1.316,-1.4572,-1.4187,-1.3819,-1.3321,-1.2205,-1.2143,-1.2258,-1.0577,-1.0471,-1.08,-1.0212,-1.0078,-1.0078,-1.0015,-0.9506,-0.9052,-0.9052,-0.8458,-0.7872,-0.7367,-0.7242,-0.7116,-0.6593,-0.6461,-0.6461,-0.6461,-0.6465,-0.6195,-0.5456,-0.5536,-0.5679,-0.5683,-0.5213,-0.4882,-0.4878,-0.4878,-0.5206,-0.5917,-0.5982,-0.6441,-0.7683,-0.8011,-0.9175,-1.1492,-1.1936,-1.2955,-1.4665,-1.5429,-1.6114,-1.6867,-1.8352,-1.9246,-1.9694,-2.0366,-2.0816,-0.0778,-0.1593,-0.2219,-0.3107,-0.3011,-0.2737,-0.2737,-0.2971,-0.3279,-0.3816,-0.3895,-0.4053,-0.4593,-0.4908,-0.5223,-0.5761,-0.6393,-0.7017,-0.7882,-0.8066,-0.8226,-0.8462,-0.8584,-0.8654,-0.8654,-1.0668,-1.2003,-1.2003,-1.2157,-1.2305,-1.2305,-1.2512,-1.2652,-1.2652,-1.2938,-1.3077,-1.3077,-1.2792,-1.2652,-1.2645,-1.1733,-1.1463,-1.1706,-1.119,-1.1175,-1.1575,-1.1111,-1.0974,-1.0969,-1.1626,-1.1477,-1.0779,-1.1047,-1.0979,-1.0673,-0.991,-0.9983,-1.0605,-1.1596,-1.1814,-1.16,-1.0836,-1.0703,-1.0766,-1.0142,-1.0148,-1.0212,-1.0021,-0.9436,-0.879,-0.879,-0.8016,-0.7307,-0.7307,-0.7107,-0.6711,-0.6052,-0.5592,-0.5196,-0.5058,-0.4201,-0.3675,-0.4201,-0.3872,-0.3409,-0.3074,-0.4077,-0.4945,-0.508,-0.4478,-0.3946,-0.3547,-0.3141,-0.3139,-0.3872,-0.3939,-0.4665,-0.6375,-0.6564,-0.7407,-0.9175,-0.9961,-1.1141,-1.282,-1.3731,-1.4767,-1.6044,-1.7064,-1.7881,-1.8629,-1.9541,-2.002,0.1375,0.0567,-0.0219,-0.1198,-0.092,-0.0469,-0.0782,-0.0939,-0.1173,-0.1793,-0.2031,-0.2268,-0.289,-0.3147,-0.3484,-0.4032,-0.4596,-0.5398,-0.6606,-0.6855,-0.7087,-0.7757,-0.7655,-0.756,-0.7577,-0.9092,-1.0279,-1.0881,-1.1403,-1.1706,-1.1706,-1.1706,-1.1706,-1.1706,-1.1706,-1.1706,-1.1706,-1.1403,-1.0929,-1.0289,-1.0084,-0.9749,-0.9294,-0.8887,-0.8918,-0.9314,-0.8936,-0.8864,-0.9078,-0.9553,-0.9576,-0.9297,-0.9284,-0.9251,-0.9149,-0.8497,-0.821,-0.8388,-0.942,-0.9755,-0.9691,-0.9175,-0.9111,-0.9169,-0.8854,-0.8854,-0.8988,-0.879,-0.814,-0.7562,-0.7562,-0.678,-0.5935,-0.5734,-0.5467,-0.5071,-0.4334,-0.3806,-0.354,-0.3535,-0.2743,-0.228,-0.2743,-0.2211,-0.1678,-0.1542,-0.2206,-0.2937,-0.3476,-0.3078,-0.2613,-0.228,-0.1876,-0.1809,-0.2211,-0.228,-0.2876,-0.4392,-0.4728,-0.5519,-0.7026,-0.8117,-0.9395,-1.0802,-1.2025,-1.3201,-1.449,-1.5466,-1.6374,-1.7073,-1.7968,-1.8649,0.3564,0.2822,0.196,0.0447,0.0687,0.1165,0.039,0.0156,0.0156,-0.0078,-0.0939,-0.1724,-0.1881,-0.2156,-0.235,-0.235,-0.2482,-0.3104,-0.4848,-0.502,-0.569,-0.7281,-0.7353,-0.7286,-0.7373,-0.7099,-0.7572,-0.9241,-1.0651,-1.1477,-1.1477,-1.1477,-1.1477,-1.1477,-1.1477,-1.1477,-1.1477,-1.072,-0.949,-0.7756,-0.8118,-0.7922,-0.7148,-0.7659,-0.7943,-0.7885,-0.8007,-0.8018,-0.8018,-0.8089,-0.8089,-0.7999,-0.7879,-0.7875,-0.7851,-0.763,-0.7618,-0.7618,-0.7603,-0.7733,-0.7802,-0.7237,-0.7428,-0.7608,-0.6584,-0.6654,-0.6915,-0.6457,-0.6264,-0.6264,-0.6264,-0.5668,-0.5008,-0.4339,-0.3678,-0.2948,-0.2213,-0.2012,-0.2012,-0.1945,-0.1878,-0.1878,-0.1878,-0.1343,-0.0873,-0.067,0.0067,0.0134,-0.1005,-0.1074,-0.0941,-0.0941,-0.0873,-0.0941,-0.1008,-0.1008,-0.1208,-0.1806,-0.2476,-0.3513,-0.5033,-0.6452,-0.7637,-0.8626,-1.0125,-1.1304,-1.2117,-1.3621,-1.4577,-1.5054,-1.5781,-1.672,0.569,0.5067,0.4364,0.3547,0.3493,0.3577,0.2953,0.2812,0.2812,0.2734,0.2343,0.203,0.1952,0.0637,-0.0405,-0.0405,-0.1676,-0.2751,-0.3005,-0.3131,-0.3247,-0.3508,-0.4066,-0.4446,-0.4507,-0.4859,-0.5305,-0.5744,-0.7204,-0.8134,-0.8376,-0.8376,-0.8452,-0.8599,-0.8599,-0.8599,-0.8599,-0.8371,-0.7873,-0.7137,-0.7301,-0.6885,-0.5944,-0.5557,-0.5351,-0.5265,-0.4739,-0.4472,-0.4541,-0.5101,-0.4962,-0.4467,-0.4441,-0.443,-0.4343,-0.3818,-0.3577,-0.3566,-0.3558,-0.5249,-0.7172,-0.6117,-0.5851,-0.5844,-0.5055,-0.4923,-0.4989,-0.4857,-0.4463,-0.4002,-0.4002,-0.3476,-0.288,-0.2679,-0.2547,-0.2213,-0.1478,-0.0939,-0.0402,0.0201,0.0671,0.1005,0.1005,0.1139,0.1341,0.1542,0.1743,0.1541,0.0401,0.0869,0.1272,0.1272,0.1808,0.1675,0.0603,0.0537,0.0,-0.1208,-0.1477,-0.2151,-0.3442,-0.402,-0.5115,-0.6968,-0.7961,-0.8956,-0.9873,-1.1582,-1.2478,-1.2625,-1.4268,-1.5192,0.7862,0.7162,0.6264,0.5654,0.5878,0.6105,0.5493,0.5369,0.5369,0.5289,0.4593,0.3908,0.3795,0.2585,0.1649,0.1582,0.0343,-0.0703,-0.0965,-0.1419,-0.1787,-0.2054,-0.2477,-0.2714,-0.2775,-0.2935,-0.3107,-0.3152,-0.5123,-0.6371,-0.6605,-0.7,-0.7314,-0.7464,-0.7145,-0.6601,-0.5832,-0.5768,-0.551,-0.4854,-0.4871,-0.4621,-0.3982,-0.3668,-0.3465,-0.3385,-0.3057,-0.2923,-0.2925,-0.3364,-0.3291,-0.2921,-0.2817,-0.2804,-0.2723,-0.2297,-0.1848,-0.1559,-0.1606,-0.2554,-0.39,-0.3894,-0.387,-0.3803,-0.3471,-0.3338,-0.3338,-0.3338,-0.2804,-0.227,-0.227,-0.1737,-0.1071,-0.0803,-0.0669,-0.0536,0.0134,0.0604,0.1072,0.1477,0.1812,0.2146,0.2414,0.248,0.2679,0.3345,0.3544,0.3476,0.3197,0.2741,0.2479,0.2479,0.2948,0.2882,0.2076,0.2009,0.1675,0.0871,0.0201,-0.0469,-0.1137,-0.213,-0.3313,-0.4472,-0.5978,-0.7174,-0.8192,-0.9938,-1.1075,-1.1613,-1.2698,-1.3563,0.9983,0.9066,0.7962,0.7346,0.7892,0.8314,0.7702,0.7596,0.7516,0.7359,0.62,0.5165,0.4893,0.4194,0.3624,0.3619,0.291,0.2056,0.125,0.0447,-0.0357,-0.116,-0.1341,-0.1421,-0.1569,-0.1277,-0.1166,-0.1304,-0.3476,-0.4969,-0.5354,-0.6066,-0.6615,-0.6842,-0.6136,-0.4966,-0.3494,-0.3507,-0.3097,-0.2267,-0.2224,-0.2131,-0.1986,-0.2106,-0.2127,-0.1978,-0.2095,-0.2192,-0.2192,-0.2034,-0.2033,-0.1952,-0.1759,-0.167,-0.1664,-0.1548,-0.1021,-0.0437,-0.0435,0.0072,0.0431,-0.1099,-0.1622,-0.1617,-0.1551,-0.1546,-0.1542,-0.1542,-0.1138,-0.0668,-0.0668,-0.02,0.0467,0.1069,0.127,0.1471,0.2078,0.2347,0.2479,0.2614,0.2614,0.2748,0.3213,0.328,0.3678,0.4803,0.5071,0.5408,0.6009,0.4553,0.3489,0.3489,0.3618,0.368,0.3613,0.3547,0.3413,0.3349,0.2075,0.134,0.1206,-0.0547,-0.1614,-0.1803,-0.3894,-0.5482,-0.646,-0.817,-0.9567,-1.0565,-1.087,-1.1668,1.1197,1.0807,1.0277,0.9548,0.9486,0.9422,0.868,0.8466,0.8466,0.8461,0.8228,0.8056,0.8243,0.6799,0.5705,0.5923,0.448,0.3303,0.3303,0.3213,0.3124,0.3212,0.1785,0.0802,0.08,0.0172,-0.0335,-0.0334,-0.0721,-0.1484,-0.2503,-0.2737,-0.2971,-0.3357,-0.3202,-0.2942,-0.2585,-0.2621,-0.254,-0.2269,-0.2378,-0.2088,-0.1471,-0.1477,-0.1091,-0.039,-0.0392,-0.0471,-0.0392,0.0313,0.0626,0.0704,0.1402,0.1632,0.1705,0.1662,0.1797,0.1941,0.1902,0.2035,0.1958,0.1076,0.0775,0.083,0.1387,0.1434,0.134,0.134,0.1474,0.1541,0.1541,0.1608,0.1742,0.1877,0.2277,0.2609,0.2744,0.3609,0.4538,0.515,0.5219,0.5286,0.5352,0.5352,0.5484,0.5686,0.5752,0.5822,0.5888,0.5888,0.5947,0.6199,0.626,0.6125,0.5851,0.5259,0.4668,0.414,0.3278,0.2544,0.194,0.1544,0.0818,-0.042,-0.1363,-0.2207,-0.3025,-0.492,-0.5973,-0.636,-0.7897,-0.8883,1.2027,1.1476,1.1001,1.0992,1.0998,1.1007,1.0905,1.0875,1.0801,1.0501,1.0045,0.9779,0.9662,0.8653,0.7812,0.8084,0.6618,0.5427,0.5518,0.4725,0.4198,0.4287,0.3482,0.2946,0.2946,0.2431,0.2121,0.2014,0.2032,0.1346,-0.0391,-0.0546,-0.0468,-0.0234,-0.0312,-0.0155,0.0384,0.0155,0.0155,0.0231,0.0155,0.0313,0.0704,0.0704,0.0939,0.1332,0.1332,0.1332,0.1332,0.2112,0.2425,0.2503,0.32,0.3509,0.3505,0.3465,0.3755,0.4132,0.4086,0.4373,0.475,0.4363,0.3447,0.2417,0.2777,0.3104,0.3277,0.3277,0.3554,0.3832,0.3832,0.4114,0.4381,0.4248,0.4325,0.448,0.448,0.4945,0.5481,0.5822,0.5888,0.602,0.6284,0.635,0.6412,0.6675,0.6741,0.6741,0.6741,0.6872,0.6937,0.6802,0.6863,0.6924,0.6915,0.6584,0.6125,0.5467,0.4671,0.4008,0.3278,0.2878,0.2372,0.1671,0.0916,-0.0072,-0.135,-0.2802,-0.3984,-0.4966,-0.5966,-0.6652,1.3025,1.2398,1.1963,1.2298,1.2427,1.256,1.2839,1.29,1.2746,1.2298,1.1694,1.1175,1.0993,1.0272,0.9843,1.011,0.8773,0.7632,0.7464,0.6145,0.5087,0.4912,0.4734,0.4556,0.4556,0.4552,0.4455,0.4279,0.4568,0.374,0.1563,0.1246,0.1477,0.2101,0.2025,0.2186,0.2818,0.2737,0.2735,0.2659,0.2813,0.2891,0.2891,0.2891,0.2891,0.2891,0.2891,0.2891,0.2969,0.3591,0.3902,0.3979,0.4673,0.4905,0.4905,0.4905,0.5372,0.5841,0.5841,0.6311,0.6865,0.6865,0.5601,0.4087,0.4087,0.4432,0.4842,0.4842,0.5203,0.5636,0.5636,0.6079,0.6489,0.6422,0.6287,0.6254,0.6281,0.6273,0.6328,0.6416,0.6478,0.6605,0.719,0.7321,0.7451,0.7847,0.7907,0.7907,0.7907,0.7907,0.7777,0.7451,0.7321,0.7386,0.7712,0.7647,0.7381,0.6854,0.6187,0.5529,0.5011,0.4278,0.3852,0.373,0.2918,0.1774,0.0221,-0.0744,-0.1962,-0.3306,-0.3868,-0.4414,1.4647,1.4666,1.4541,1.3729,1.3874,1.3932,1.3107,1.29,1.29,1.282,1.2746,1.2858,1.3386,1.2203,1.1398,1.1985,1.0692,0.9314,0.8448,0.8189,0.7837,0.6959,0.6074,0.5542,0.5542,0.5507,0.5379,0.51,0.6314,0.5915,0.3279,0.2966,0.2887,0.2966,0.2966,0.289,0.2818,0.3357,0.3511,0.3359,0.3898,0.4206,0.4206,0.4206,0.4206,0.4206,0.4206,0.4206,0.4283,0.5063,0.5375,0.5452,0.6314,0.6703,0.6703,0.6703,0.6703,0.6784,0.6784,0.6861,0.6865,0.6865,0.6662,0.6363,0.6363,0.6343,0.6305,0.6305,0.6376,0.6376,0.6376,0.6452,0.6591,0.707,0.7191,0.7276,0.7587,0.7613,0.776,0.8208,0.8291,0.8484,0.9134,0.9256,0.9262,0.9326,0.9326,0.9326,0.9326,0.9326,0.9384,0.9697,0.8882,0.8511,0.8823,0.8554,0.8355,0.8296,0.7642,0.7186,0.712,0.6461,0.5804,0.5147,0.4469,0.3639,0.2677,0.1989,0.1356,0.083,-0.0618,-0.1403,1.4874,1.4884,1.5095,1.4927,1.523,1.5402,1.4814,1.4617,1.4402,1.3615,1.3631,1.3751,1.3811,1.3466,1.3303,1.3717,1.2413,1.1209,1.0864,0.9923,0.9231,0.8794,0.844,0.8261,0.8261,0.819,0.8025,0.7667,0.7969,0.7685,0.6685,0.6528,0.6447,0.6447,0.6367,0.614,0.5841,0.5912,0.5835,0.5535,0.5767,0.5922,0.5922,0.5922,0.5922,0.5922,0.5922,0.5922,0.5918,0.6615,0.6927,0.7003,0.7702,0.8012,0.8012,0.8012,0.8012,0.8012,0.8012,0.8012,0.8012,0.8012,0.8259,0.8496,0.7593,0.7547,0.7786,0.7786,0.8157,0.8527,0.8527,0.8787,0.9113,0.9328,0.9297,0.9243,0.9427,0.9405,0.94,0.9412,0.9431,0.9444,0.9484,0.9518,0.9518,0.9518,0.9518,0.9518,0.9518,0.9582,0.9709,0.9703,0.9518,0.9582,1.004,0.997,0.9576,0.8988,0.8661,0.828,0.7892,0.7316,0.7046,0.7028,0.6258,0.5338,0.4253,0.3699,0.2901,0.2066,0.1267,0.0823,1.5586,1.5693,1.6119,1.6168,1.6468,1.6698,1.6253,1.5965,1.5551,1.4617,1.4471,1.4517,1.4377,1.4453,1.4681,1.4928,1.3873,1.2923,1.2656,1.1461,1.0524,1.026,1.0005,0.9923,0.9923,0.9981,1.004,1.006,0.9627,0.9377,0.9377,0.9377,0.9155,0.8703,0.8542,0.8309,0.8008,0.7927,0.7698,0.7318,0.7399,0.7399,0.7399,0.7399,0.7399,0.7399,0.7399,0.7399,0.7476,0.7859,0.8241,0.847,0.8851,0.9084,0.9079,0.9306,0.9231,0.9084,0.9306,0.9377,0.9377,0.9377,0.976,1.0067,0.9069,0.9074,0.9377,0.9377,0.9836,1.0218,1.0218,1.0603,1.0894,1.0894,1.0754,1.0673,1.0588,1.0569,1.0559,1.0491,1.0365,1.0246,1.0251,1.0149,1.0091,1.0091,1.0091,1.0091,1.0091,1.0281,1.0345,1.0218,1.0584,1.0773,1.0604,1.0674,1.0415,0.9691,0.9691,0.95,0.9046,0.8345,0.8215,0.872,0.7757,0.6845,0.5955,0.559,0.4839,0.373,0.3108,0.2614,1.7273,1.7811,1.8168,1.7435,1.7637,1.7823,1.707,1.6315,1.5833,1.5762,1.551,1.5284,1.5618,1.541,1.5264,1.5681,1.5151,1.4384,1.3412,1.2741,1.1889,1.101,1.0341,0.9923,0.9923,1.0299,1.0858,1.184,1.1419,1.1111,1.1111,1.1111,1.0357,0.878,0.8703,0.8618,0.838,0.8618,0.8618,0.838,0.8618,0.8699,0.8699,0.8699,0.8699,0.8699,0.8699,0.8699,0.8699,0.8699,0.9155,0.9846,0.9916,0.9916,0.9992,1.0812,1.0594,0.9997,1.0812,1.1111,1.1111,1.1111,1.1111,1.1111,1.1037,1.1037,1.1111,1.1111,1.1111,1.1111,1.1111,1.1111,1.1105,1.1105,1.1105,1.1027,1.0827,1.0767,1.0901,1.1388,1.1229,1.1224,1.1833,1.1765,1.156,1.156,1.156,1.156,1.156,1.1685,1.1802,1.1802,1.2466,1.2197,1.0205,1.0358,1.0618,1.0807,1.08,1.0863,1.0982,0.9818,0.9424,0.999,0.8779,0.8071,0.7867,0.8026,0.7532,0.6539,0.5284,0.3765,1.7963,1.8197,1.8531,1.8114,1.8385,1.8586,1.7833,1.7482,1.7001,1.6044,1.6057,1.6162,1.5811,1.6008,1.6269,1.6386,1.5816,1.5311,1.4956,1.4371,1.3873,1.3522,1.3353,1.3184,1.3184,1.2939,1.2857,1.3186,1.2639,1.2305,1.2305,1.2305,1.1929,1.0956,1.0956,1.1019,1.1069,1.1019,1.0795,1.0479,1.0351,1.0357,1.0357,1.0357,1.0357,1.0357,1.0357,1.0357,1.0357,1.0357,1.0507,1.0738,1.0738,1.0738,1.0738,1.1037,1.0962,1.0738,1.1037,1.1111,1.1111,1.1111,1.1484,1.1996,1.2485,1.1903,1.1186,1.1781,1.1929,1.2077,1.2599,1.2746,1.2746,1.2746,1.2746,1.2725,1.2694,1.3014,1.3405,1.3286,1.3611,1.3858,1.3508,1.3337,1.3244,1.2936,1.2903,1.2903,1.2903,1.3139,1.3191,1.2964,1.3494,1.3183,1.1545,1.1911,1.1911,1.1178,1.1247,1.1373,1.1428,1.0787,1.0654,1.1219,1.0255,0.9551,0.9151,0.8969,0.8311,0.721,0.6904,0.6136,1.8362,1.8438,1.8791,1.8705,1.8858,1.8998,1.8519,1.8172,1.7696,1.6455,1.6508,1.659,1.5835,1.6261,1.673,1.673,1.6319,1.6072,1.6072,1.5484,1.4985,1.4734,1.4734,1.4734,1.4734,1.4174,1.3817,1.3817,1.3243,1.29,1.29,1.29,1.282,1.2666,1.2445,1.2372,1.2505,1.2144,1.1848,1.1613,1.1254,1.1111,1.1111,1.1111,1.1111,1.1111,1.1111,1.1111,0.0,1.1111,1.126,1.1558,1.1558,1.1558,1.1632,1.2211,1.2198,1.205,1.2631,1.2851,1.2851,1.2851,1.315,1.3665,1.4148,1.3571,1.2924,1.3448,1.3593,1.3593,1.3833,1.4129,1.4274,1.3985,1.4129,1.4377,1.4582,1.4953,1.5281,1.5182,1.5492,1.5601,1.5126,1.4798,1.4478,1.4044,1.3864,1.3665,1.3528,1.3743,1.3855,1.3683,1.4163,1.4034,1.2956,1.3191,1.3061,1.2336,1.2466,1.2536,1.2544,1.1849,1.1725,1.2228,1.1281,1.0647,1.0319,0.9488,0.8792,0.8154,0.7831,0.7523,0.0,1.8669,1.9131,1.9075,1.9075,1.9075,1.9075,1.8586,0.0,1.707,1.6872,1.6674,1.5827,1.6261,1.673,1.673,1.673,1.673,1.673,1.6147,1.5567,1.4901,1.4817,1.481,1.4789,1.424,1.3967,1.3867,1.3386,1.3046,1.3112,1.3112,1.3397,1.397,1.347,1.3185,1.3112,1.2519,1.2291,1.2291,1.1694,1.1477,1.1397,1.1397,1.1397,1.1397,1.1397,1.1397,1.1397,1.1397,1.1848,1.2519,1.2519,1.2519,1.2732,1.4171,1.4227,1.378,1.5234,1.5675,1.5675,1.5675,1.5745,1.5816,1.5816,1.5745,1.5675,1.5675,1.5675,1.5525,1.4887,1.5171,1.5534,1.4848,1.5284,1.5891,1.634,1.6499,1.6603,1.7024,1.6954,1.6782,1.6756,1.614,1.5458,1.5055,1.4623,1.4186,1.3718,1.3787,1.395,1.4094,1.4638,1.4765,1.4332,1.4154,1.4025,1.4025,1.4034,1.4043,1.401,1.3009,1.2634,1.307,1.1973,1.1428,1.1365,0.9926,0.9285,0.9332,0.8387,0.8179,1.9145,0.0,1.9208,1.9142,1.9075,1.9075,0.0,1.8998,1.8452,1.7139,1.7297,1.7261,1.5904,1.6261,1.673,1.673,1.673,1.673,1.673,1.6566,1.6402,1.6237,1.6237,1.6129,1.5867,1.5458,1.5188,1.4865,1.4448,1.4489,1.5117,1.5117,1.5463,1.6158,1.6018,1.5666,1.5117,1.4816,1.4879,1.5305,1.5005,1.4791,1.4585,1.4585,1.4585,1.4585,1.4585,1.4585,1.4585,1.4585,1.4736,1.4887,1.4887,1.4887,1.495,1.5313,1.5313,1.5234,1.5596,1.5675,1.5675,1.5675,1.6097,1.6655,1.6655,1.6167,1.5675,1.5675,1.5675,1.5675,1.5463,1.5604,1.5743,1.5961,1.6101,1.6349,1.6802,1.7344,1.7833,1.7924,1.8313,1.8581,1.8185,1.7957,1.7586,1.693,1.6674,1.6332,1.5581,1.5607,1.5542,1.5147,1.543,1.5556,1.5371,1.4923,1.4501,1.4025,1.4085,1.4094,1.3974,1.3846,1.3734,1.3761,1.3017,1.2343,1.1934,1.1674,1.1194,1.0673,1.0495,1.0146,1.9576,1.9424,1.9285,1.9208,1.9142,1.9075,1.9075,1.9075,1.8849,1.7946,1.7786,1.7614,1.6723,1.6987,1.7212,1.673,1.7049,1.7286,1.7286,1.7286,1.7448,1.7836,1.7521,1.7307,1.7327,1.7184,1.6987,1.6544,1.6388,1.6413,1.6847,1.6919,1.7054,1.7484,1.7484,1.7097,1.6315,1.6088,1.6158,1.6437,1.6149,1.5939,1.5807,1.5737,1.5675,1.5675,1.5675,1.5675,1.5675,1.5675,1.5675,1.5675,1.5675,1.5675,1.5745,1.6088,1.6228,1.6306,1.6664,1.6733,1.6733,1.6733,1.7019,1.7432,1.7755,1.7743,1.7502,1.6917,1.686,1.6926,1.6581,1.6929,1.7333,1.7269,1.746,1.7862,1.8256,1.8658,1.9033,1.9231,1.9647,1.9795,1.9561,1.9355,1.9004,1.8359,1.792,1.7432,1.6758,1.6556,1.6323,1.5881,1.596,1.6008,1.5914,1.5864,1.5555,1.4932,1.4991,1.4991,1.4883,1.4628,1.4323,1.3855,1.3442,1.3078,1.2728,1.2523,1.2168,1.1723,1.1509,1.1274,1.9933,1.9681,1.9351,1.9351,1.9208,1.9075,1.9075,1.9075,1.8987,1.8745,1.8379,1.8052,1.7751,1.7978,1.7997,1.7204,1.7683,1.8238,1.8238,1.8238,1.847,1.9186,1.863,1.8329,1.857,1.8764,1.8598,1.8184,1.8147,1.8286,1.8359,1.8359,1.8433,1.8507,1.8507,1.8169,1.7473,1.7112,1.6908,1.6913,1.6567,1.6358,1.6358,1.6158,1.6026,1.6026,1.6026,1.6026,1.6026,1.6026,1.6026,1.6026,1.6026,1.6026,1.6097,1.6802,1.7079,1.7148,1.7794,1.8076,1.8134,1.8134,1.8202,1.8414,1.906,1.9619,1.9792,1.8821,1.8795,1.8932,1.8285,1.8778,1.937,1.8767,1.9008,1.9576,2.0062,2.0161,2.0345,2.0864,2.0944,2.0944,2.0944,2.0625,2.0227,1.98,1.9103,1.8436,1.7935,1.7461,1.7034,1.6587,1.6537,1.6467,1.6304,1.6779,1.6804,1.6239,1.6228,1.6171,1.5972,1.5352,1.4669,1.3888,1.3734,1.3623,1.3502,1.2923,1.2671,1.2634,1.2074,1.1984,2.0085,1.9944,1.9747,1.9417,1.9208,1.9075,1.9075,1.9075,1.8987,1.8745,1.8893,1.8944,1.869,1.8843,1.9027,1.8939,1.9018,1.9107,1.9107,1.9107,1.9177,1.9256,1.9177,1.903,1.8801,1.8773,1.8598,1.8249,1.8212,1.8507,1.9093,1.9093,1.9393,2.0053,2.0053,1.9992,1.9849,1.8913,1.8399,1.8462,1.8259,1.8056,1.791,1.7725,1.7657,1.7657,1.7657,1.7657,1.7657,1.7657,1.7657,1.7657,1.7657,1.7657,1.7657,1.7794,1.7794,1.7872,1.794,1.8395,1.8854,1.8854,1.9243,1.9845,2.0443,2.0684,2.0815,2.1083,2.1155,2.1209,2.1059,2.0702,2.036,2.0584,2.0252,2.0157,2.1257,2.1501,2.1748,2.2489,2.266,2.266,2.266,2.2595,2.239,2.1905,2.1711,2.115,1.9944,1.9717,1.9158,1.7698,1.7554,1.7419,1.7061,1.7244,1.7399,1.7556,1.7257,1.6708,1.6114,1.5836,1.542,1.4728,1.4569,1.4213,1.3657,1.3433,1.3381,1.3321,1.326,1.3224,2.0085,1.9944,1.9736,1.9671,1.9473,1.9341,1.9208,1.9406,1.9572,1.9586,1.9598,1.9597,1.9707,1.9858,1.9982,1.9982,1.9982,1.9982,1.9982,1.9982,2.0138,2.0615,2.0216,1.9975,2.0017,2.0269,2.022,1.9777,1.9964,2.0466,2.1292,2.1282,2.1649,2.2363,2.2435,2.2314,2.2061,2.1198,2.0323,1.9301,1.8795,1.8482,1.8414,1.8144,1.8008,1.8008,1.8395,1.8337,1.8008,1.8395,1.8519,1.8519,1.8519,1.8787,1.9121,1.9121,1.9121,1.9121,1.9121,1.9309,1.9573,1.9573,2.0008,2.0654,2.1285,2.1857,2.2457,2.3041,2.2612,2.2039,2.2039,2.1951,2.1921,2.2051,2.1808,2.1722,2.2307,2.2435,2.2585,2.2957,2.3032,2.3032,2.3032,2.3032,2.2955,2.2725,2.2473,2.1958,2.1037,2.0698,2.0118,1.8783,1.8749,1.8678,1.8181,1.8717,1.8737,1.803,1.7809,1.7545,1.7213,1.7056,1.6652,1.6073,1.5911,1.5507,1.4874,1.4824,1.4588,1.4264,1.4163,1.3983,2.0085,1.9878,1.9736,1.9868,1.9671,1.9505,1.9488,1.9724,2.0063,2.0472,2.0343,2.0341,2.07,2.0779,2.0779,2.0779,2.0779,2.0779,2.0779,2.0779,2.1011,2.1721,2.1175,2.0958,2.1236,2.1741,2.1954,2.1597,2.204,2.2606,2.3202,2.3287,2.3486,2.4108,2.4108,2.3936,2.3628,2.2914,2.1812,2.0275,1.9473,1.9054,1.9054,1.8664,1.8529,1.8596,1.9044,1.8988,1.8529,1.9044,1.9243,1.9243,1.9243,1.9573,2.0096,2.0096,2.0096,2.0096,2.0096,2.0226,2.0377,2.0488,2.0907,2.153,2.2301,2.3049,2.3909,2.4525,2.3839,2.2965,2.2965,2.3112,2.3243,2.3243,2.3106,2.3032,2.3243,2.3243,2.3316,2.3463,2.3548,2.3548,2.3548,2.3548,2.3621,2.3548,2.3284,2.2894,2.2217,2.1812,2.1205,2.0017,2.0042,1.9902,1.9516,2.0135,2.0076,1.8991,1.8768,1.8614,1.8504,1.8393,1.8115,1.7676,1.7494,1.7209,1.6722,1.6557,1.6185,1.5674,1.5405,1.4986,2.0085,2.0009,1.9868,1.9868,1.9539,1.9256,1.9829,1.9885,2.0076,2.0886,2.102,2.1185,2.1638,2.1731,2.1731,2.1731,2.1731,2.1731,2.1731,2.1731,2.1731,2.1807,2.1731,2.1721,2.1756,2.2456,2.2916,2.2872,2.3537,2.3975,2.4047,2.4047,2.4047,2.4108,2.4108,2.4097,2.4062,2.3087,2.234,2.1758,2.0997,2.0632,2.0632,2.0257,2.0139,2.0139,2.002,1.9966,1.9966,2.0031,2.0031,2.0031,2.0031,2.0031,2.0096,2.0096,2.0096,2.0096,2.0096,2.0484,2.114,2.1609,2.2262,2.3018,2.4042,2.439,2.4546,2.5107,2.5181,2.5098,2.5098,2.4541,2.4047,2.4047,2.3463,2.3169,2.3902,2.4047,2.4264,2.5016,2.5158,2.5158,2.5158,2.5312,2.5382,2.5158,2.5429,2.518,2.4002,2.3779,2.3203,2.1612,2.1318,2.1171,2.0877,2.1046,2.1151,2.1256,2.0714,2.0189,1.9703,1.9692,1.9633,1.9575,1.9435,1.9295,1.9236,1.8485,1.8073,1.8073,1.741,1.6996,2.0085,2.0009,1.9868,1.9868,1.9539,1.9333,1.987,2.0205,2.0511,2.099,2.1342,2.16,2.1776,2.1807,2.1807,2.1807,2.1807,2.1807,2.1807,2.1807,2.1807,2.1807,2.1807,2.2035,2.2478,2.2852,2.3213,2.3621,2.3975,2.4337,2.4791,2.4862,2.5075,2.5581,2.5569,2.5569,2.5569,2.4524,2.3879,2.3673,2.1737,2.0824,2.0824,2.0579,2.0398,2.0333,2.0741,2.0613,2.0096,2.0549,2.0741,2.0752,2.121,2.1411,2.1411,2.1411,2.1411,2.1411,2.1411,2.16,2.1883,2.2403,2.3001,2.3604,2.4314,2.4747,2.5047,2.5252,2.5312,2.5312,2.5312,2.5087,2.4862,2.4862,2.4647,2.4504,2.4791,2.4862,2.4933,2.5229,2.5312,2.5312,2.5312,2.5465,2.5535,2.5535,2.5688,2.564,2.4823,2.4365,2.3798,2.2853,2.2428,2.22,2.2165,2.2209,2.2346,2.251,2.1674,2.1075,2.0848,2.0848,2.0665,2.0308,2.0226,2.0006,1.9667,1.9383,1.9205,1.9205,1.8824,1.8401,2.0085,2.0009,1.9868,1.9868,1.9605,1.9442,2.0048,2.0435,2.0761,2.1207,2.159,2.1807,2.1807,2.1807,2.1807,2.1807,2.1807,2.1756,2.1611,2.1941,2.2124,2.1976,2.2296,2.2756,2.3276,2.357,2.3936,2.442,2.4696,2.5063,2.5664,2.5676,2.5955,2.6452,2.6533,2.6533,2.6533,2.5557,2.5052,2.5039,2.3083,2.193,2.153,2.1365,2.1175,2.1112,2.1451,2.1336,2.0816,2.1262,2.1463,2.1526,2.1999,2.2197,2.2197,2.2197,2.2197,2.2185,2.2371,2.2432,2.2554,2.3438,2.398,2.4345,2.4908,2.5302,2.5523,2.5382,2.5312,2.5312,2.5312,2.5312,2.5312,2.5312,2.5312,2.5312,2.5312,2.5312,2.5312,2.5312,2.5312,2.5312,2.5312,2.5465,2.5606,2.5606,2.584,2.5783,2.5228,2.4698,2.4094,2.3367,2.296,2.28,2.2969,2.2909,2.2969,2.3078,2.2422,2.2008,2.2008,2.2008,2.1823,2.1394,2.1382,2.1219,2.0819,2.0641,2.0522,2.0522,2.0199,1.9704,2.0085,2.0009,1.9868,1.9868,1.9605,1.9525,2.0495,2.0563,2.069,2.1621,2.1807,2.1807,2.1807,2.1807,2.1807,2.1797,2.1797,2.1631,2.1176,2.2168,2.2805,2.2324,2.339,2.4108,2.4108,2.4862,2.5312,2.5312,2.6025,2.6533,2.6533,2.6533,2.6533,2.6533,2.6533,2.6533,2.6533,2.5975,2.5722,2.5696,2.5244,2.4323,2.3138,2.286,2.2739,2.269,2.2371,2.2197,2.2197,2.2197,2.2197,2.2197,2.2197,2.2197,2.2197,2.2197,2.2197,2.2247,2.2726,2.2909,2.3156,2.481,2.5294,2.5448,2.6033,2.6233,2.6082,2.5453,2.5312,2.5312,2.5312,2.5312,2.5312,2.5312,2.5312,2.5312,2.5312,2.5312,2.5312,2.5312,2.5312,2.5312,2.5312,2.5465,2.5606,2.5606,2.598,2.6002,2.5351,2.4896,2.4151,2.3033,2.2909,2.2969,2.3078,2.2969,2.2969,2.3078,2.3078,2.3078,2.3078,2.3078,2.3078,2.3078,2.3078,2.3078,2.3078,2.2433,2.2101,2.2113,2.1439,2.0974,2.0085,2.0074,2.0009,1.9933,1.9671,1.9631,2.0107,2.0274,2.069,2.1621,2.1807,2.1807,2.1807,2.1807,2.1694,2.1373,2.1321,2.1303,2.1336,2.1685,2.2193,2.2928,2.3288,2.3943,2.4826,2.5158,2.5523,2.6094,2.6383,2.6533,2.6533,2.6533,2.6533,2.6533,2.6533,2.6533,2.6533,2.5557,2.5294,2.5696,2.4787,2.4394,2.4439,2.4337,2.393,2.3365,2.359,2.3305,2.2726,2.3065,2.3173,2.3173,2.3173,2.3173,2.3173,2.3173,2.3173,2.3173,2.3352,2.3679,2.4149,2.5,2.5563,2.6024,2.662,2.6769,2.6701,2.6564,2.6208,2.5943,2.5943,2.5594,2.5312,2.5312,2.5312,2.5312,2.5312,2.5312,2.5312,2.5465,2.5382,2.5312,2.5465,2.5688,2.5828,2.5828,2.6188,2.6058,2.5053,2.4856,2.433,2.3142,2.3017,2.3078,2.3078,2.3078,2.3078,2.3078,2.3078,2.3078,2.3078,2.3078,2.3078,2.3078,2.3078,2.3078,2.3078,2.2884,2.2811,2.2811,2.2628,2.2237,2.0085,2.0085,2.0074,2.0009,1.9813,1.9666,1.987,2.018,2.0638,2.1383,2.1458,2.1333,2.1259,2.1333,2.1313,2.125,2.1269,2.1325,2.1605,2.2037,2.2605,2.3385,2.394,2.463,2.5685,2.5816,2.5955,2.6452,2.6533,2.6533,2.6533,2.6533,2.6533,2.6533,2.6782,2.6905,2.6905,2.6219,2.6069,2.6411,2.5592,2.537,2.5701,2.5119,2.4597,2.4021,2.415,2.3813,2.3185,2.3471,2.3577,2.3577,2.3577,2.3577,2.3577,2.3577,2.3577,2.3636,2.3813,2.4248,2.4905,2.5677,2.6317,2.683,2.7207,2.731,2.7242,2.704,2.6633,2.6233,2.6427,2.6082,2.5594,2.5382,2.5312,2.5312,2.5312,2.5382,2.5523,2.5918,2.5734,2.5664,2.607,2.6025,2.591,2.5992,2.6058,2.5799,2.4933,2.4632,2.4142,2.3226,2.3078,2.3078,2.3078,2.3078,2.3078,2.3078,2.3078,2.3078,2.3078,2.3078,2.3078,2.3078,2.3078,2.3078,2.3078,2.3078,2.3078,2.3078,2.3078,2.2871,2.0085,2.0085,2.0085,2.0085,1.9878,1.9666,1.9792,2.0048,2.0452,2.0948,2.0855,2.0634,2.0492,2.0634,2.0966,2.1424,2.1483,2.1583,2.1827,2.2798,2.358,2.3772,2.4855,2.5749,2.6395,2.6496,2.6589,2.6533,2.6589,2.6589,2.6589,2.6589,2.6589,2.6658,2.7297,2.7604,2.7604,2.7612,2.7617,2.7605,2.7038,2.6785,2.6779,2.5494,2.4854,2.4797,2.4297,2.3975,2.3754,2.3754,2.3754,2.3754,2.3754,2.3754,2.3754,2.3754,2.3754,2.3826,2.4287,2.4872,2.5515,2.6566,2.7311,2.7818,2.7827,2.7855,2.7776,2.731,2.6769,2.6496,2.6973,2.6701,2.622,2.5652,2.5511,2.5441,2.5511,2.5664,2.6,2.6637,2.6346,2.6164,2.6799,2.6358,2.598,2.6201,2.584,2.541,2.4895,2.4343,2.3778,2.3261,2.3198,2.3198,2.3198,2.3198,2.3198,2.3078,2.3078,2.3078,2.3078,2.3078,2.3078,2.3078,2.3078,2.3078,2.3078,2.3078,2.3078,2.3078,2.3078,2.3078,2.0085,2.0085,2.0085,2.0085,1.9878,1.9666,1.987,1.9766,1.9797,2.0613,2.0625,2.0573,2.0807,2.1199,2.1476,2.1363,2.1687,2.1955,2.2241,2.2515,2.3008,2.3853,2.4644,2.5315,2.5724,2.6704,2.7095,2.6521,2.6973,2.7297,2.7297,2.7297,2.755,2.8051,2.8247,2.8298,2.8298,2.7898,2.7677,2.7605,2.7046,2.6783,2.6779,2.6486,2.619,2.5946,2.5217,2.4978,2.5075,2.5075,2.4962,2.4708,2.4708,2.4708,2.4708,2.4708,2.4708,2.4775,2.536,2.5926,2.6593,2.7263,2.7908,2.8424,2.8417,2.8457,2.8392,2.8314,2.7855,2.751,2.7894,2.7617,2.7271,2.7391,2.7002,2.6756,2.7324,2.7271,2.7271,2.7776,2.7191,2.6812,2.7082,2.6577,2.6201,2.6396,2.5975,2.541,2.4895,2.4343,2.395,2.3903,2.3884,2.3884,2.3884,2.3884,2.3662,2.3138,2.3078,2.3078,2.3078,2.3078,2.3078,2.3078,2.3078,2.3078,2.3078,2.3078,2.3078,2.3078,2.3078,2.3078,2.0085,2.0085,2.0074,2.0009,1.9878,1.9745,1.979,1.9841,2.0118,2.0684,2.0454,2.026,2.0725,2.1062,2.1429,2.1859,2.2119,2.2464,2.2909,2.2992,2.3265,2.4102,2.4481,2.4976,2.5788,2.6449,2.6932,2.7204,2.7537,2.7868,2.8143,2.8143,2.826,2.8492,2.8826,2.903,2.903,2.8731,2.8429,2.8111,2.754,2.709,2.6779,2.6779,2.6606,2.6283,2.5892,2.5701,2.5702,2.555,2.5383,2.5244,2.5061,2.5005,2.5005,2.5005,2.5005,2.51,2.5683,2.6307,2.6918,2.7515,2.8112,2.8587,2.8587,2.8587,2.8587,2.8587,2.8314,2.817,2.856,2.8417,2.826,2.8853,2.8195,2.7537,2.792,2.792,2.7986,2.8634,2.8168,2.771,2.7789,2.6973,2.6396,2.6465,2.5749,2.5134,2.4858,2.4092,2.3586,2.3628,2.3897,2.4131,2.4131,2.435,2.4394,2.4047,2.3989,2.3989,2.3989,2.3989,2.3695,2.3138,2.3078,2.3258,2.3603,2.3603,2.3708,2.3989,2.3989,2.3989,2.0085,2.0205,2.0259,2.0248,2.0248,2.0183,2.0053,2.042,2.0858,2.1008,2.0571,2.0302,2.0782,2.106,2.1565,2.2531,2.2786,2.3053,2.3569,2.3628,2.3795,2.4208,2.4458,2.4944,2.5872,2.6246,2.6867,2.7769,2.7937,2.8207,2.8601,2.8601,2.8601,2.851,2.9198,2.9591,2.9591,2.9676,2.9464,2.884,2.8086,2.7389,2.6779,2.6779,2.6659,2.6404,2.6404,2.6258,2.5948,2.5743,2.5592,2.555,2.5188,2.5075,2.5075,2.5005,2.5073,2.5236,2.5846,2.6457,2.7067,2.7664,2.8193,2.8587,2.8651,2.8716,2.8716,2.878,2.8638,2.8624,2.9149,2.9149,2.9198,2.9974,2.931,2.8441,2.8441,2.8505,2.8712,2.9359,2.9093,2.862,2.8492,2.7604,2.685,2.685,2.5894,2.5116,2.5,2.4063,2.3424,2.3424,2.3943,2.4292,2.4408,2.4794,2.5007,2.5007,2.5007,2.5007,2.5007,2.5007,2.4496,2.3471,2.3424,2.3708,2.4234,2.4234,2.4509,2.5007,2.5007,2.5007,2.0085,2.0506,2.1123,2.1678,2.1741,2.1628,2.1628,2.169,2.1753,2.1753,2.1565,2.1491,2.1854,2.2274,2.264,2.2955,2.3424,2.376,2.3832,2.3832,2.3844,2.3731,2.4728,2.5442,2.5421,2.6895,2.7642,2.716,2.7726,2.8034,2.7931,2.7931,2.8179,2.8685,2.9276,2.9623,2.9623,3.016,3.0132,2.9493,2.8303,2.7389,2.6779,2.6779,2.6779,2.6712,2.6712,2.6539,2.6244,2.619,2.6042,2.5798,2.5536,2.5439,2.5383,2.5131,2.5331,2.586,2.6484,2.7094,2.7691,2.8275,2.8519,2.8651,2.8972,2.9035,2.9099,2.9352,2.9477,2.954,2.9865,2.9927,3.0036,3.0462,3.0387,3.0251,3.0251,3.0021,2.9974,3.0326,2.987,2.9219,2.862,2.8363,2.8247,2.8247,2.7238,2.6254,2.5709,2.5124,2.4724,2.4724,2.4851,2.5077,2.5605,2.5245,2.5007,2.5007,2.5007,2.5007,2.5007,2.5007,2.4894,2.4724,2.4724,2.4781,2.4908,2.4908,2.4894,2.5007,2.5007,2.5007,2.0571,2.1123,2.1741,2.2051,2.2051,2.199,2.199,2.2298,2.2543,2.2543,2.2798,2.2919,2.2725,2.2834,2.3148,2.3603,2.3865,2.4008,2.4008,2.4287,2.4505,2.4363,2.5195,2.5823,2.6038,2.6832,2.747,2.7867,2.8197,2.8453,2.8623,2.8623,2.8693,2.8793,2.907,2.9159,2.9087,2.9377,2.9189,2.8494,2.7636,2.7055,2.6779,2.6779,2.6779,2.6779,2.6779,2.6727,2.6592,2.6351,2.6244,2.6096,2.5853,2.5688,2.5744,2.5952,2.6187,2.6547,2.7502,2.8014,2.8277,2.8553,2.8574,2.8567,2.8371,2.8335,2.8405,2.8909,2.9191,2.9458,2.995,3.0233,3.0401,3.0568,3.0568,3.0568,3.0568,3.0462,3.0401,3.0568,3.0068,2.9484,2.9156,2.8762,2.8492,2.8492,2.7773,2.7155,2.6921,2.6377,2.5904,2.5537,2.5795,2.6009,2.5921,2.5988,2.5988,2.5988,2.5988,2.5988,2.5988,2.5988,2.5988,2.5988,2.5356,2.5189,2.5481,2.5481,2.5701,2.5988,2.5988,2.5988,2.1439,2.1978,2.2421,2.2543,2.2604,2.2604,2.2604,2.298,2.3339,2.3339,2.3734,2.3923,2.3471,2.3458,2.3708,2.4041,2.4332,2.4492,2.4332,2.4835,2.5216,2.5216,2.5687,2.6198,2.665,2.6859,2.7334,2.8265,2.8364,2.8488,2.8788,2.8788,2.868,2.8477,2.8569,2.8601,2.849,2.865,2.8361,2.7668,2.7244,2.6939,2.6779,2.6779,2.6779,2.6779,2.6779,2.6779,2.6779,2.6539,2.6418,2.6418,2.6096,2.5988,2.6045,2.6399,2.668,2.6947,2.7919,2.8341,2.8422,2.8362,2.8362,2.8278,2.7961,2.782,2.7919,2.8474,2.8838,2.9129,2.9631,2.9925,3.0089,3.0089,3.0219,3.0379,3.0539,3.0568,3.0568,3.0568,3.019,2.987,2.987,2.9407,2.9016,2.9016,2.8567,2.8118,2.7982,2.7607,2.7128,2.6469,2.6621,2.6694,2.6394,2.6494,2.6621,2.6779,2.6779,2.6779,2.6779,2.6779,2.6779,2.6779,2.592,2.5701,2.6111,2.6111,2.634,2.6779,2.6779,2.6779,2.2834,2.3027,2.3207,2.3865,2.3995,2.3995,2.3995,2.3995,2.4054,2.4054,2.4054,2.4112,2.4054,2.4505,2.4721,2.4171,2.5034,2.5522,2.5005,2.5425,2.5742,2.5742,2.6283,2.6683,2.6727,2.7196,2.7584,2.7664,2.7664,2.7629,2.749,2.7505,2.7439,2.7284,2.77,2.7954,2.7954,2.8417,2.8361,2.7668,2.7639,2.736,2.6779,2.6779,2.6779,2.6779,2.6779,2.6779,2.6779,2.6779,2.6779,2.6727,2.6418,2.6297,2.6244,2.603,2.6315,2.6821,2.6891,2.7241,2.7759,2.7759,2.7759,2.7818,2.8111,2.814,2.8269,2.8597,2.8724,2.8739,2.8768,2.8782,2.8782,2.8782,2.9247,2.9842,3.0437,3.0568,3.0568,3.0568,3.0568,3.0568,3.0568,3.0507,3.0507,3.0507,2.9912,2.9317,2.8693,2.8641,2.8369,2.7794,2.7187,2.7045,2.757,2.6574,2.6179,2.6779,2.6779,2.6779,2.6779,2.6779,2.6779,2.6779,2.6727,2.6727,2.6727,2.6727,2.6779,2.6779,2.6779,2.6779,2.3148,2.3412,2.3793,2.4054,2.4112,2.4112,2.4112,2.4112,2.4112,2.4112,2.4112,2.4229,2.462,2.4563,2.4505,2.4677,2.4991,2.5314,2.5481,2.6014,2.6404,2.6404,2.693,2.7255,2.7255,2.7458,2.7625,2.7625,2.7625,2.7575,2.7524,2.7539,2.7488,2.7335,2.7506,2.7483,2.7325,2.7453,2.7345,2.7128,2.7128,2.7012,2.6779,2.6779,2.6779,2.6779,2.6779,2.6779,2.6779,2.6779,2.6779,2.6779,2.6659,2.6592,2.665,2.696,2.7193,2.7437,2.7853,2.8139,2.8268,2.7867,2.7682,2.7666,2.736,2.7285,2.7426,2.79,2.8071,2.8173,2.8579,2.8681,2.8681,2.8681,2.916,2.9682,2.9914,3.0292,3.0568,3.0568,3.0568,3.0568,3.0568,3.0568,3.0568,3.0568,3.0379,3.0174,2.9921,2.9912,2.9667,2.9015,2.8713,2.8526,2.8376,2.7533,2.7173,2.7335,2.7012,2.6779,2.6779,2.6779,2.6968,2.7389,2.6997,2.6779,2.6779,2.6779,2.6779,2.6779,2.6779,2.6779,2.3543,2.3734,2.4112,2.4112,2.4112,2.4112,2.4112,2.4112,2.4171,2.4332,2.439,2.4549,2.516,2.4935,2.4821,2.5203,2.5591,2.592,2.6068,2.6616,2.6982,2.6982,2.7357,2.7625,2.7625,2.7625,2.7625,2.7625,2.7625,2.7625,2.7625,2.7625,2.7524,2.7401,2.7401,2.7248,2.7003,2.6899,2.6846,2.6779,2.6779,2.6779,2.6779,2.6779,2.6779,2.6779,2.6779,2.6779,2.6779,2.6779,2.6779,2.6779,2.6779,2.6779,2.6837,2.7258,2.7418,2.7476,2.7897,2.8042,2.7969,2.7549,2.7418,2.7331,2.7068,2.6884,2.6919,2.7448,2.7511,2.7505,2.794,2.8042,2.8158,2.8579,2.9,2.9421,2.9856,3.0277,3.0568,3.0568,3.0568,3.0568,3.0568,3.0568,3.0568,3.0568,3.0568,3.0568,3.0568,3.0568,3.0408,2.9987,2.9755,2.945,2.9029,2.8419,2.7955,2.7683,2.7331,2.7012,2.6794,2.6779,2.7084,2.7668,2.7113,2.6895,2.7099,2.6895,2.6779,2.6779,2.6779,2.6779,0.0,0.0,0.0,2.4112,2.4112,2.4112,2.4112,2.4112,2.4345,2.4892,2.5005,2.516,2.5742,2.5837,2.5837,2.5837,2.6811,2.7357,2.6841,2.7255,2.7625,2.7625,2.7625,2.7625,2.7625,2.7625,2.7625,2.7625,2.7625,2.7625,2.7625,2.7625,2.7524,2.7401,2.7401,2.7262,2.7003,2.7003,2.6951,2.6779,2.6779,2.6779,2.6779,2.6779,2.6779,2.6779,2.6779,2.6779,2.6779,2.6779,2.6779,2.6779,2.6779,2.6779,2.6832,2.6779,2.6832,2.6832,2.6832,2.6832,2.6832,2.6832,2.6832,2.6884,2.7299,2.713,2.6937,2.7299,2.7144,2.6832,2.6832,2.6779,2.7099,2.8402,2.8666,2.9015,3.0277,3.0568,3.0568,3.0568,3.0568,3.0568,3.0568,3.0568,3.0568,3.0568,3.0568,3.0568,3.0568,3.0568,3.0568,3.0568,3.0016,2.9653,2.9653,2.9073,2.8448,2.7824,2.7697,2.7461,2.6837,2.6794,2.7084,2.7752,2.7128,2.7128,2.7752,2.7099,2.6779,2.6779,2.6779,2.6779,2.4112,0.0,0.0,0.0,0.0,0.0,2.4721,2.5048,2.5356,2.5522,2.5577,2.5742,2.6336,2.6457,2.6602,2.7034,2.7049,2.7049,2.7306,2.7509,2.7625,2.7625,2.7625,2.7625,2.7625,2.7625,2.7625,2.7625,2.7625,2.7625,2.7625,2.7625,2.7575,2.7524,2.7437,2.735,2.7299,2.7181,2.7093,2.6951,2.6951,2.6899,2.6779,2.6779,2.6779,2.6779,2.6779,2.6779,2.6779,2.6779,2.6779,2.6779,2.6779,2.6989,2.7196,2.6884,2.7167,2.758,2.7335,2.7408,2.758,2.758,2.758,2.763,2.773,2.768,2.7595,2.7437,2.7299,2.7248,2.7248,2.7041,2.7088,2.8145,2.8539,2.8898,2.9711,3.0248,3.0568,3.0568,3.0568,3.0568,3.0568,3.0568,3.0568,3.0568,3.0568,3.0568,3.0568,3.0568,3.0568,3.0568,3.0422,3.0306,3.0306,2.9726,2.929,2.9116,2.819,2.765,2.7476,2.7026,2.7302,2.839,2.7795,2.7781,2.8419,2.7316,2.6779,2.6779,2.6779,2.6779,2.4112,2.4112,2.4171,2.439,0.0,0.0,2.5258,2.5577,2.5837,2.6122,2.6176,2.6336,2.693,2.71,2.7203,2.756,2.7306,2.7203,2.756,2.7625,2.7625,2.7625,2.7625,2.7625,2.7625,2.7625,2.7625,2.7625,2.7625,2.7625,2.7625,2.7625,2.7625,2.7625,2.7524,2.7452,2.7401,2.7335,2.7248,2.7093,2.7093,2.6989,2.6899,2.6899,2.6846,2.6779,2.6779,2.6779,2.6779,2.6779,2.6779,2.6832,2.6989,2.7196,2.7401,2.7321,2.753,2.7849,2.7695,2.773,2.7898,2.7898,2.7898,2.7947,2.811,2.7929,2.7695,2.781,2.764,2.7437,2.756,2.7218,2.7103,2.8423,2.8723,2.8927,2.9827,3.0306,3.0568,3.0568,3.0568,3.0568,3.0568,3.0568,3.0568,3.0568,3.0568,3.0568,3.0568,3.0568,3.0568,3.0568,3.0568,3.0568,3.0568,3.0234,2.9914,2.9639,2.8871,2.8233,2.7697,2.7374,2.765,2.8652,2.7795,2.752,2.7897,2.7403,2.7041,2.6779,2.6779,2.6779,2.4112,2.4171,2.4345,2.4892,2.5118,0.0,2.5797,2.5946,2.6176,2.6669,2.6788,2.6982,2.756,2.766,2.771,2.776,2.771,2.766,2.7625,2.7625,2.7625,2.7625,2.7625,2.7625,2.7625,2.7625,2.7625,2.7625,2.7625,2.7625,2.7625,2.7625,2.7625,2.7625,2.7625,2.7524,2.7437,2.7401,2.7335,2.7233,2.7233,2.7144,2.7003,2.7107,2.7041,2.6884,2.6884,2.6884,2.6884,2.6884,2.6832,2.6832,2.7248,2.7437,2.7473,2.778,2.7947,2.8012,2.7997,2.8012,2.8046,2.8046,2.8046,2.811,2.8463,2.8107,2.774,2.8334,2.8008,2.7524,2.7864,2.7444,2.7363,2.8981,2.9057,2.9086,3.0351,3.0568,3.0568,3.0568,3.0568,3.0568,3.0568,3.0568,3.0568,3.0568,3.0568,3.0568,3.0568,3.0568,3.0568,3.0568,3.0568,3.0568,3.0568,3.0568,3.0335,2.9769,2.9668,2.9116,2.7984,2.7755,2.8028,2.8666,2.7505,2.6895,2.6895,2.7389,2.7331,2.6779,2.6779,2.6779,2.4112,2.4447,2.4835,2.4948,2.5701,0.0,2.651,2.6878,2.7306,2.7408,2.7408,2.761,2.8061,2.8158,2.8304,2.8748,2.8448,2.8027,2.766,2.7625,2.7625,2.7625,2.7625,2.7625,2.7625,2.7625,2.7625,2.7625,2.7625,2.7625,2.7625,2.7625,2.7625,2.7625,2.7625,2.7575,2.7575,2.7575,2.7473,2.735,2.735,2.7299,2.7181,2.7545,2.7645,2.7423,2.7515,2.7444,2.7299,2.7299,2.7093,2.6832,2.7248,2.756,2.7815,2.7864,2.8304,2.8826,2.8527,2.8559,2.8873,2.8873,2.8873,2.8873,2.8967,2.8873,2.8732,2.8574,2.8158,2.7864,2.8271,2.8012,2.8011,2.9448,2.951,2.941,3.0411,3.0568,3.0568,3.0568,3.0568,3.0568,3.0568,3.0568,3.0568,3.0568,3.0568,3.0568,3.0568,3.0568,3.0568,3.0568,3.0568,3.0568,3.0568,3.0568,3.0524,3.0393,2.9914,2.9508,2.9261,2.8219,2.8028,2.8666,2.794,2.7534,2.7534,2.7157,2.691,2.6779,2.6779,2.6779,2.4447,2.4778,2.5118,2.5701,2.6297,0.0,0.0,2.7357,2.7675,2.7894,2.7929,2.8125,2.8591,2.8685,2.8779,2.9074,2.8638,2.8304,2.8319,2.791,2.7625,2.7625,2.7625,2.7625,2.7625,2.7795,2.7929,2.7929,2.7929,2.7929,2.7929,2.7929,2.7929,2.7929,2.7929,2.7929,2.7929,2.7929,2.8027,2.8238,2.7993,2.7894,2.8042,2.8027,2.8076,2.8125,2.8192,2.8061,2.7845,2.7978,2.783,2.7595,2.7845,2.7929,2.7947,2.8367,2.8764,2.9075,2.8873,2.892,2.9075,2.9075,2.9075,2.9075,2.9075,2.9075,2.9029,2.8622,2.8367,2.8304,2.8669,2.8367,2.8263,2.9607,2.975,2.9879,3.0763,3.0925,3.0925,3.0925,3.0747,3.0568,3.0568,3.0568,3.0568,3.0568,3.0568,3.0568,3.0568,3.0568,3.0568,3.0568,3.0568,3.0568,3.0568,3.0568,3.0568,3.0568,3.0277,2.9958,2.9639,2.9015,2.8536,2.8216,2.8202,2.7897,2.7258,2.6939,2.6779,2.6779,2.6779,2.6779,2.4637,2.5005,2.5384,2.6297,2.6721,2.6997,0.0,0.0,0.0,2.8207,2.84,2.8638,2.912,2.9212,2.9257,2.9348,2.8919,2.8732,2.9166,2.8463,2.7894,2.7894,2.7894,2.786,2.7745,2.8076,2.8288,2.8288,2.84,2.8448,2.8448,2.8448,2.8448,2.8448,2.8448,2.8448,2.8448,2.8448,2.8685,2.9074,2.8638,2.8638,2.8904,2.8591,2.8591,2.8826,2.8873,2.8717,2.848,2.8639,2.8607,2.84,2.8511,2.8367,2.8158,2.8873,2.9075,2.9075,2.9075,2.9075,2.9075,2.9075,2.9075,2.9075,2.9075,2.9075,2.9029,2.8716,2.8622,2.8669,2.9029,2.8622,2.8431,2.9544,2.9894,3.0236,3.1046,3.1246,3.1278,3.1278,3.0925,3.0568,3.0568,3.0568,3.0568,3.0568,3.0568,3.0568,3.0568,3.0568,3.0568,3.0568,3.0568,3.0568,3.0568,3.0568,3.0568,3.0568,3.0568,3.035,2.9827,2.9682,2.9087,2.7926,2.8303,2.7984,2.6968,2.6852,2.6779,2.6779,2.6779,2.6779,2.4026,2.4935,2.5742,2.5837,2.6707,2.7524,2.7575,0.0,2.8255,2.8304,0.0,2.9166,2.9617,0.0,0.0,3.0284,2.9924,2.9661,2.9705,2.9257,2.8935,2.8935,2.8935,2.8748,2.8255,2.824,2.8288,2.8288,2.8732,2.9028,2.9028,2.9028,2.9028,2.9028,2.9028,2.9028,2.9028,2.9028,2.9028,2.9074,2.9028,2.9028,2.909,2.9438,2.9512,2.9316,2.9451,2.9361,2.9088,2.9134,2.895,2.8685,2.8795,2.8811,2.8811,2.9013,2.9075,2.9075,2.9075,2.9075,2.9075,2.9075,2.9075,2.9075,2.9075,2.9075,2.9075,2.9029,2.9029,2.9029,2.9075,2.9029,2.9077,2.9453,2.9986,3.0551,3.0888,3.1147,3.1278,3.1278,3.0925,3.0568,3.0568,3.0568,3.0568,3.0568,3.0568,3.0568,3.0568,3.0568,3.0568,3.0568,3.0568,3.0568,3.0568,3.0568,3.0568,3.0568,3.0568,3.0539,3.0466,2.9929,2.929,2.8579,2.8086,2.7766,2.7621,2.7055,2.6779,2.6779,2.6779,2.6779,2.3716,2.4362,2.4888,2.5553,2.6066,2.6519,2.6728,2.6948,2.7257,2.7782,0.0,0.0,0.0,0.0,0.0,0.0,2.9492,2.941,3.0107,2.9793,2.9393,2.912,2.9074,2.9028,2.8779,2.8779,2.8779,2.8779,2.9212,2.9483,2.9483,2.9483,2.9483,2.9483,2.9483,2.9483,2.9483,2.9483,2.9661,2.9897,2.9617,2.9661,2.9897,2.9837,2.9881,3.0054,3.0097,2.9968,2.981,2.9897,2.9793,2.9589,2.9633,2.9409,2.912,2.9289,2.9335,2.9305,2.9167,2.9075,2.9075,2.9075,2.9075,2.9075,2.9075,2.9213,2.9335,2.9335,2.9335,2.9335,2.9335,2.9213,2.9155,2.941,3.0242,3.0978,3.1243,3.1686,3.1992,3.1724,3.1364,3.1029,3.0628,3.0568,3.0568,3.0568,3.0568,3.0568,3.0568,3.0568,3.0568,3.0568,3.0568,3.0568,3.0568,3.0568,3.0568,3.0568,3.0568,3.0568,3.0568,3.0321,2.9871,2.9232,2.8971,2.8652,2.8274,2.765,2.7331,2.7316,2.6953,2.6779,2.3622,2.4148,2.4447,2.5206,2.5585,2.5848,2.6137,2.639,2.6785,2.746,2.7761,0.0,0.0,0.0,2.8753,2.9137,0.0,2.9403,3.0211,3.0194,2.9968,2.9528,2.9348,2.9303,2.9303,2.9303,2.9303,2.9303,2.9705,2.9984,2.9984,2.9984,2.9984,2.9984,2.9984,2.9984,2.9984,2.9984,3.0156,3.0485,3.0156,3.0156,3.0485,3.0156,3.0156,3.0526,3.0526,3.0443,3.0274,3.0443,3.0384,3.0274,3.0274,2.9984,2.9556,2.9589,2.9589,2.9544,2.9335,2.9289,2.9289,2.9289,2.9289,2.9289,2.9289,2.9425,2.9589,2.9589,2.9589,2.9589,2.9589,2.9425,2.934,2.9468,3.0256,3.1112,3.1502,3.2017,3.2423,3.2321,3.2074,3.1679,3.1218,3.0911,3.0642,3.0628,3.0568,3.0568,3.0568,3.0568,3.0568,3.0568,3.0568,3.0568,3.0568,3.0568,3.0568,3.0568,3.0568,3.0568,3.0568,3.0568,3.0364,2.99,2.9711,2.9392,2.8942,2.8303,2.7897,2.7668,2.7084,2.6779,2.39,2.4531,2.4888,2.4888,2.554,2.6167,2.6212,2.6914,2.7558,2.7599,2.8157,2.8611,2.845,2.8777,2.8999,2.8777,2.9587,0.0,0.0,3.0465,3.0855,3.0526,3.007,2.9793,2.9793,2.9793,2.9793,2.9793,3.0199,3.0468,3.0468,3.0468,3.0468,3.0468,3.0468,3.0468,3.0468,3.0468,3.0485,3.0526,3.0468,3.0485,3.0526,3.0468,3.0485,3.0526,3.0526,3.0485,3.0485,3.0526,3.0485,3.0485,3.0485,3.0468,3.0384,2.9941,2.981,2.981,2.9793,2.9766,2.9766,2.9766,2.9766,2.9766,2.9766,2.9793,2.981,2.981,2.981,2.981,2.981,2.9793,2.9722,2.9547,3.0,3.0703,3.1422,3.181,3.2269,3.316,3.2955,3.2671,3.2633,3.1622,3.0762,3.0642,3.0568,3.0568,3.0568,3.0568,3.0568,3.0568,3.0568,3.0568,3.0568,3.0568,3.0568,3.0568,3.0568,3.0568,3.0568,3.0568,3.0568,3.0539,2.9929,2.961,2.9595,2.8956,2.8332,2.7668,2.7084,2.6779,2.3134,2.3835,2.4267,2.4618,2.5113,2.5607,2.5863,2.6292,2.6685,2.6959,2.7314,2.7555,2.7504,2.759,2.7845,2.8252,2.8629,2.914,0.0,3.0605,3.0975,3.0855,3.041,3.0054,2.9793,2.9793,2.9793,2.9793,3.0241,3.0526,3.0526,3.0526,3.0526,3.0526,3.0526,3.0526,3.0526,3.0526,3.0526,3.0526,3.0526,3.0526,3.0526,3.0526,3.0526,3.0526,3.0526,3.0526,3.0526,3.0526,3.0526,3.0526,3.0526,3.0526,3.0468,3.0172,3.0044,3.0044,2.9853,2.9793,2.9793,2.9793,2.9793,2.9793,2.9793,2.9897,3.0044,3.0044,3.0044,3.0044,3.0044,2.9941,2.9793,2.9722,3.0242,3.0838,3.108,3.1951,3.267,3.2676,3.3069,3.3214,3.2795,3.2431,3.2059,3.1407,3.1392,3.1291,3.0821,3.0821,3.0955,3.0955,3.0821,3.0702,3.0702,3.0642,3.0568,3.0568,3.0568,3.0568,3.0568,3.0568,3.0568,3.0568,3.0364,3.0248,3.0248,2.961,2.9189,2.8971,2.8332,2.7592,2.3434,2.4002,2.4277,2.4768,2.516,2.5524,2.5892,2.6177,2.6505,2.6856,2.7132,2.7244,2.7103,2.723,2.7448,2.7805,2.8163,2.8766,0.0,3.0319,3.04,3.0207,3.0301,3.0284,3.007,3.007,3.007,3.007,3.0342,3.0526,3.0526,3.0526,3.0526,3.0526,3.0526,3.0526,3.0526,3.0526,3.0526,3.0526,3.0245,3.0129,3.0129,3.0129,3.0129,3.0145,3.041,3.0526,3.0526,3.0526,3.0526,3.0526,3.0526,3.0526,3.0468,3.0359,3.0316,3.0274,3.0113,3.007,3.007,3.007,3.007,3.007,3.007,3.0172,3.0316,3.0316,3.0316,3.0316,3.0316,3.0172,3.0027,2.9941,3.0331,3.0693,3.1014,3.1974,3.282,3.2837,3.3533,3.3968,3.3547,3.3614,3.3303,3.221,3.2155,3.1987,3.1507,3.1422,3.1437,3.1652,3.1364,3.119,3.119,3.0866,3.0702,3.0762,3.0821,3.0911,3.1073,3.0911,3.0969,3.1308,3.0864,3.0684,3.0916,3.0277,2.9842,2.961,2.9203,2.8463]},{"header":{"parameterUnit":"m.s-1","parameterCategory":1,"la1":30.6,"la2":29.2853,"lo1":-89.7004,"lo2":-87.6739,"dy":0.0162,"dx":0.0183,"nx":112,"ny":82,"refTime":"2023-05-31T12:00:00:Z","depth":0,"parameterNumber":3,"parameterNumberName":"V-component_of_WINDS"},"data":[0.0,0.0,0.0,0.0,0.0,0.0,0.0,0.0,0.0,0.0,0.0,0.0,0.0,0.0,0.0,0.0,0.0,0.0,0.0,0.0,0.0,0.0,0.0,0.0,0.0,0.0,0.0,0.0,0.0,0.0,0.0,0.0,0.0,0.0,0.0,0.0,0.0,0.0,0.0,0.0,0.0,0.0,0.0,0.0,0.0,0.0,0.0,0.0,0.0,0.0,0.0,0.0,0.0,0.0,0.0,0.0,0.0,0.0,0.0,0.0,0.0,0.0,0.0,0.0,0.0,0.0,0.0,0.0,0.0,0.0,0.0,0.0,0.0,0.0,0.0,0.0,0.0,0.0,0.0,0.0,0.0,0.0,0.0,0.0,0.0,0.0,0.0,0.0,0.0,0.0,3.4313,3.4822,3.4607,3.4404,3.4314,3.4378,3.4438,3.4492,0.0,0.0,0.0,0.0,0.0,0.0,0.0,0.0,0.0,0.0,0.0,0.0,0.0,0.0,0.0,0.0,0.0,0.0,0.0,0.0,0.0,0.0,0.0,0.0,0.0,0.0,0.0,0.0,0.0,0.0,0.0,0.0,0.0,0.0,0.0,0.0,0.0,0.0,0.0,0.0,0.0,0.0,0.0,0.0,0.0,0.0,0.0,0.0,0.0,0.0,0.0,0.0,0.0,0.0,0.0,0.0,0.0,0.0,0.0,0.0,0.0,0.0,0.0,0.0,0.0,0.0,0.0,0.0,0.0,0.0,0.0,0.0,0.0,0.0,0.0,0.0,0.0,0.0,0.0,0.0,0.0,0.0,0.0,0.0,0.0,0.0,0.0,0.0,0.0,0.0,0.0,0.0,0.0,0.0,0.0,0.0,0.0,0.0,0.0,0.0,0.0,0.0,0.0,0.0,3.4422,3.397,3.3757,3.3573,3.3401,3.3766,3.3997,3.4013,0.0,0.0,0.0,0.0,0.0,0.0,0.0,0.0,0.0,0.0,0.0,0.0,0.0,0.0,0.0,0.0,0.0,0.0,0.0,0.0,0.0,0.0,0.0,0.0,0.0,0.0,0.0,0.0,0.0,0.0,0.0,0.0,0.0,0.0,0.0,0.0,0.0,0.0,0.0,0.0,0.0,0.0,0.0,0.0,0.0,0.0,0.0,0.0,0.0,0.0,0.0,0.0,0.0,0.0,0.0,0.0,0.0,0.0,0.0,0.0,0.0,0.0,0.0,0.0,0.0,0.0,0.0,0.0,0.0,0.0,0.0,0.0,0.0,0.0,0.0,0.0,0.0,0.0,0.0,0.0,0.0,0.0,0.0,0.0,0.0,0.0,0.0,0.0,0.0,0.0,0.0,0.0,0.0,0.0,0.0,0.0,0.0,0.0,0.0,0.0,0.0,0.0,0.0,3.4209,3.3702,3.266,3.259,3.2541,3.2346,3.2639,3.2871,3.3072,3.3154,0.0,0.0,0.0,0.0,0.0,0.0,0.0,0.0,0.0,0.0,0.0,0.0,0.0,0.0,0.0,0.0,0.0,0.0,0.0,0.0,0.0,0.0,0.0,0.0,0.0,0.0,0.0,0.0,0.0,0.0,0.0,0.0,0.0,0.0,0.0,0.0,0.0,0.0,0.0,0.0,0.0,0.0,0.0,0.0,0.0,0.0,0.0,0.0,0.0,0.0,0.0,0.0,0.0,0.0,0.0,0.0,0.0,0.0,0.0,0.0,0.0,0.0,0.0,0.0,0.0,0.0,0.0,0.0,0.0,0.0,0.0,0.0,0.0,0.0,0.0,0.0,0.0,0.0,0.0,0.0,0.0,0.0,0.0,0.0,0.0,0.0,0.0,0.0,0.0,0.0,0.0,0.0,0.0,0.0,0.0,0.0,0.0,0.0,0.0,0.0,0.0,0.0,3.3385,3.2691,3.1649,3.1554,3.1479,3.1312,3.1408,3.1636,3.1971,3.2138,0.0,0.0,0.0,0.0,0.0,0.0,0.0,0.0,0.0,0.0,0.0,0.0,0.0,0.0,0.0,0.0,0.0,0.0,0.0,0.0,0.0,0.0,0.0,0.0,0.0,0.0,0.0,0.0,0.0,0.0,0.0,0.0,0.0,0.0,0.0,0.0,0.0,0.0,0.0,0.0,0.0,0.0,0.0,0.0,0.0,0.0,0.0,0.0,0.0,0.0,0.0,0.0,0.0,0.0,0.0,0.0,0.0,0.0,0.0,0.0,0.0,0.0,0.0,0.0,0.0,0.0,0.0,0.0,0.0,0.0,0.0,0.0,0.0,0.0,0.0,0.0,0.0,0.0,0.0,0.0,0.0,0.0,0.0,0.0,0.0,0.0,0.0,0.0,0.0,0.0,0.0,0.0,0.0,0.0,0.0,0.0,0.0,0.0,0.0,0.0,0.0,0.0,3.229,3.1539,3.1418,3.0794,3.0418,3.0402,3.0352,3.0451,3.0796,3.0112,0.0,0.0,0.0,0.0,0.0,0.0,0.0,0.0,0.0,0.0,0.0,0.0,0.0,0.0,0.0,0.0,0.0,0.0,0.0,0.0,0.0,0.0,0.0,0.0,0.0,0.0,0.0,0.0,0.0,0.0,0.0,0.0,0.0,0.0,0.0,0.0,0.0,0.0,0.0,0.0,0.0,0.0,0.0,0.0,0.0,0.0,0.0,0.0,0.0,0.0,0.0,0.0,0.0,0.0,0.0,0.0,0.0,0.0,0.0,0.0,0.0,0.0,0.0,0.0,0.0,0.0,0.0,0.0,0.0,0.0,0.0,0.0,0.0,0.0,0.0,0.0,0.0,0.0,0.0,0.0,0.0,0.0,0.0,0.0,0.0,0.0,0.0,0.0,0.0,0.0,0.0,0.0,0.0,0.0,0.0,0.0,0.0,0.0,0.0,0.0,0.0,0.0,3.2004,3.1176,3.0723,3.0267,2.9924,2.981,2.9908,2.9876,2.9729,0.0,0.0,0.0,0.0,0.0,0.0,0.0,0.0,0.0,0.0,0.0,0.0,0.0,0.0,0.0,0.0,0.0,0.0,0.0,0.0,0.0,0.0,0.0,0.0,0.0,0.0,0.0,0.0,0.0,0.0,0.0,0.0,0.0,0.0,0.0,0.0,0.0,0.0,0.0,0.0,0.0,0.0,0.0,0.0,0.0,0.0,0.0,0.0,0.0,0.0,0.0,0.0,0.0,0.0,0.0,0.0,0.0,0.0,0.0,0.0,0.0,0.0,0.0,0.0,0.0,0.0,0.0,0.0,0.0,0.0,0.0,0.0,0.0,0.0,0.0,0.0,0.0,0.0,0.0,0.0,0.0,0.0,0.0,0.0,0.0,0.0,0.0,0.0,0.0,0.0,0.0,0.0,0.0,0.0,0.0,0.0,0.0,0.0,0.0,0.0,0.0,0.0,3.2511,3.1742,3.0977,3.0368,2.9984,2.9677,2.938,2.9364,2.9257,2.8997,0.0,0.0,0.0,0.0,0.0,0.0,0.0,0.0,0.0,0.0,0.0,0.0,0.0,0.0,0.0,0.0,0.0,0.0,0.0,0.0,0.0,0.0,0.0,0.0,0.0,0.0,0.0,0.0,0.0,0.0,0.0,0.0,0.0,0.0,0.0,0.0,0.0,0.0,0.0,0.0,0.0,0.0,0.0,0.0,0.0,0.0,0.0,0.0,0.0,0.0,0.0,0.0,0.0,0.0,0.0,0.0,0.0,0.0,0.0,0.0,0.0,0.0,0.0,0.0,0.0,0.0,0.0,0.0,0.0,0.0,0.0,0.0,0.0,0.0,0.0,0.0,0.0,0.0,0.0,0.0,0.0,0.0,0.0,0.0,0.0,0.0,0.0,0.0,0.0,0.0,0.0,0.0,0.0,0.0,0.0,0.0,0.0,0.0,0.0,0.0,0.0,0.0,3.1742,3.1286,3.0948,3.0559,3.0081,2.9617,2.9167,2.8716,2.8574,0.0,0.0,0.0,0.0,0.0,0.0,0.0,0.0,0.0,0.0,0.0,0.0,0.0,0.0,0.0,0.0,0.0,0.0,0.0,0.0,0.0,0.0,0.0,0.0,0.0,0.0,0.0,0.0,0.0,0.0,0.0,0.0,0.0,0.0,0.0,0.0,0.0,0.0,0.0,0.0,0.0,0.0,0.0,0.0,0.0,0.0,0.0,0.0,0.0,0.0,0.0,0.0,0.0,0.0,0.0,0.0,0.0,0.0,0.0,0.0,0.0,0.0,0.0,0.0,0.0,0.0,0.0,0.0,0.0,0.0,0.0,0.0,0.0,0.0,0.0,0.0,0.0,0.0,0.0,0.0,0.0,0.0,0.0,0.0,0.0,0.0,0.0,0.0,0.0,0.0,0.0,0.0,0.0,0.0,0.0,0.0,0.0,0.0,0.0,0.0,0.0,0.0,0.0,3.1711,3.0623,3.0162,3.0858,2.9512,2.8998,3.0005,2.9364,2.8997,2.9196,0.0,0.0,0.0,0.0,0.0,0.0,0.0,0.0,0.0,0.0,0.0,0.0,0.0,0.0,0.0,0.0,0.0,0.0,0.0,0.0,0.0,0.0,0.0,0.0,0.0,0.0,0.0,0.0,0.0,0.0,0.0,0.0,0.0,0.0,0.0,0.0,0.0,0.0,0.0,0.0,0.0,0.0,0.0,0.0,0.0,0.0,0.0,0.0,0.0,0.0,0.0,0.0,0.0,0.0,0.0,0.0,0.0,0.0,0.0,0.0,0.0,0.0,0.0,0.0,0.0,0.0,0.0,0.0,0.0,0.0,0.0,0.0,0.0,0.0,0.0,0.0,0.0,0.0,0.0,0.0,0.0,0.0,0.0,0.0,0.0,0.0,0.0,0.0,0.0,0.0,0.0,0.0,0.0,0.0,0.0,0.0,0.0,0.0,0.0,0.0,0.0,0.0,3.0637,3.0144,2.9998,3.0205,2.9138,2.8779,2.969,2.9258,2.8987,2.9088,0.0,0.0,0.0,0.0,0.0,0.0,0.0,0.0,0.0,0.0,0.0,0.0,0.0,0.0,0.0,0.0,0.0,0.0,0.0,0.0,0.0,0.0,0.0,0.0,0.0,0.0,0.0,0.0,0.0,0.0,0.0,0.0,0.0,0.0,0.0,0.0,0.0,0.0,0.0,0.0,0.0,0.0,0.0,0.0,0.0,0.0,0.0,0.0,0.0,0.0,0.0,0.0,0.0,0.0,0.0,0.0,0.0,0.0,0.0,0.0,0.0,0.0,0.0,0.0,0.0,0.0,0.0,0.0,0.0,0.0,0.0,0.0,0.0,0.0,0.0,0.0,0.0,0.0,0.0,0.0,0.0,0.0,0.0,0.0,0.0,0.0,0.0,0.0,0.0,0.0,0.0,0.0,0.0,0.0,0.0,0.0,0.0,0.0,0.0,0.0,0.0,0.0,2.9018,2.9728,3.0036,2.9045,2.88,2.8715,2.8762,2.8682,2.8686,2.8779,0.0,0.0,0.0,0.0,0.0,0.0,0.0,0.0,0.0,0.0,0.0,0.0,0.0,0.0,0.0,0.0,0.0,0.0,0.0,0.0,0.0,0.0,0.0,0.0,0.0,0.0,0.0,0.0,0.0,0.0,0.0,0.0,0.0,0.0,0.0,0.0,0.0,0.0,0.0,0.0,0.0,0.0,0.0,0.0,0.0,0.0,0.0,0.0,0.0,0.0,0.0,0.0,0.0,0.0,0.0,0.0,0.0,0.0,0.0,0.0,3.7376,3.7865,0.0,0.0,0.0,0.0,0.0,0.0,0.0,0.0,0.0,0.0,0.0,0.0,0.0,0.0,0.0,0.0,0.0,0.0,0.0,0.0,0.0,0.0,0.0,0.0,0.0,0.0,0.0,0.0,0.0,0.0,0.0,0.0,0.0,0.0,0.0,0.0,0.0,0.0,0.0,0.0,2.8947,2.8576,2.8646,2.9317,2.8018,2.7706,2.9185,2.8649,2.8506,2.9114,2.8894,0.0,0.0,0.0,0.0,0.0,0.0,0.0,0.0,0.0,0.0,0.0,0.0,0.0,0.0,0.0,0.0,0.0,0.0,0.0,0.0,0.0,0.0,0.0,0.0,0.0,0.0,0.0,0.0,0.0,0.0,0.0,0.0,0.0,0.0,0.0,0.0,0.0,0.0,0.0,0.0,0.0,0.0,0.0,0.0,0.0,0.0,0.0,0.0,0.0,0.0,0.0,0.0,0.0,0.0,0.0,0.0,0.0,0.0,0.0,3.6,3.6855,0.0,0.0,0.0,0.0,0.0,0.0,0.0,0.0,0.0,0.0,0.0,0.0,0.0,0.0,0.0,0.0,0.0,0.0,0.0,0.0,0.0,0.0,0.0,0.0,0.0,0.0,0.0,0.0,0.0,0.0,0.0,0.0,0.0,0.0,0.0,0.0,0.0,0.0,0.0,0.0,2.8206,2.8094,2.8168,2.8404,2.7555,2.7395,2.8526,2.8345,2.841,2.9001,2.8815,0.0,0.0,0.0,0.0,0.0,0.0,0.0,0.0,0.0,0.0,0.0,0.0,0.0,0.0,0.0,0.0,0.0,0.0,0.0,0.0,0.0,0.0,0.0,0.0,0.0,0.0,0.0,0.0,0.0,0.0,0.0,0.0,0.0,0.0,0.0,0.0,0.0,0.0,0.0,0.0,0.0,0.0,0.0,0.0,0.0,0.0,0.0,0.0,0.0,0.0,0.0,0.0,0.0,3.2368,3.2317,3.2317,3.2317,3.2317,3.2422,3.4752,3.5752,3.5762,3.5959,0.0,0.0,0.0,0.0,0.0,0.0,0.0,0.0,0.0,0.0,0.0,0.0,0.0,0.0,0.0,0.0,0.0,0.0,0.0,0.0,0.0,0.0,3.4005,3.352,3.3522,3.3661,3.3778,0.0,0.0,0.0,0.0,0.0,0.0,0.0,0.0,0.0,0.0,0.0,2.7368,2.7833,2.7971,2.7368,2.725,2.7312,2.7588,2.779,2.8109,2.8556,2.8415,2.834,0.0,0.0,0.0,0.0,0.0,0.0,0.0,0.0,0.0,0.0,0.0,0.0,0.0,0.0,0.0,0.0,0.0,0.0,0.0,0.0,0.0,0.0,0.0,0.0,0.0,0.0,0.0,0.0,0.0,0.0,0.0,0.0,3.4556,3.4404,0.0,0.0,0.0,0.0,0.0,0.0,0.0,0.0,0.0,0.0,0.0,0.0,0.0,3.2401,3.2401,3.2368,3.2334,3.2334,3.2317,3.2317,3.2317,3.2317,3.2317,3.2317,3.268,0.0,3.2869,3.2882,0.0,0.0,0.0,0.0,0.0,0.0,0.0,0.0,0.0,0.0,0.0,0.0,0.0,0.0,0.0,0.0,0.0,0.0,0.0,0.0,0.0,0.0,3.3787,3.3462,3.316,3.2952,3.2934,3.322,3.3481,3.3605,3.3357,3.3178,0.0,0.0,0.0,0.0,0.0,0.0,2.733,2.7385,2.7402,2.7299,2.699,2.6926,2.7324,2.7022,2.7215,2.8178,2.785,2.7813,2.8204,2.8042,0.0,0.0,0.0,0.0,0.0,0.0,0.0,0.0,0.0,0.0,0.0,0.0,0.0,0.0,0.0,0.0,0.0,0.0,0.0,0.0,0.0,0.0,0.0,0.0,0.0,0.0,0.0,0.0,0.0,3.4027,3.4049,3.3326,3.365,3.3448,0.0,0.0,0.0,0.0,0.0,0.0,0.0,0.0,0.0,3.1677,3.1674,3.1674,3.1674,3.1674,3.1674,3.1674,3.1674,3.1674,3.1674,3.1674,3.1528,3.1304,3.1582,3.1528,3.1342,3.2021,3.2317,3.2317,0.0,0.0,0.0,0.0,3.2429,3.2358,3.2719,3.28,3.2827,3.3003,0.0,0.0,0.0,0.0,0.0,0.0,0.0,3.2818,3.2583,3.2727,3.2947,3.2813,3.2651,3.2502,3.2502,3.2651,3.2798,3.2908,3.2798,3.2559,3.2291,3.0977,0.0,0.0,0.0,2.7355,2.7313,2.7299,2.7299,2.7299,2.7137,2.7105,2.7299,2.7069,2.7339,2.8317,2.8025,2.8061,2.8559,2.8253,2.7993,0.0,0.0,0.0,0.0,0.0,0.0,0.0,0.0,0.0,0.0,0.0,0.0,0.0,0.0,0.0,0.0,0.0,0.0,0.0,0.0,0.0,0.0,0.0,0.0,0.0,0.0,0.0,0.0,3.3358,3.3431,3.224,3.2944,3.3053,0.0,0.0,0.0,0.0,0.0,0.0,3.0505,3.045,3.0643,3.1173,3.119,3.119,3.119,3.119,3.119,3.119,3.1095,3.1095,3.119,3.0935,3.0716,3.0518,3.0878,3.0821,3.0601,3.1585,3.1967,3.1861,3.1967,3.1662,3.1198,3.1735,3.1591,3.1219,3.1664,3.1844,3.1897,3.2004,3.2092,3.2179,3.2283,0.0,0.0,0.0,0.0,3.2144,3.2144,3.2196,3.2317,3.2317,3.2214,3.2144,3.2144,3.1917,3.1882,3.2316,3.2125,3.1792,3.1364,3.0155,0.0,2.8697,2.7777,2.7184,2.7282,2.7299,2.7299,2.7299,2.7299,2.7299,2.7299,2.7077,2.7367,2.8436,2.8133,2.8205,2.8873,2.8542,2.8204,2.778,0.0,0.0,0.0,0.0,0.0,0.0,0.0,0.0,0.0,0.0,0.0,0.0,0.0,0.0,0.0,0.0,0.0,0.0,0.0,0.0,0.0,0.0,0.0,0.0,0.0,0.0,0.0,0.0,0.0,3.1146,3.2354,0.0,0.0,0.0,0.0,3.0529,2.9872,2.9782,3.047,3.0245,3.0429,3.1173,3.119,3.119,3.119,3.119,3.119,3.119,3.074,3.0781,3.1151,3.0284,3.0097,3.0518,3.0518,3.0518,3.0559,3.1038,3.0998,3.0625,3.1078,3.0699,2.9968,3.0485,3.0385,3.0031,3.0159,3.0427,3.0771,3.1116,3.1476,3.1787,3.2162,3.1804,0.0,0.0,3.1714,3.1714,3.1714,3.1986,3.2317,3.2317,3.2003,3.1714,3.1714,3.0939,3.0629,3.2108,3.1585,3.0838,3.0768,0.0,2.8304,2.8152,2.765,2.7282,2.7299,2.7299,2.7299,2.7299,2.7299,2.7299,2.7299,2.6589,2.6839,2.8419,2.781,2.7901,2.8857,2.8858,2.8383,2.7437,2.7401,0.0,0.0,0.0,0.0,0.0,0.0,0.0,0.0,0.0,0.0,0.0,0.0,0.0,0.0,0.0,0.0,0.0,0.0,0.0,0.0,0.0,0.0,0.0,0.0,0.0,0.0,0.0,0.0,3.148,3.2196,0.0,3.1219,3.1214,3.1176,3.0917,3.089,3.0896,3.0942,3.0555,3.049,3.074,3.0452,3.0284,3.0284,3.0284,3.0284,3.0284,3.014,3.014,3.0284,2.9968,2.975,2.9601,2.9924,3.0054,3.0097,3.0576,3.0642,3.0518,3.0699,3.0182,2.9438,2.9962,2.9832,2.9451,2.9816,3.0234,3.0584,3.1044,3.1295,3.1389,3.1542,3.1389,3.123,3.1351,3.1389,3.1389,3.1389,3.1504,3.16,3.16,3.1145,3.0653,3.0653,3.0,2.9559,3.0106,2.9881,2.952,2.9214,2.8562,2.7998,2.7617,2.7341,2.7201,2.7282,2.7299,2.7299,2.7299,2.7299,2.7299,2.7299,2.6808,2.7196,2.8842,2.8229,2.8362,2.9673,2.9182,2.8527,2.7745,2.7524,2.7248,0.0,0.0,0.0,0.0,0.0,0.0,0.0,0.0,0.0,0.0,0.0,0.0,0.0,0.0,0.0,0.0,0.0,0.0,0.0,0.0,0.0,0.0,0.0,0.0,0.0,3.292,3.2884,3.1737,3.2364,3.2502,3.1501,3.1673,3.1724,3.1528,3.151,3.1411,3.123,3.0918,3.0658,3.0518,3.0225,2.9968,2.9793,2.9793,2.9793,2.9793,2.9617,2.9661,2.981,2.9454,2.9227,2.9136,2.9438,2.9572,2.9617,3.0267,3.0293,3.0081,3.0393,2.9908,2.912,2.9496,2.9406,2.9166,2.9673,3.0149,3.0559,3.1055,3.119,3.119,3.119,3.119,3.119,3.119,3.1021,3.0835,3.0835,3.0632,3.0446,3.0446,3.0074,2.9736,2.9736,2.9127,2.8602,2.8602,2.8602,2.8505,2.8169,2.7845,2.7521,2.7223,2.7152,2.7166,2.7421,2.7345,2.7345,2.7421,2.7345,2.7299,2.7299,2.6925,2.7301,2.875,2.8327,2.8551,2.9763,2.9326,2.8795,2.811,2.7625,2.7196,2.6779,0.0,0.0,0.0,0.0,0.0,0.0,0.0,0.0,0.0,0.0,0.0,0.0,0.0,0.0,0.0,0.0,0.0,0.0,0.0,0.0,0.0,0.0,0.0,3.2693,3.2957,3.2919,3.1787,3.2852,3.3305,3.2306,3.2289,3.2283,3.2283,3.16,3.119,3.119,3.119,3.0958,3.0477,3.046,3.0225,2.975,2.9766,2.9766,2.975,2.9303,2.9303,2.9722,2.8795,2.8668,2.9074,2.9074,2.909,2.9166,3.0081,2.9908,2.9212,3.0123,2.9908,2.9074,2.9074,2.9074,2.9166,2.9661,3.014,3.0559,3.1055,3.119,3.119,3.1173,3.1157,3.1157,3.114,3.0615,3.0074,3.0074,2.9533,2.9011,2.9011,2.8958,2.8941,2.8941,2.8332,2.7755,2.7755,2.7755,2.7755,2.7791,2.7284,2.6926,2.7007,2.7087,0.0,2.7672,2.7465,2.7421,2.7672,2.7465,2.7299,2.7299,2.6957,2.7131,2.8066,2.806,2.8321,2.896,2.935,2.9182,2.8511,2.7775,2.7196,2.6832,0.0,0.0,0.0,0.0,0.0,0.0,0.0,0.0,0.0,0.0,0.0,0.0,0.0,0.0,0.0,0.0,0.0,0.0,0.0,0.0,0.0,3.4791,3.4457,3.3858,3.379,3.363,3.3164,3.3332,3.3255,3.2683,3.2411,3.2179,3.1896,3.1466,3.119,3.119,3.0878,3.0477,3.0011,2.9645,2.9257,2.8795,2.8795,2.8795,2.8795,2.8668,2.8668,2.8763,2.8541,2.8493,2.8573,2.8573,2.8779,2.912,2.9393,2.9512,2.9661,3.0267,2.9908,2.9074,2.9074,2.9074,2.9212,3.0038,3.0393,3.0559,3.1055,3.119,3.1106,3.0565,3.0395,3.0294,2.9753,2.9448,2.9296,2.9296,2.9144,2.9011,2.9011,2.8552,2.8146,2.8146,2.7537,2.6996,2.6996,2.6996,2.7046,2.7148,2.7029,2.7024,2.731,2.7417,2.7565,2.7886,2.773,2.763,2.7701,2.7465,2.7299,2.7299,2.7218,2.7463,2.8285,2.866,2.8967,2.9213,2.9737,2.9544,2.8511,2.7775,2.735,0.0,0.0,0.0,0.0,0.0,0.0,0.0,0.0,0.0,0.0,0.0,0.0,0.0,0.0,0.0,0.0,0.0,0.0,0.0,0.0,0.0,0.0,3.4668,3.4495,3.4221,3.4074,3.3921,3.3726,3.352,3.3304,3.3068,3.2586,3.2196,3.1967,3.1487,3.119,3.119,3.0918,3.0576,3.0097,2.9821,2.9483,2.8967,2.8967,2.8889,2.87,2.87,2.8573,2.8411,2.8411,2.8411,2.8411,2.8411,2.8525,2.8826,2.9212,2.9438,2.9528,0.0,0.0,0.0,0.0,2.9528,2.9733,3.0097,3.0237,3.0386,3.0656,3.0531,3.0192,2.977,2.9634,2.955,2.911,2.8755,2.8501,2.8501,2.8264,2.8027,2.8027,2.7672,2.7385,2.7521,2.7197,2.6956,2.71,2.7132,0.0,2.723,2.712,2.7103,2.7369,2.7595,2.7858,2.8165,2.8027,2.7926,2.8055,2.78,2.7659,2.7659,2.7509,0.0,0.0,0.0,2.9194,2.9493,2.9686,0.0,0.0,0.0,2.7524,2.7401,2.6989,0.0,0.0,2.6986,2.7099,0.0,0.0,0.0,0.0,0.0,0.0,0.0,0.0,0.0,0.0,0.0,0.0,0.0,0.0,0.0,0.0,3.4561,3.4431,3.4049,3.3972,3.3895,3.3698,3.3491,3.3364,3.3334,3.2734,3.2317,3.2248,3.1637,3.123,3.119,3.119,0.0,0.0,0.0,3.0251,2.9793,2.9793,2.9572,2.9166,2.9166,2.8967,2.8589,2.8589,2.8589,2.8589,2.8589,2.8589,2.8621,2.9454,2.9572,2.9166,2.9257,2.9777,3.0477,3.0097,3.0182,3.0418,3.0015,0.0,0.0,3.0006,2.9533,2.8958,2.8873,2.8839,2.8839,2.8738,2.8266,2.7724,2.7724,2.725,2.6825,2.6825,2.6825,2.6873,2.7181,2.7244,2.7338,2.7642,2.7701,2.7701,2.7701,2.7444,2.7289,2.7396,2.7707,2.8093,2.8492,2.8326,2.8281,2.8576,2.8308,0.0,2.8102,2.7869,2.7713,2.7701,2.8442,2.917,2.9702,2.9377,2.8967,2.8574,2.8158,2.783,2.7539,2.713,2.675,2.6336,2.6042,2.5743,0.0,0.0,0.0,0.0,0.0,0.0,0.0,0.0,0.0,0.0,0.0,0.0,0.0,0.0,0.0,3.4623,3.4473,3.4269,3.4023,3.3842,3.3671,3.3481,3.3422,3.3286,3.2957,3.2781,3.2468,3.186,3.1677,3.1487,3.123,3.119,3.0975,3.0518,3.0518,3.0251,2.9793,2.9793,2.975,2.9661,2.9661,0.0,2.9544,2.9544,2.9544,2.9544,2.9544,2.9544,2.9544,2.9722,2.9766,2.9705,3.0081,3.0335,3.0518,3.0838,3.0757,3.0435,3.0129,3.0056,3.0006,2.9397,2.9146,2.8873,2.823,2.8044,0.0,2.73,2.7231,2.7308,2.7308,2.7411,2.7504,2.7504,2.7504,2.7504,2.7582,2.7595,2.7612,2.7701,2.7701,2.7701,2.7701,2.7642,2.7713,2.7992,2.8139,2.8368,2.8767,2.8626,2.8525,2.8601,2.8308,2.8102,2.8102,2.8047,2.7926,2.7713,2.8442,2.9051,2.937,2.9572,2.9454,2.8967,2.8574,2.8367,2.8286,2.7864,2.7363,2.6745,2.6204,2.5743,0.0,0.0,0.0,0.0,0.0,0.0,0.0,0.0,0.0,0.0,0.0,3.473,3.4623,0.0,3.4602,3.4602,3.4427,3.4221,3.4023,3.3834,3.3633,3.3422,3.3393,3.3316,3.3129,3.2908,3.2568,3.2021,3.2003,3.1823,3.1449,3.1449,3.1317,3.1106,3.0942,3.0757,3.0493,3.0493,3.0368,3.014,3.014,3.0011,2.9793,2.9793,2.9793,2.9793,2.9793,2.9793,2.9793,3.0054,3.0267,3.0535,3.0757,3.0699,3.0518,3.074,3.0603,3.0252,2.9884,2.9395,2.8907,2.8518,2.8146,2.7757,2.7368,2.7249,2.7216,2.6993,2.7085,2.7244,2.74,2.7565,2.7701,2.7701,2.7701,2.776,2.7869,2.7897,2.7954,2.8128,2.8156,2.8156,2.8156,2.8219,2.8299,2.821,2.8412,2.8633,2.8863,2.8839,2.8791,2.8791,2.8651,2.8558,2.8558,2.843,2.8407,2.851,2.8883,2.9231,2.9543,2.9922,2.9793,2.9121,2.8935,2.8717,2.8511,2.811,2.755,2.6901,2.6404,2.5948,0.0,0.0,0.0,0.0,0.0,0.0,0.0,3.4927,3.4889,3.4809,3.4687,3.4602,3.4602,3.4602,3.4602,3.4602,3.4427,3.4245,3.4074,3.3895,3.3698,3.352,3.3452,3.3393,3.3393,3.3099,3.2781,3.2401,3.2419,3.2231,3.1823,3.175,3.1677,3.1677,3.1351,3.119,3.119,3.1252,3.1117,3.0747,3.0811,3.0608,3.0166,3.0166,3.0123,3.0054,3.0054,3.0097,3.0192,3.0518,3.0942,3.1406,3.1329,3.11,3.0811,3.0683,3.0426,3.0053,2.9504,2.8645,2.7807,2.7725,2.7284,2.6825,2.6873,2.6873,2.6939,2.7213,2.7321,2.7444,2.7713,2.7829,2.7858,2.7858,2.7858,2.7943,2.8183,2.8264,2.8334,2.8626,2.8694,2.8694,2.8694,2.8839,2.8821,2.8394,2.8676,2.8934,2.9003,2.9089,2.9134,2.9134,2.9134,2.9093,2.9067,2.8821,2.8804,2.9132,2.939,2.9575,2.9688,3.0348,3.0276,2.938,2.9316,2.9118,2.8748,2.8352,2.775,2.7108,2.6849,2.6312,3.4573,3.4847,3.532,3.5209,3.5193,3.5176,0.0,3.4983,3.4889,3.4809,3.4687,3.4602,3.4602,3.4602,3.4602,3.4602,3.4427,3.4293,3.4269,3.4099,3.3947,3.3947,3.3633,3.3393,3.3393,3.3364,3.3178,3.2763,3.2731,3.2601,3.2231,3.1896,3.1677,3.1677,3.1351,3.119,3.119,3.1487,3.162,3.1565,3.1914,3.1878,3.149,3.149,3.1317,3.1055,3.1055,3.1218,3.149,3.1235,3.1524,3.2144,3.1787,3.1823,3.2021,3.1334,3.0695,3.0006,2.9293,2.8499,2.7741,2.7363,2.7218,2.7213,2.7504,2.7595,2.7612,2.7624,2.7811,2.802,2.8047,2.8273,2.851,2.851,2.851,2.8543,2.8767,2.8815,2.8845,2.9016,2.9038,2.9038,2.9038,2.906,2.9038,2.8915,2.9141,2.9372,2.9433,2.9493,2.9532,2.9532,2.9532,2.9455,2.9272,2.902,2.8803,2.8677,2.9758,3.0064,2.9368,3.0724,3.1138,3.0351,2.9968,2.9705,2.9661,2.9182,2.8574,2.7799,2.775,2.6953,3.4185,3.4496,3.4892,3.523,3.5388,3.5424,3.5355,3.5258,3.5146,3.5,3.4926,3.487,3.4792,3.4832,3.487,3.4791,3.4609,3.4435,3.4316,3.4124,3.3998,3.3998,3.3842,3.3698,3.3577,3.3481,3.3208,3.2827,3.3019,3.3006,3.2601,3.2435,3.2316,3.2316,3.2003,3.1841,3.1841,3.1967,3.2039,3.2039,3.2214,3.1986,3.1342,3.1342,3.1011,3.0455,3.0455,3.0803,3.1342,3.1183,3.162,3.2283,3.2092,3.2144,3.2196,3.1427,3.0681,2.992,2.9142,2.8382,2.7705,2.7565,2.7491,2.7522,2.7672,2.7701,2.7713,2.7897,2.8102,2.8316,2.8515,2.8731,2.8897,2.8897,2.8897,2.892,2.8989,2.9104,2.9169,2.9107,2.926,2.9362,2.9279,2.9438,2.957,2.9533,2.9455,2.9433,2.9492,2.957,2.9626,2.9641,2.9658,2.9623,2.9551,2.942,2.9262,2.9016,2.9751,3.0086,2.9822,3.0782,3.116,3.0801,3.0649,3.0293,2.9793,2.9589,2.9044,2.822,2.7978,2.7348,3.3945,3.4284,3.4574,3.5258,3.5502,3.5554,3.5507,3.5451,3.5353,3.5216,3.5149,3.51,3.4999,3.5049,3.5064,3.4981,3.4832,3.4675,3.448,3.4344,3.4227,3.4173,3.4124,3.4023,3.3868,3.3615,3.3357,3.3063,3.3268,3.3286,3.2988,3.2876,3.2795,3.2795,3.2468,3.2317,3.2317,3.2368,3.2453,3.2435,3.2388,3.1966,3.1223,3.0914,3.0462,2.9887,2.9887,3.0284,3.0941,3.0793,3.1225,3.1948,3.1817,3.185,3.1841,3.1048,3.0409,2.9878,2.9088,2.8333,2.773,2.784,2.7858,2.784,2.802,2.8065,2.8065,2.8298,2.8478,2.8646,2.8892,2.9079,2.9193,2.9193,2.9217,2.926,2.9319,2.9438,2.9514,2.94,2.9568,2.9706,2.9605,2.9796,2.9954,2.998,2.9796,2.9662,2.9697,2.9782,2.9842,2.9882,2.9897,2.9882,2.9817,2.9801,2.9689,2.9437,2.9941,3.0314,3.0474,3.1105,3.1489,3.1519,3.1439,3.1016,3.0285,3.0048,2.9556,2.8873,2.8511,2.8094,3.3991,3.4408,3.4589,3.5311,3.5495,3.5495,3.5495,3.5445,3.5405,3.5391,3.5292,3.52,3.5181,3.513,3.5098,3.5098,3.5098,3.503,3.4908,3.4889,3.4792,3.4604,3.4427,3.4293,3.4269,3.3921,3.3671,3.3671,3.3491,3.3393,3.3364,3.3019,3.2795,3.2795,3.2468,3.2317,3.2317,3.2634,3.2795,3.2777,3.2571,3.219,3.1551,3.0448,2.9904,2.9887,2.9887,3.0145,3.0493,3.0099,3.0379,3.1002,3.0659,3.0747,3.0939,3.0125,2.9908,2.9878,2.9088,2.8333,2.7771,2.8237,2.8264,2.8192,2.8865,2.8966,2.8887,2.9038,2.9064,2.9064,2.9086,2.9256,2.9379,2.9379,2.9495,2.9636,2.9826,2.9877,2.9927,3.0047,3.0075,3.0075,3.0075,3.0095,3.0112,3.0175,3.0239,3.0273,3.0292,3.0337,3.0392,3.0372,3.0372,3.0298,3.0088,3.0075,2.998,2.9706,3.0428,3.0974,3.1151,3.1924,3.2472,3.2745,3.2348,3.1969,3.1556,3.0694,3.021,3.0038,2.9633,2.9319,3.2393,3.3165,3.3853,3.4646,3.5301,3.5774,3.5774,3.5756,3.5689,3.5557,3.5568,3.5571,3.5485,3.5482,3.5477,3.5374,3.5801,3.6102,3.5923,3.6382,3.6727,3.6653,3.6103,3.5704,3.5704,3.4624,3.3895,3.3895,3.386,3.3807,3.3807,3.3689,3.3616,3.3616,3.3486,3.3411,3.3411,3.3542,3.3616,3.3597,3.2456,3.1494,3.0695,2.993,2.9497,2.9384,2.9521,2.9947,3.0551,3.0287,3.0698,3.1528,3.1415,3.1439,3.1441,3.0727,3.0497,3.0369,2.925,2.8699,2.8533,2.879,2.8819,2.8795,2.9042,2.906,2.9038,2.9104,2.9258,2.9438,2.9438,2.9658,2.9861,2.9861,2.9889,2.9961,3.0081,3.017,3.024,3.0224,3.0375,3.0482,3.0375,3.0438,3.0513,3.0529,3.0451,3.0362,3.0359,3.0414,3.0488,3.0537,3.0522,3.0503,3.0438,3.043,3.0307,2.9994,3.0233,3.056,3.0974,3.1592,3.2127,3.2546,3.2745,3.2592,3.2004,3.1428,3.097,3.0549,3.0091,2.9821,3.1493,3.2456,3.3437,3.4295,3.5144,3.5817,3.5851,3.5867,3.584,3.5697,3.5763,3.5807,3.5723,3.5976,3.618,3.6084,3.6765,3.7228,3.6993,3.7444,3.7778,3.7706,3.7209,3.675,3.6427,3.5474,3.4701,3.425,3.408,3.3998,3.3998,3.3998,3.3998,3.3998,3.3998,3.3998,3.3998,3.408,3.3887,3.3392,3.1983,3.0921,3.0163,3.0001,2.9869,2.9768,3.0169,3.0658,3.1145,3.1003,3.1323,3.1895,3.1594,3.1481,3.1389,3.064,3.0375,3.0245,2.9427,2.9153,2.9175,2.9321,2.9341,2.9302,2.9419,2.9419,2.9399,2.9438,2.9604,2.9777,2.9777,2.9965,3.0184,3.0203,3.0232,3.0301,3.0356,3.0447,3.0479,3.044,3.058,3.0677,3.058,3.0662,3.0735,3.0703,3.0585,3.0503,3.0506,3.0568,3.0631,3.0677,3.0665,3.0669,3.0662,3.0677,3.0568,3.0289,3.0278,3.0521,3.1051,3.1672,3.2233,3.2757,3.3264,3.3299,3.2737,3.2244,3.1793,3.1445,3.0965,3.0583,3.1282,3.226,3.3243,3.4177,3.4974,3.5586,3.576,3.5781,3.5781,3.5781,3.5847,3.5896,3.5888,3.6557,3.7094,3.7094,3.7868,3.8371,3.8111,3.8128,3.8073,3.7901,3.7827,3.7482,3.6648,3.6523,3.6009,3.479,3.4302,3.4055,3.4055,3.4055,3.4055,3.4055,3.4055,3.4055,3.4055,3.426,3.3648,3.2305,3.1389,3.0633,3.006,3.072,3.099,3.1046,3.182,3.216,3.216,3.2142,3.2142,3.2084,3.1309,3.1008,3.0913,3.0042,2.9723,2.9723,2.9666,2.9633,2.9635,2.9858,2.9791,2.9685,3.0009,3.0013,2.9954,3.0056,3.0117,3.0117,3.0117,3.0215,3.0332,3.0395,3.0502,3.062,3.0682,3.0696,3.0696,3.07,3.0704,3.0704,3.0704,3.0752,3.0769,3.0715,3.0703,3.0703,3.0706,3.0743,3.0786,3.0786,3.0788,3.0786,3.0784,3.0784,3.0738,3.063,3.0603,3.0836,3.1337,3.2072,3.2754,3.3356,3.3911,3.4031,3.375,3.3087,3.2741,3.2654,3.2178,3.1612,3.033,3.1113,3.2068,3.3052,3.3942,3.4758,3.5541,3.5729,3.5729,3.5735,3.5744,3.5743,3.5747,3.6498,3.7107,3.7107,3.8381,3.9337,3.928,3.9779,4.0142,4.0101,3.9518,3.9025,3.8802,3.7538,3.659,3.6267,3.5407,3.4884,3.4887,3.4887,3.4869,3.4813,3.4813,3.4813,3.4813,3.4868,3.4103,3.2527,3.2931,3.2741,3.2071,3.2338,3.2413,3.2328,3.2685,3.2861,3.2832,3.267,3.2712,3.2822,3.2629,3.2551,3.2445,3.1665,3.1398,3.1301,3.0634,3.0152,2.9874,3.0068,3.0101,3.0062,3.0205,3.0227,3.0216,3.0237,3.0318,3.0402,3.0402,3.0506,3.0607,3.0625,3.0656,3.0682,3.0765,3.0747,3.07,3.0761,3.0735,3.0706,3.0706,3.0701,3.0713,3.0703,3.0693,3.0684,3.0622,3.0632,3.0657,3.0657,3.065,3.0677,3.0717,3.0737,3.0723,3.0757,3.0746,3.0765,3.0804,3.1601,3.2293,3.2783,3.3481,3.4017,3.4433,3.3876,3.3597,3.3543,3.2813,3.2396,2.9599,3.0418,3.1492,3.248,3.3333,3.4186,3.5179,3.5396,3.5396,3.5388,3.5485,3.5685,3.611,3.696,3.7757,3.8131,3.9354,4.0267,4.0223,4.0639,4.0937,4.0905,4.0491,4.0064,3.9688,3.8364,3.7391,3.6956,3.5886,3.5229,3.5206,3.5189,3.5165,3.5114,3.512,3.5187,3.5323,3.4937,3.4306,3.3478,3.3594,3.3412,3.3022,3.3491,3.367,3.3619,3.4082,3.427,3.4289,3.4151,3.4178,3.4251,3.3907,3.3751,3.3659,3.2849,3.2545,3.2462,3.1971,3.1576,3.1202,3.0613,3.0419,3.0427,3.0467,3.0482,3.0482,3.0482,3.0516,3.0541,3.0541,3.0595,3.0665,3.0653,3.0657,3.0679,3.0742,3.0736,3.0704,3.0746,3.0728,3.0687,3.0667,3.0661,3.0625,3.054,3.0517,3.0506,3.0418,3.0561,3.0642,3.0642,3.062,3.0626,3.0652,3.0657,3.0677,3.071,3.0741,3.0719,3.0643,3.1451,3.2193,3.2861,3.3474,3.4117,3.4791,3.4373,3.4086,3.3968,3.3515,3.3153,2.8993,2.9886,3.1066,3.214,3.2874,3.3656,3.4742,3.4986,3.4983,3.4996,3.5161,3.5623,3.6549,3.754,3.8521,3.9385,4.0344,4.0944,4.0899,4.0935,4.0955,4.0882,4.0955,4.0698,3.993,3.9022,3.8166,3.734,3.6102,3.5356,3.5299,3.5303,3.5264,3.52,3.5251,3.5336,3.5473,3.4824,3.4529,3.4594,3.3931,3.3643,3.3672,3.4428,3.4779,3.4827,3.5524,3.5831,3.5831,3.5821,3.5802,3.5747,3.5034,3.4765,3.4647,3.3773,3.3422,3.3356,3.3259,3.3183,3.2907,3.1485,3.0954,3.0856,3.0879,3.0781,3.0703,3.0703,3.0662,3.0618,3.0618,3.0605,3.0602,3.0606,3.0618,3.0629,3.0672,3.0672,3.0642,3.065,3.065,3.0639,3.0574,3.0567,3.0502,3.0325,3.0301,3.0283,3.0209,3.0462,3.0622,3.0622,3.0568,3.0521,3.0529,3.0537,3.0552,3.0579,3.0633,3.0693,3.0699,3.1362,3.2147,3.3017,3.3525,3.4133,3.4856,3.4696,3.4499,3.4288,3.4213,3.3887,2.8609,2.8905,2.9636,3.1474,3.2023,3.2591,3.4491,3.4926,3.4926,3.4907,3.4943,3.5243,3.6062,3.7137,3.817,3.9045,4.0102,4.0824,4.0824,4.0831,4.0838,4.0811,4.0879,4.0851,4.0715,3.9355,3.8436,3.828,3.6731,3.5789,3.5791,3.5774,3.5756,3.5682,3.5696,3.5405,3.4787,3.5274,3.5221,3.4613,3.5115,3.5407,3.5458,3.5614,3.5706,3.576,3.5896,3.5973,3.5955,3.5917,3.5873,3.5852,3.5676,3.5588,3.5486,3.4608,3.4289,3.4183,3.3501,3.3278,3.3204,3.2873,3.2276,3.1708,3.1767,3.1276,3.0693,3.0693,3.0687,3.0684,3.0684,3.068,3.0673,3.0685,3.0638,3.0592,3.06,3.049,3.0366,3.0367,3.0375,3.0364,3.0352,3.0352,3.0328,3.0311,3.0299,3.0305,3.0292,3.0292,3.0241,3.0131,3.0098,3.0106,3.0101,3.021,3.0326,3.0423,3.0547,3.0617,3.0622,3.0742,3.1239,3.2107,3.2862,3.3678,3.4575,3.5007,3.522,3.5172,3.4899,3.4661,2.8334,2.8583,2.9229,3.1041,3.1494,3.1967,3.3812,3.4232,3.4255,3.4348,3.4464,3.4967,3.6375,3.711,3.7974,3.9294,4.0082,4.0537,4.0544,4.0683,4.08,4.0791,4.0828,4.0851,4.0851,3.975,3.8848,3.8424,3.721,3.6284,3.5877,3.5777,3.5739,3.5702,3.5721,3.5586,3.5232,3.5605,3.5605,3.5234,3.5625,3.5819,3.5852,3.5852,3.5867,3.5893,3.5893,3.5893,3.5893,3.5817,3.5797,3.5791,3.5677,3.5628,3.5589,3.5181,3.4994,3.4912,3.4525,3.4371,3.4341,3.4294,3.3495,3.2527,3.2558,3.2234,3.1844,3.1844,3.1814,3.1781,3.1781,3.1786,3.1671,3.1216,3.0772,3.0434,3.0434,3.0362,3.0309,3.0305,3.0292,3.0266,3.0213,3.0199,3.0166,3.0109,3.0094,3.0094,3.0094,3.0064,3.0049,3.006,3.0026,2.9992,2.9954,3.0009,3.0106,3.0232,3.0346,3.044,3.0547,3.0587,3.1003,3.189,3.2272,3.3086,3.4348,3.4633,3.4969,3.5336,3.5181,3.5038,2.7933,2.8344,2.906,3.0631,3.1148,3.1683,3.3231,3.3605,3.3643,3.3788,3.3961,3.4649,3.6526,3.7039,3.7721,3.9448,3.9986,4.02,4.0271,4.0513,4.0699,4.074,4.0761,4.0781,4.0781,3.9956,3.9102,3.8297,3.7201,3.6351,3.5806,3.5681,3.5614,3.5622,3.5665,3.5734,3.5807,3.5774,3.5755,3.578,3.5749,3.5743,3.5743,3.5743,3.5743,3.5743,3.5743,3.5743,3.5736,3.5659,3.5627,3.5618,3.5494,3.5463,3.5463,3.5463,3.5415,3.538,3.538,3.5339,3.5315,3.5315,3.4391,3.3285,3.3285,3.3103,3.2888,3.2888,3.2852,3.28,3.28,3.2801,3.2623,3.1919,3.1249,3.0737,3.0532,3.0494,3.0423,3.0185,3.0152,3.0104,2.995,2.9918,2.9886,2.9805,2.9769,2.9769,2.9769,2.9769,2.9803,2.9886,2.9918,2.9902,2.982,2.9836,2.9883,2.9988,3.0073,3.0201,3.0351,3.0443,3.0815,3.1518,3.1761,3.2491,3.373,3.4093,3.4554,3.5138,3.5316,3.5311,2.7117,2.7728,2.8694,3.0125,3.098,3.1852,3.3273,3.3605,3.3605,3.3615,3.3643,3.4164,3.5802,3.647,3.7281,3.8898,3.9557,3.9944,4.0176,4.025,4.0319,4.05,4.0642,4.0718,4.0718,3.9816,3.8887,3.8098,3.6271,3.5348,3.5689,3.5697,3.5684,3.5697,3.5697,3.5723,3.5807,3.5682,3.5648,3.5702,3.5588,3.5533,3.5533,3.5533,3.5533,3.5533,3.5533,3.5533,3.5524,3.5461,3.5434,3.5423,3.5359,3.5307,3.5307,3.5307,3.5307,3.5311,3.5311,3.5296,3.5315,3.5315,3.4678,3.392,3.392,3.3407,3.2818,3.2818,3.2804,3.2804,3.2804,3.2809,3.2761,3.2562,3.2435,3.2156,3.1301,3.1113,3.0835,2.9849,2.9644,2.9589,2.9415,2.9357,2.9375,2.9355,2.9355,2.9355,2.9355,2.9355,2.9316,2.9193,2.9513,2.9683,2.9551,2.9589,2.9626,2.9662,2.9817,2.9931,2.9946,3.0075,3.0209,3.0348,3.1304,3.1942,3.2213,3.373,3.4505,3.458,3.5385,3.5715,2.6971,2.77,2.8539,2.9615,3.0381,3.1233,3.2506,3.283,3.2925,3.328,3.3737,3.4467,3.5745,3.6501,3.7308,3.8467,3.9072,3.9414,3.951,3.9797,3.9983,4.0082,4.0138,4.0155,4.0155,3.9811,3.9007,3.7685,3.5944,3.5026,3.5211,3.522,3.5215,3.5215,3.521,3.527,3.538,3.5329,3.5342,3.5449,3.5412,3.5387,3.5387,3.5387,3.5387,3.5387,3.5387,3.5387,3.5368,3.5264,3.5224,3.5209,3.5102,3.5053,3.5053,3.5053,3.5053,3.5053,3.5053,3.5053,3.5053,3.5053,3.4735,3.4396,3.4606,3.4397,3.4063,3.4063,3.3976,3.3885,3.3885,3.3374,3.2861,3.2801,3.2424,3.1972,3.1572,3.1497,3.1233,3.0311,3.0141,2.9953,2.9407,2.9293,2.9293,2.9293,2.9293,2.9293,2.9293,2.9272,2.923,2.9212,2.9293,2.9272,2.916,2.9163,2.9254,2.9399,2.9476,2.9606,2.9712,2.9899,2.9924,2.9848,3.0418,3.1068,3.1767,3.2466,3.3155,3.3784,3.4137,3.4287,2.6996,2.7879,2.8782,2.947,3.0173,3.0915,3.1899,3.2197,3.242,3.283,3.3683,3.4618,3.5584,3.6458,3.7271,3.814,3.864,3.8906,3.8952,3.9321,3.9622,3.9671,3.9757,3.9797,3.9797,3.9299,3.8477,3.7219,3.5616,3.4693,3.4693,3.4693,3.4772,3.4908,3.4908,3.4944,3.5034,3.5032,3.5083,3.5184,3.5187,3.5187,3.5187,3.5187,3.5187,3.5187,3.5187,3.5187,3.5171,3.5088,3.5,3.4945,3.4851,3.4811,3.4792,3.4732,3.4752,3.4811,3.4732,3.4693,3.4693,3.4693,3.4607,3.4539,3.4754,3.4773,3.4693,3.4693,3.4586,3.4495,3.4495,3.3888,3.3282,3.3282,3.2855,3.2368,3.2108,3.2052,3.1788,3.0905,3.0535,3.0183,2.9562,2.9267,2.9101,2.9101,2.9101,2.9101,2.9101,2.9034,2.9012,2.9056,2.8883,2.8814,2.8938,2.8934,2.9007,2.9175,2.9175,2.9237,2.936,2.9588,2.9624,2.9439,2.9727,3.0251,3.0996,3.1302,3.1901,3.2737,3.3038,3.3218,2.7114,2.8229,2.9503,2.9897,3.0548,3.1184,3.1603,3.202,3.2283,3.2318,3.3261,3.4329,3.5079,3.6085,3.7079,3.7857,3.8219,3.8473,3.8678,3.8925,3.9193,3.9368,3.963,3.9797,3.9797,3.8105,3.6953,3.6712,3.5144,3.4197,3.4197,3.4197,3.4413,3.4889,3.4908,3.4889,3.4906,3.4889,3.4889,3.4906,3.4889,3.4889,3.4889,3.4889,3.4889,3.4889,3.4889,3.4889,3.4889,3.4889,3.4772,3.4623,3.4583,3.4583,3.4561,3.4293,3.4381,3.458,3.4293,3.4197,3.4197,3.4197,3.4197,3.4197,3.4221,3.4221,3.4197,3.4197,3.4197,3.4197,3.4197,3.4197,3.4179,3.4179,3.4179,3.3937,3.3078,3.2892,3.258,3.1501,3.0644,3.0021,2.9849,2.9119,2.8612,2.8612,2.8612,2.8612,2.8612,2.8562,2.8492,2.8492,2.8165,2.8219,2.902,2.9048,2.8975,2.8905,2.8887,2.8863,2.8797,2.9132,2.9221,2.9012,2.9401,2.9603,2.9618,3.0485,3.1073,3.1436,3.2444,3.3048,2.7529,2.8563,2.9369,2.9559,3.0149,3.0781,3.1201,3.1376,3.164,3.2179,3.3477,3.4659,3.5099,3.638,3.7417,3.7685,3.7949,3.8135,3.8212,3.8436,3.864,3.8722,3.8781,3.8839,3.8839,3.7312,3.6306,3.6229,3.4724,3.3807,3.3807,3.3807,3.3921,3.4227,3.4227,3.4165,3.4067,3.4165,3.4237,3.4274,3.4394,3.4413,3.4413,3.4413,3.4413,3.4413,3.4413,3.4413,3.4413,3.4413,3.4367,3.4316,3.4316,3.4316,3.4316,3.4221,3.4245,3.4316,3.4221,3.4197,3.4197,3.4197,3.4074,3.3876,3.3616,3.3847,3.4173,3.3972,3.3921,3.3868,3.3698,3.3643,3.3643,3.3643,3.3643,3.3588,3.3286,3.3037,3.2564,3.1683,3.1118,3.0409,2.9302,2.8929,2.8563,2.806,2.7989,2.7989,2.7989,2.7858,2.7811,2.7961,2.7666,2.7794,2.8576,2.8404,2.8404,2.8743,2.8737,2.8687,2.8644,2.885,2.8879,2.8664,2.896,2.918,2.9246,2.9568,3.0226,3.1229,3.2138,3.2711,2.7874,2.8942,2.9782,2.979,3.0179,3.0551,3.0821,3.1004,3.1278,3.1949,3.3475,3.4781,3.5153,3.6524,3.7577,3.7577,3.7757,3.7863,3.7863,3.8086,3.8285,3.8382,3.8382,3.8382,3.8382,3.6924,3.5994,3.5994,3.4499,3.3605,3.3605,3.3605,3.3615,3.3652,3.3734,3.3762,3.3671,3.3823,3.3928,3.3968,3.413,3.4197,3.4197,3.4197,3.4197,3.4197,3.4197,3.4197,0.0,3.4197,3.4148,3.4049,3.4049,3.4049,3.4023,3.3778,3.3742,3.3795,3.3561,3.3478,3.3478,3.3478,3.3382,3.3196,3.2929,3.3171,3.3449,3.3284,3.3225,3.3225,3.319,3.3086,3.3024,3.3147,3.3086,3.3064,3.3337,3.3194,3.2958,3.2745,3.2297,3.1636,3.0672,3.0007,2.9358,2.8636,2.8268,2.8017,2.7736,2.7565,2.7487,2.7595,2.7352,2.7396,2.7943,2.7811,2.7851,2.8201,2.8165,2.8156,2.8174,2.843,2.8482,2.8291,2.8639,2.886,2.8938,2.92,2.9682,3.043,3.112,3.1637,0.0,2.9304,3.0468,3.0526,3.0526,3.0526,3.0526,3.0781,0.0,3.1603,3.3293,3.4763,3.5135,3.6524,3.7577,3.7577,3.7577,3.7577,3.7577,3.781,3.8052,3.8318,3.835,3.8332,3.8277,3.6856,3.5915,3.5891,3.4422,3.3549,3.3502,3.3502,3.3368,3.3111,3.3339,3.3473,3.3502,3.3707,3.377,3.377,3.3961,3.4055,3.4062,3.4062,3.4062,3.4062,3.4062,3.4062,3.4062,3.4062,3.3928,3.3707,3.3707,3.3707,3.3606,3.2983,3.2916,3.3064,3.2484,3.2317,3.2317,3.2317,3.2283,3.2248,3.2248,3.2283,3.2317,3.2317,3.2317,3.2368,3.2666,3.2535,3.2385,3.277,3.259,3.2581,3.3318,3.3457,3.3668,3.4331,3.382,3.3295,3.3242,3.2022,3.0835,3.0031,2.933,2.8609,2.7817,2.7652,2.7526,2.7365,2.71,2.7053,2.7241,2.7334,2.7378,2.7378,2.7396,2.7413,2.7496,2.7897,2.8047,2.7869,2.8378,2.8644,2.8669,2.924,2.945,2.9373,2.9738,3.0262,2.8925,0.0,3.0443,3.0485,3.0526,3.0526,0.0,3.0551,3.0861,3.1565,3.3052,3.4431,3.51,3.6524,3.7577,3.7577,3.7577,3.7577,3.7577,3.7649,3.7721,3.7792,3.7792,3.7541,3.6931,3.598,3.5139,3.4598,3.3629,3.293,3.2603,3.2603,3.2419,3.2056,3.2127,3.2299,3.2603,3.2699,3.2648,3.2451,3.2548,3.2645,3.2759,3.2759,3.2759,3.2759,3.2759,3.2759,3.2759,3.2759,3.2713,3.2666,3.2666,3.2666,3.2616,3.2468,3.2468,3.2484,3.2334,3.2317,3.2317,3.2317,3.2109,3.1823,3.1823,3.2074,3.2317,3.2317,3.2317,3.2317,3.2419,3.2351,3.2458,3.309,3.3196,3.3336,3.4071,3.4039,3.3896,3.4068,3.3728,3.3179,3.2639,3.223,3.1564,3.0231,2.9926,2.9312,2.7964,2.7726,2.7471,2.6909,2.6725,2.6674,2.6759,2.6922,2.7129,2.7378,2.7348,2.7365,2.7426,2.747,2.7547,2.76,2.7915,2.8219,2.8458,2.9261,2.9741,2.9931,3.0697,3.1225,2.9577,2.991,3.0417,3.0443,3.0485,3.0526,3.0526,3.0526,3.0758,3.172,3.3102,3.4384,3.5258,3.6429,3.7337,3.7577,3.7411,3.7281,3.7281,3.7281,3.7206,3.6978,3.715,3.6905,3.5922,3.5428,3.4828,3.411,3.3599,3.3282,3.3065,3.3028,3.2936,3.271,3.271,3.2496,3.202,3.2092,3.2056,3.1914,3.2039,3.2144,3.2231,3.2265,3.2317,3.2317,3.2317,3.2317,3.2317,3.2317,3.2317,3.2317,3.2317,3.2317,3.2283,3.2092,3.2021,3.2003,3.1841,3.1804,3.1804,3.1804,3.1674,3.1449,3.1223,3.1521,3.1901,3.1817,3.2046,3.2342,3.2543,3.2693,3.2945,3.3529,3.354,3.3593,3.4335,3.4363,3.4336,3.4694,3.455,3.4286,3.388,3.3525,3.2916,3.1799,3.1038,3.0192,2.9025,2.8533,2.799,2.7231,2.7094,2.6907,2.6485,2.6401,2.6539,2.6939,2.6906,2.6906,2.6989,2.7083,2.7224,2.7487,2.7713,2.7886,2.8091,2.8631,2.9017,2.9199,2.9787,3.0357,2.9973,3.0162,3.0375,3.0375,3.0443,3.0526,3.0526,3.0526,3.0833,3.1982,3.3157,3.431,3.5409,3.6256,3.69,3.7319,3.7073,3.6781,3.6781,3.6781,3.6643,3.6274,3.6563,3.6364,3.5296,3.5105,3.4794,3.4019,3.395,3.3854,3.3814,3.3814,3.3774,3.3733,3.3733,3.3117,3.185,3.1846,3.18,3.1642,3.1825,3.1933,3.1933,3.2056,3.2144,3.2144,3.2144,3.2144,3.2144,3.2144,3.2144,3.2144,3.2144,3.2144,3.2109,3.1768,3.162,3.1582,3.1291,3.1151,3.1095,3.1095,3.1055,3.0952,3.0651,3.0945,3.1368,3.1323,3.1748,3.2302,3.265,3.3022,3.3381,3.3857,3.3768,3.3736,3.4401,3.457,3.4711,3.5244,3.5379,3.5379,3.5379,3.4841,3.4169,3.3446,3.2269,3.1143,3.0146,2.9496,2.8774,2.788,2.7796,2.7406,2.6476,2.6085,2.5999,2.6241,2.6225,2.626,2.645,2.6725,2.7017,2.7404,2.7547,2.7624,2.7683,2.7872,2.7966,2.8047,2.8272,2.8755,2.9918,2.9989,3.0119,3.0333,3.0443,3.0526,3.0526,3.0526,3.0833,3.1982,3.2889,3.3826,3.4967,3.5814,3.6357,3.6381,3.634,3.6316,3.6316,3.6316,3.6256,3.6215,3.6256,3.598,3.5173,3.5122,3.4794,3.3962,3.3894,3.3733,3.3405,3.3405,3.3254,3.2884,3.2884,3.2784,3.255,3.2268,3.1708,3.0878,3.0998,3.1117,3.1179,3.1329,3.1368,3.1368,3.1368,3.1368,3.1368,3.1368,3.1368,3.1368,3.1368,3.1368,3.1368,3.1291,3.1291,3.1269,3.123,3.0918,3.0617,3.0617,3.0351,3.0125,3.0595,3.081,3.1005,3.1554,3.1811,3.1892,3.1968,3.234,3.2901,3.3589,3.404,3.4391,3.4688,3.4745,3.4636,3.4301,3.4235,3.4235,3.4235,3.4137,3.3828,3.3095,3.2802,3.1955,2.9989,2.9648,2.9221,2.8323,2.8229,2.7876,2.704,2.6808,2.6287,2.5307,2.5465,2.5852,2.6295,2.6486,2.6708,2.6985,2.7115,2.7303,2.7542,2.7695,2.7742,2.7771,2.78,2.7882,2.9918,2.9989,3.0103,3.0146,3.0274,3.0359,3.0443,3.0757,3.1321,3.2276,3.327,3.4287,3.5189,3.5642,3.5864,3.5864,3.5864,3.5864,3.5864,3.5864,3.5776,3.5526,3.5732,3.5487,3.4496,3.4756,3.4671,3.3912,3.4233,3.4231,3.3746,3.373,3.3496,3.2999,3.2951,3.2773,3.2402,3.1876,3.1445,3.1191,3.0974,3.0912,3.0952,3.1112,3.119,3.119,3.0918,3.0975,3.119,3.0918,3.0821,3.0821,3.0821,3.0658,3.0452,3.0452,3.0452,3.0452,3.0452,3.0309,3.014,3.014,3.0228,3.0335,3.0398,3.0927,3.1483,3.1568,3.1996,3.2369,3.2369,3.2853,3.3435,3.3794,3.4067,3.4261,3.4349,3.4382,3.4284,3.4036,3.3986,3.3986,3.3986,3.3986,3.3872,3.3533,3.3161,3.2401,3.1043,3.0542,2.9826,2.8649,2.8461,2.8087,2.7339,2.6855,2.6148,2.5045,2.5082,2.5291,2.5519,2.5647,2.5888,2.6229,2.635,2.659,2.6971,2.7021,2.7149,2.7255,2.7352,2.7444,2.9918,3.0033,3.0103,3.0017,3.0146,3.0323,3.0589,3.111,3.1797,3.2762,3.369,3.4532,3.5318,3.5453,3.5453,3.5453,3.5453,3.5453,3.5453,3.5453,3.5316,3.493,3.5241,3.5052,3.415,3.4457,3.446,3.39,3.4266,3.4317,3.3917,3.3882,3.3697,3.3182,3.3182,3.2945,3.2372,3.1539,3.115,3.1221,3.0714,3.0493,3.0493,3.0757,3.0838,3.0797,3.0477,3.0535,3.0838,3.0477,3.0351,3.0351,3.0351,3.014,2.9793,2.9793,2.9793,2.9793,2.9793,2.9705,2.9649,2.981,3.0138,3.0464,3.0415,3.1149,3.1873,3.1674,3.2217,3.2798,3.2798,3.3315,3.3818,3.3818,3.3935,3.3986,3.3818,3.3818,3.3767,3.3665,3.363,3.363,3.363,3.363,3.3578,3.363,3.3099,3.2394,3.1582,3.1007,3.0144,2.8854,2.8622,2.8291,2.7487,2.672,2.5929,2.5088,2.5133,2.5271,2.5352,2.5433,2.5632,2.596,2.6059,2.6248,2.6631,2.6756,2.6937,2.7148,2.7368,2.76,2.9918,2.9946,3.0017,3.0017,3.0231,3.0667,3.1275,3.1517,3.1973,3.3425,3.3802,3.4068,3.4797,3.4947,3.4947,3.4947,3.4947,3.4947,3.4947,3.4947,3.4947,3.4899,3.4947,3.493,3.4816,3.4415,3.4134,3.407,3.3614,3.3303,3.3251,3.3251,3.3251,3.3182,3.3182,3.3166,3.3119,3.1776,3.0749,3.0085,2.9573,2.9329,2.9329,2.9613,2.9717,2.9717,2.9821,2.9881,2.9881,2.9837,2.9837,2.9837,2.9837,2.9837,2.9793,2.9793,2.9793,2.9793,2.9793,2.9528,2.9231,2.988,2.9812,2.9728,3.0911,3.1358,3.1559,3.2136,3.2376,3.2415,3.2415,3.2864,3.3251,3.3251,3.3665,3.3869,3.3355,3.3251,3.3093,3.2602,3.2492,3.2492,3.2492,3.2398,3.2342,3.2492,3.2256,3.1656,3.0446,3.0299,2.9832,2.8811,2.881,2.8481,2.7579,2.6459,2.5772,2.5558,2.5925,2.6311,2.6749,2.6734,2.6776,2.6819,2.6873,2.6925,2.6968,2.7535,2.783,2.783,2.8272,2.8568,2.9918,2.9946,3.0017,3.0017,3.0231,3.0641,3.1341,3.1869,3.2508,3.3591,3.4154,3.4568,3.4849,3.4899,3.4899,3.4899,3.4899,3.4899,3.4899,3.4899,3.4899,3.4899,3.4899,3.4756,3.4448,3.4201,3.3933,3.3578,3.3303,3.3039,3.2749,3.2695,3.2532,3.216,3.2145,3.2145,3.2145,3.083,3.002,2.976,2.9375,2.9194,2.9194,2.939,2.954,2.9585,2.9348,2.9438,2.9793,2.9483,2.9348,2.9364,2.9059,2.8936,2.8936,2.8936,2.8936,2.8936,2.8936,2.8795,2.8777,2.9461,2.984,3.0212,3.112,3.1674,3.2059,3.2321,3.2398,3.2398,3.2398,3.2547,3.2695,3.2695,3.2857,3.2964,3.2749,3.2695,3.2641,3.2437,3.2398,3.2398,3.2398,3.2302,3.2247,3.2247,3.215,3.1663,3.0791,3.0358,2.9785,2.8989,2.8578,2.8161,2.774,2.7303,2.6988,2.6826,2.6176,2.5909,2.6092,2.6092,2.6213,2.6466,2.6479,2.667,2.6945,2.7174,2.7301,2.7301,2.7517,2.7802,2.9918,2.9946,3.0017,3.0017,3.0189,3.0665,3.1622,3.2232,3.2904,3.3938,3.4551,3.4899,3.4899,3.4899,3.4899,3.4899,3.4899,3.4816,3.4584,3.4607,3.456,3.433,3.4333,3.4218,3.3866,3.3662,3.3403,3.3002,3.2772,3.2516,3.212,3.2135,3.191,3.1524,3.1482,3.1482,3.1482,3.0056,2.9332,2.9317,2.8505,2.8323,2.8701,2.8873,2.9012,2.9058,2.8858,2.8967,2.9319,2.8997,2.8873,2.8826,2.8541,2.8411,2.8411,2.8411,2.8411,2.8396,2.825,2.8201,2.8354,2.9073,2.9613,3.0198,3.1174,3.1809,3.2231,3.2342,3.2398,3.2398,3.2398,3.2398,3.2398,3.2398,3.2398,3.2398,3.2398,3.2398,3.2398,3.2398,3.2398,3.2398,3.2398,3.2302,3.2191,3.2191,3.2053,3.1697,3.1016,3.0364,2.9622,2.8728,2.8228,2.7905,2.774,2.779,2.774,2.7625,2.6722,2.6228,2.6228,2.6228,2.6356,2.6656,2.6641,2.6796,2.7132,2.7268,2.7357,2.7357,2.7548,2.7881,2.9918,2.9946,3.0017,3.0017,3.0189,3.0797,3.2171,3.259,3.311,3.4601,3.4899,3.4899,3.4899,3.4899,3.4899,3.4883,3.4883,3.4618,3.3889,3.3973,3.3809,3.3097,3.3096,3.3182,3.3182,3.2695,3.2398,3.2398,3.1853,3.1482,3.1482,3.1482,3.1482,3.1482,3.1482,3.1482,3.1482,2.9618,2.8693,2.8664,2.6718,2.6428,2.7575,2.7855,2.7955,2.802,2.825,2.8411,2.8411,2.8411,2.8411,2.8411,2.8411,2.8411,2.8411,2.8411,2.8411,2.8348,2.794,2.779,2.7966,2.8793,2.9098,2.9404,3.1162,3.1682,3.1781,3.2287,3.2398,3.2398,3.2398,3.2398,3.2398,3.2398,3.2398,3.2398,3.2398,3.2398,3.2398,3.2398,3.2398,3.2398,3.2398,3.2302,3.2191,3.2191,3.194,3.1543,3.089,3.0202,2.9298,2.7941,2.779,2.774,2.7625,2.774,2.774,2.7625,2.7625,2.7625,2.7625,2.7625,2.7625,2.7625,2.7625,2.7625,2.7625,2.8076,2.8288,2.8304,2.8842,2.9134,2.9918,2.9902,2.9946,2.9973,3.0146,3.052,3.1561,3.2288,3.311,3.4601,3.4899,3.4899,3.4899,3.4899,3.4717,3.4203,3.4121,3.3763,3.2698,3.2608,3.2595,3.2442,3.2498,3.2505,3.2648,3.2492,3.2231,3.1796,3.1582,3.1482,3.1482,3.1482,3.1482,3.1482,3.1482,3.1482,3.1482,3.0056,2.9098,2.8664,2.7169,2.639,2.6322,2.6443,2.6811,2.7357,2.7137,2.7408,2.794,2.761,2.7494,2.7494,2.7494,2.7494,2.7494,2.7494,2.7494,2.7494,2.7342,2.7602,2.8151,2.8887,2.9407,2.9938,3.0894,3.1204,3.1263,3.1379,3.1652,3.1894,3.1894,3.2176,3.2398,3.2398,3.2398,3.2398,3.2398,3.2398,3.2398,3.2302,3.2342,3.2398,3.2302,3.215,3.2038,3.2038,3.1769,3.1192,3.0123,2.9753,2.9124,2.7825,2.7675,2.7625,2.7625,2.7625,2.7625,2.7625,2.7625,2.7625,2.7625,2.7625,2.7625,2.7625,2.7625,2.7625,2.7625,2.776,2.7795,2.7795,2.7944,2.8207,2.9918,2.9918,2.9902,2.9946,3.0076,3.0428,3.1341,3.2139,3.3027,3.422,3.4173,3.3975,3.4021,3.3975,3.3779,3.3195,3.3067,3.2681,3.1436,3.1326,3.1401,3.146,3.1482,3.1667,3.2003,3.2023,3.191,3.1524,3.1482,3.1482,3.1482,3.1482,3.1482,3.1482,3.1219,3.1087,3.1087,2.9376,2.8325,2.7953,2.6386,2.5481,2.5147,2.5673,2.6147,2.6678,2.6587,2.6916,2.7509,2.724,2.7122,2.7122,2.7122,2.7122,2.7122,2.7122,2.7122,2.7071,2.6916,2.7287,2.7904,2.8392,2.8973,2.9667,3.0483,3.0732,3.0792,3.097,3.1321,3.1682,3.1495,3.1781,3.2176,3.2342,3.2398,3.2398,3.2398,3.2342,3.2231,3.1864,3.2064,3.212,3.1766,3.1853,3.1996,3.1955,3.1471,3.0746,2.9714,2.9355,2.8771,2.7679,2.7625,2.7625,2.7625,2.7625,2.7625,2.7625,2.7625,2.7625,2.7625,2.7625,2.7625,2.7625,2.7625,2.7625,2.7625,2.7625,2.7625,2.7625,2.7625,2.7745,2.9918,2.9918,2.9918,2.9918,3.0033,3.0428,3.1368,3.2083,3.2729,3.3524,3.3053,3.2545,3.2635,3.2545,3.2285,3.1913,3.185,3.1404,3.018,3.0117,3.0181,3.0155,3.0286,3.0687,3.1317,3.1437,3.1409,3.1482,3.1409,3.1409,3.1409,3.1409,3.1409,3.1351,3.0718,3.0389,3.0389,2.8098,2.6903,2.6775,2.5103,2.4223,2.4112,2.5273,2.5849,2.5903,2.64,2.6745,2.6967,2.6967,2.6967,2.6967,2.6967,2.6967,2.6967,2.6967,2.6967,2.693,2.6621,2.6906,2.7481,2.7752,2.8282,2.8933,2.9972,3.0266,3.0312,3.0732,3.1204,3.1437,3.1029,3.1263,3.1667,3.2104,3.2216,3.2272,3.2216,3.212,3.1823,3.1188,3.1537,3.1739,3.1102,3.1552,3.194,3.1784,3.1069,3.0283,2.9669,2.9011,2.8338,2.7599,2.7524,2.7524,2.7524,2.7524,2.7524,2.7625,2.7625,2.7625,2.7625,2.7625,2.7625,2.7625,2.7625,2.7625,2.7625,2.7625,2.7625,2.7625,2.7625,2.7625,2.9918,2.9918,2.9918,2.9918,3.0033,3.0428,3.1341,3.1176,3.1226,3.2512,3.2689,3.2607,3.2504,3.218,3.169,3.0939,3.0545,2.9942,2.8724,2.856,2.8667,2.8936,2.937,2.9903,3.0657,3.0719,3.0896,3.1467,3.1029,3.0718,3.0718,3.0718,3.0464,2.995,2.9766,2.969,2.969,2.8638,2.7677,2.6775,2.5891,2.4975,2.4112,2.4376,2.4637,2.4838,2.555,2.5865,2.5853,2.5853,2.5962,2.615,2.615,2.615,2.615,2.615,2.615,2.6221,2.6608,2.7202,2.778,2.8355,2.89,2.9434,2.9685,2.9727,2.9789,2.9837,3.0266,3.0553,3.0176,3.0404,3.0689,3.0555,3.0925,3.119,3.0615,3.0689,3.0689,3.0179,3.0733,3.1116,3.0881,3.1394,3.1784,3.1597,3.0956,3.0283,2.9669,2.9011,2.8166,2.7018,2.6878,2.6878,2.6878,2.6878,2.71,2.7575,2.7625,2.7625,2.7625,2.7625,2.7625,2.7625,2.7625,2.7625,2.7625,2.7625,2.7625,2.7625,2.7625,2.7625,2.9918,2.9918,2.9902,2.9946,3.0033,3.026,3.0767,3.0408,3.0108,3.081,3.1197,3.1347,3.1018,3.079,3.0321,2.9406,2.9088,2.8624,2.779,2.7645,2.785,2.8345,2.8664,2.9243,3.0193,3.0293,3.0441,3.0748,3.045,3.0147,2.9917,2.9917,2.978,2.9504,2.9205,2.903,2.903,2.8111,2.7215,2.6329,2.5681,2.4932,2.4112,2.4112,2.4274,2.4509,2.4894,2.5147,2.5257,2.5439,2.5605,2.5688,2.5839,2.5893,2.5893,2.5893,2.5893,2.5992,2.6596,2.7242,2.7874,2.8493,2.9111,2.9602,2.9602,2.9602,2.9602,2.9602,2.9837,2.9946,2.9574,2.9685,2.978,2.9233,2.9842,3.045,3.0072,3.0072,3.0011,2.9393,2.9813,3.024,3.0194,3.1029,3.1597,3.1539,3.0687,2.9953,2.9624,2.8712,2.7861,2.7181,2.6893,2.6683,2.6683,2.6457,2.639,2.6707,2.6759,2.6759,2.6759,2.6759,2.7019,2.7575,2.7625,2.7473,2.7152,2.7152,2.7034,2.6759,2.6759,2.6759,2.9918,2.9814,2.9754,2.9738,2.9738,2.9782,2.987,2.9572,2.9241,2.9182,2.9515,2.9677,2.9271,2.912,2.8748,2.7947,2.7765,2.7595,2.7233,2.7181,2.7373,2.7971,2.8012,2.8444,2.9501,2.9535,2.9449,2.9519,2.944,2.9209,2.8851,2.8851,2.8851,2.8886,2.8443,2.8204,2.8204,2.7313,2.653,2.5968,2.5288,2.4661,2.4112,2.4112,2.4216,2.4408,2.4408,2.4593,2.4948,2.5188,2.5369,2.5439,2.5743,2.5853,2.5853,2.5893,2.5964,2.6132,2.6764,2.7397,2.8029,2.8647,2.9195,2.9602,2.954,2.9477,2.9477,2.9415,2.9526,2.9512,2.9022,2.9022,2.8944,2.8197,2.8803,2.958,2.958,2.9518,2.9345,2.8725,2.8967,2.938,2.9504,3.0389,3.1161,3.1161,3.0051,2.9277,2.9401,2.8174,2.7306,2.7306,2.6826,2.651,2.6404,2.6014,2.5783,2.5783,2.5783,2.5783,2.5783,2.5783,2.6269,2.724,2.7306,2.7034,2.6563,2.6563,2.6283,2.5783,2.5783,2.5783,2.9918,2.956,2.9074,2.8638,2.8591,2.8701,2.8701,2.8654,2.8606,2.8606,2.8748,2.8779,2.848,2.8128,2.7834,2.76,2.7306,2.7093,2.7055,2.7055,2.707,2.7299,2.7223,2.7283,2.7621,2.7131,2.7045,2.7638,2.7127,2.6837,2.6972,2.6972,2.6741,2.6285,2.6709,2.6908,2.6908,2.7275,2.7131,2.6556,2.5484,2.4661,2.4112,2.4112,2.4112,2.4157,2.4157,2.4319,2.458,2.4637,2.4821,2.5131,2.5425,2.555,2.5605,2.5798,2.6231,2.6778,2.7425,2.8057,2.8675,2.9279,2.9532,2.954,2.9226,2.9162,2.9099,2.8844,2.8716,2.8651,2.8341,2.8276,2.8131,2.7669,2.7723,2.7842,2.7842,2.8118,2.8197,2.7789,2.8222,2.8839,2.938,2.9628,2.9766,2.9766,2.8703,2.8154,2.8679,2.7178,2.6054,2.6054,2.596,2.5742,2.5272,2.5577,2.5783,2.5783,2.5783,2.5783,2.5783,2.5783,2.5892,2.6054,2.6054,2.6,2.5906,2.5906,2.5892,2.5783,2.5783,2.5783,2.9515,2.9074,2.8591,2.8352,2.8352,2.84,2.84,2.8158,2.7963,2.7963,2.778,2.768,2.7815,2.77,2.7464,2.7152,2.6974,2.6899,2.6899,2.6621,2.6394,2.6472,2.609,2.6049,2.6496,2.6253,2.6182,2.6445,2.6179,2.5959,2.5772,2.5772,2.5722,2.5699,2.5946,2.614,2.619,2.6452,2.6282,2.5769,2.4883,2.436,2.4112,2.4112,2.4112,2.4112,2.4112,2.4171,2.4261,2.4465,2.458,2.4765,2.5075,2.5244,2.5298,2.5727,2.6073,2.6431,2.7382,2.7892,2.8154,2.8429,2.8574,2.8443,2.8002,2.7845,2.7913,2.8039,2.7944,2.7833,2.8051,2.7947,2.7736,2.7523,2.7523,2.7523,2.7523,2.7669,2.7736,2.7523,2.8039,2.8597,2.8903,2.9268,2.9504,2.9504,2.8759,2.8243,2.8493,2.7554,2.6708,2.6329,2.6022,2.5558,2.5032,2.4878,2.4878,2.4878,2.4878,2.4878,2.4878,2.4878,2.4878,2.4878,2.5467,2.5632,2.537,2.537,2.5147,2.4878,2.4878,2.4878,2.8842,2.8384,2.8061,2.7963,2.7913,2.7913,2.7913,2.763,2.7327,2.7327,2.7063,2.6922,2.724,2.7225,2.7034,2.6817,2.6553,2.6379,2.6553,2.6056,2.566,2.566,2.5133,2.497,2.5401,2.5266,2.5157,2.5117,2.5094,2.4983,2.4696,2.4696,2.4822,2.5084,2.5275,2.5415,2.554,2.5683,2.5537,2.5022,2.453,2.4256,2.4112,2.4112,2.4112,2.4112,2.4112,2.4112,2.4112,2.4319,2.4421,2.4421,2.4765,2.4878,2.4932,2.5493,2.5765,2.6022,2.6844,2.725,2.7447,2.7509,2.7509,2.7427,2.6884,2.6749,2.6844,2.7139,2.701,2.6927,2.7391,2.7301,2.7092,2.7092,2.721,2.7353,2.7497,2.7523,2.7523,2.7523,2.7908,2.8222,2.8222,2.8648,2.9016,2.9016,2.8443,2.8118,2.8227,2.7607,2.701,2.6701,2.6161,2.5554,2.5047,2.4598,2.4287,2.4112,2.4112,2.4112,2.4112,2.4112,2.4112,2.4112,2.4921,2.5147,2.4778,2.4778,2.4563,2.4112,2.4112,2.4112,2.77,2.7565,2.7414,2.6974,2.6884,2.6884,2.6884,2.6884,2.6832,2.6832,2.6832,2.6779,2.6832,2.6394,2.6165,2.6727,2.5811,2.53,2.5893,2.5425,2.5077,2.5077,2.4509,2.4131,2.4171,2.3641,2.3248,2.3213,2.3213,2.3286,2.3479,2.3492,2.3539,2.3718,2.44,2.4732,2.4732,2.5475,2.5537,2.5022,2.4996,2.4635,2.4112,2.4112,2.4112,2.4112,2.4112,2.4112,2.4112,2.4112,2.4112,2.4171,2.4421,2.4523,2.458,2.4919,2.5412,2.59,2.5968,2.6421,2.6924,2.6924,2.6924,2.6864,2.6444,2.6356,2.6246,2.5975,2.5863,2.5876,2.5903,2.5916,2.5916,2.5916,2.6334,2.687,2.7406,2.7523,2.7523,2.7523,2.7523,2.7523,2.7523,2.759,2.759,2.759,2.717,2.6982,2.7588,2.6591,2.6109,2.6607,2.614,2.5553,2.5043,2.4998,2.4734,2.4112,2.4112,2.4112,2.4112,2.4112,2.4112,2.4112,2.4171,2.4171,2.4171,2.4171,2.4112,2.4112,2.4112,2.4112,2.7464,2.7291,2.7011,2.6832,2.6779,2.6779,2.6779,2.6779,2.6779,2.6779,2.6779,2.6674,2.6286,2.634,2.6394,2.6233,2.5879,2.5536,2.537,2.4794,2.4408,2.4408,2.3826,2.3484,2.3484,2.3245,2.3078,2.3078,2.3078,2.3138,2.3198,2.321,2.3271,2.345,2.3701,2.3996,2.4175,2.4502,2.4622,2.4426,2.4426,2.4321,2.4112,2.4112,2.4112,2.4112,2.4112,2.4112,2.4112,2.4112,2.4112,2.4112,2.4216,2.4261,2.4313,2.4813,2.5137,2.5362,2.5747,2.6012,2.6131,2.576,2.5701,2.5574,2.5071,2.4892,2.4912,2.5232,2.5275,2.5367,2.5733,2.5824,2.5824,2.5824,2.6255,2.6726,2.6935,2.7275,2.7523,2.7523,2.7523,2.7523,2.7523,2.7523,2.7523,2.7523,2.7353,2.7288,2.7538,2.717,2.683,2.6704,2.6542,2.6139,2.555,2.5229,2.4899,2.4721,2.4321,2.4112,2.4112,2.4112,2.4282,2.4661,2.4308,2.4112,2.4112,2.4112,2.4112,2.4112,2.4112,2.4112,2.7203,2.7063,2.6779,2.6779,2.6779,2.6779,2.6779,2.6779,2.6727,2.6553,2.65,2.6326,2.5715,2.5934,2.6042,2.5646,2.5258,2.4921,2.4738,2.4176,2.3767,2.3767,2.3365,2.3078,2.3078,2.3078,2.3078,2.3078,2.3078,2.3078,2.3078,2.3078,2.3198,2.3403,2.3403,2.3582,2.3891,2.4008,2.4067,2.4112,2.4112,2.4112,2.4112,2.4112,2.4112,2.4112,2.4112,2.4112,2.4112,2.4112,2.4112,2.4112,2.4112,2.4112,2.4164,2.4543,2.4687,2.4739,2.5118,2.5249,2.5184,2.4805,2.4687,2.4609,2.4053,2.3995,2.4132,2.439,2.4554,2.4766,2.5158,2.5249,2.5354,2.5733,2.6112,2.6491,2.6883,2.7262,2.7523,2.7523,2.7523,2.7523,2.7523,2.7523,2.7523,2.7523,2.7523,2.7523,2.7523,2.7523,2.7379,2.7,2.6791,2.6517,2.6138,2.5589,2.5171,2.5035,2.4609,2.4321,2.4125,2.4112,2.4387,2.5022,2.4413,2.4217,2.44,2.4217,2.4112,2.4112,2.4112,2.4112,0.0,0.0,0.0,2.6779,2.6779,2.6779,2.6779,2.6779,2.6568,2.6002,2.5893,2.5715,2.5077,2.4951,2.4951,2.4951,2.393,2.3365,2.3956,2.3484,2.3078,2.3078,2.3078,2.3078,2.3078,2.3078,2.3078,2.3078,2.3078,2.3078,2.3078,2.3078,2.3198,2.3403,2.3403,2.3595,2.3891,2.3891,2.3949,2.4112,2.4112,2.4112,2.4112,2.4112,2.4112,2.4112,2.4112,2.4112,2.4112,2.4112,2.4112,2.4112,2.4112,2.4112,2.4054,2.4112,2.4054,2.4054,2.4054,2.4054,2.4054,2.4054,2.4054,2.3995,2.3522,2.3688,2.3936,2.3522,2.37,2.4054,2.4054,2.4112,2.44,2.5462,2.5811,2.6125,2.7262,2.7523,2.7523,2.7523,2.7523,2.7523,2.7523,2.7523,2.7523,2.7523,2.7523,2.7523,2.7523,2.7523,2.7523,2.7523,2.7027,2.67,2.67,2.6177,2.5615,2.5053,2.5048,2.4726,2.4164,2.4125,2.4387,2.4988,2.4426,2.4426,2.4988,2.44,2.4112,2.4112,2.4112,2.4112,2.6779,0.0,0.0,0.0,0.0,0.0,2.6165,2.5825,2.5467,2.53,2.5245,2.5077,2.4452,2.435,2.4163,2.3708,2.3721,2.3721,2.3424,2.3185,2.3078,2.3078,2.3078,2.3078,2.3078,2.3078,2.3078,2.3078,2.3078,2.3078,2.3078,2.3078,2.3138,2.3198,2.333,2.3463,2.3522,2.3628,2.376,2.3949,2.3949,2.4008,2.4112,2.4112,2.4112,2.4112,2.4112,2.4112,2.4112,2.4112,2.4112,2.4112,2.4112,2.3878,2.3641,2.3995,2.3616,2.304,2.345,2.3305,2.304,2.304,2.304,2.298,2.2859,2.2919,2.3053,2.333,2.3522,2.3582,2.3582,2.3819,2.4177,2.4574,2.5249,2.602,2.6752,2.7236,2.7523,2.7523,2.7523,2.7523,2.7523,2.7523,2.7523,2.7523,2.7523,2.7523,2.7523,2.7523,2.7523,2.7523,2.7392,2.7288,2.7288,2.6765,2.6373,2.6216,2.5494,2.4896,2.4739,2.4334,2.4583,2.5563,2.5027,2.5014,2.5589,2.4596,2.4112,2.4112,2.4112,2.4112,2.6779,2.6779,2.6727,2.65,0.0,0.0,2.5591,2.5245,2.4951,2.4681,2.4624,2.4452,2.3826,2.3662,2.3543,2.3125,2.3424,2.3543,2.3125,2.3078,2.3078,2.3078,2.3078,2.3078,2.3078,2.3078,2.3078,2.3078,2.3078,2.3078,2.3078,2.3078,2.3078,2.3078,2.3198,2.3343,2.3403,2.345,2.3582,2.376,2.376,2.3878,2.4008,2.4008,2.4067,2.4112,2.4112,2.4112,2.4112,2.4112,2.4112,2.4054,2.3878,2.3641,2.3403,2.3437,2.31,2.2652,2.2932,2.2859,2.2592,2.2592,2.2592,2.2531,2.2359,2.2616,2.2932,2.2823,2.309,2.333,2.3125,2.3556,2.419,2.4491,2.5189,2.6046,2.6857,2.7288,2.7523,2.7523,2.7523,2.7523,2.7523,2.7523,2.7523,2.7523,2.7523,2.7523,2.7523,2.7523,2.7523,2.7523,2.7523,2.7523,2.7523,2.7223,2.6935,2.6687,2.6109,2.5533,2.5048,2.4648,2.4896,2.5798,2.5027,2.4779,2.5118,2.4674,2.4347,2.4112,2.4112,2.4112,2.6779,2.6727,2.6568,2.6002,2.5784,0.0,2.5021,2.4838,2.4624,2.4118,2.4015,2.3767,2.3125,2.3005,2.2944,2.2884,2.2944,2.3005,2.3078,2.3078,2.3078,2.3078,2.3078,2.3078,2.3078,2.3078,2.3078,2.3078,2.3078,2.3078,2.3078,2.3078,2.3078,2.3078,2.3078,2.3198,2.333,2.3403,2.345,2.3569,2.3569,2.37,2.3891,2.3772,2.3819,2.3995,2.3995,2.3995,2.3995,2.3995,2.4054,2.4054,2.3582,2.333,2.3258,2.2798,2.2531,2.2482,2.247,2.2482,2.2408,2.2408,2.2408,2.2359,2.1939,2.2457,2.2969,2.2137,2.258,2.3198,2.2665,2.3233,2.4103,2.4861,2.537,2.6074,2.7209,2.7523,2.7523,2.7523,2.7523,2.7523,2.7523,2.7523,2.7523,2.7523,2.7523,2.7523,2.7523,2.7523,2.7523,2.7523,2.7523,2.7523,2.7523,2.7523,2.7314,2.6804,2.6713,2.6216,2.5197,2.5101,2.5236,2.5811,2.4766,2.4217,2.4217,2.4661,2.4609,2.4112,2.4112,2.4112,2.6779,2.6447,2.6056,2.5948,2.5147,0.0,2.4292,2.3884,2.3424,2.3305,2.3305,2.3065,2.2421,2.2298,2.2113,2.1565,2.1928,2.2494,2.3005,2.3078,2.3078,2.3078,2.3078,2.3078,2.3078,2.3078,2.3078,2.3078,2.3078,2.3078,2.3078,2.3078,2.3078,2.3078,2.3078,2.3138,2.3138,2.3138,2.3258,2.3463,2.3463,2.3522,2.3628,2.3113,2.2992,2.3318,2.3088,2.3233,2.3522,2.3522,2.376,2.4054,2.3582,2.3125,2.2725,2.2665,2.2113,2.1526,2.1889,2.1815,2.1463,2.1463,2.1463,2.1463,2.1336,2.1463,2.1651,2.1827,2.2298,2.2665,2.2187,2.2482,2.3193,2.4275,2.4872,2.5679,2.7142,2.7523,2.7523,2.7523,2.7523,2.7523,2.7523,2.7523,2.7523,2.7523,2.7523,2.7523,2.7523,2.7523,2.7523,2.7523,2.7523,2.7523,2.7523,2.7523,2.7484,2.7366,2.6935,2.6569,2.6347,2.552,2.5236,2.5811,2.5158,2.4792,2.4792,2.4452,2.423,2.4112,2.4112,2.4112,2.6447,2.6111,2.5784,2.5147,2.4523,0.0,0.0,2.3365,2.3017,2.2689,2.2616,2.2372,2.1741,2.1616,2.1491,2.1123,2.1678,2.2113,2.2125,2.2702,2.3078,2.3078,2.3078,2.3078,2.3078,2.2811,2.2616,2.2616,2.2616,2.2616,2.2616,2.2616,2.2616,2.2616,2.2616,2.2616,2.2616,2.2616,2.2494,2.2261,2.2567,2.2689,2.2506,2.2494,2.2433,2.2372,2.2224,2.2421,2.275,2.2555,2.2738,2.3053,2.275,2.2616,2.2531,2.2063,2.1577,2.1221,2.1463,2.14,2.1221,2.1221,2.1221,2.1221,2.1221,2.1221,2.1285,2.1765,2.2063,2.2113,2.1702,2.2063,2.2887,2.4082,2.4524,2.5071,2.6742,2.7121,2.7121,2.7121,2.7323,2.7523,2.7523,2.7523,2.7523,2.7523,2.7523,2.7523,2.7523,2.7523,2.7523,2.7523,2.7523,2.7523,2.7523,2.7523,2.7523,2.7523,2.7262,2.6974,2.6687,2.6125,2.5694,2.5406,2.5393,2.5118,2.4543,2.4256,2.4112,2.4112,2.4112,2.4112,2.619,2.5893,2.5495,2.4523,2.406,2.378,0.0,0.0,0.0,2.2237,2.199,2.1678,2.106,2.0933,2.0869,2.0741,2.1302,2.1553,2.0996,2.1939,2.2689,2.2689,2.2689,2.2763,2.2871,2.2433,2.2101,2.2101,2.199,2.1928,2.1928,2.1928,2.1928,2.1928,2.1928,2.1928,2.1928,2.1928,2.1616,2.1123,2.1678,2.1678,2.1388,2.1741,2.1741,2.1428,2.1365,2.1542,2.1854,2.1581,2.1655,2.199,2.1877,2.2063,2.2298,2.1463,2.1221,2.1221,2.1221,2.1221,2.1221,2.1221,2.1221,2.1221,2.1221,2.1221,2.1285,2.1639,2.1765,2.1702,2.1285,2.1765,2.2615,2.3818,2.41,2.4484,2.605,2.6569,2.6714,2.6714,2.7121,2.7523,2.7523,2.7523,2.7523,2.7523,2.7523,2.7523,2.7523,2.7523,2.7523,2.7523,2.7523,2.7523,2.7523,2.7523,2.7523,2.7523,2.7523,2.7327,2.6857,2.6726,2.619,2.5145,2.5484,2.5197,2.4282,2.4178,2.4112,2.4112,2.4112,2.4112,2.6567,2.5934,2.5077,2.4951,2.4047,2.3198,2.3138,0.0,2.2175,2.2113,0.0,2.0996,2.0355,0.0,0.0,1.9386,1.9901,2.0291,2.0226,2.0869,2.1313,2.1313,2.1313,2.1565,2.2175,2.2163,2.2101,2.2101,2.1553,2.1187,2.1187,2.1187,2.1187,2.1187,2.1187,2.1187,2.1187,2.1187,2.1187,2.1123,2.1187,2.1187,2.1135,2.0613,2.0473,2.0719,2.0526,2.0655,2.1037,2.0974,2.1227,2.1616,2.1502,2.1514,2.1514,2.1273,2.1221,2.1221,2.1221,2.1221,2.1221,2.1221,2.1221,2.1221,2.1221,2.1221,2.1221,2.1285,2.1285,2.1285,2.1221,2.1285,2.1614,2.2703,2.3323,2.3869,2.5013,2.602,2.6714,2.6714,2.7121,2.7523,2.7523,2.7523,2.7523,2.7523,2.7523,2.7523,2.7523,2.7523,2.7523,2.7523,2.7523,2.7523,2.7523,2.7523,2.7523,2.7523,2.7523,2.7497,2.7432,2.6948,2.6373,2.5733,2.5288,2.5001,2.487,2.436,2.4112,2.4112,2.4112,2.4112,2.4883,2.4362,2.3825,2.3109,2.2559,2.2056,2.174,2.1435,2.1009,2.0277,0.0,0.0,0.0,0.0,0.0,0.0,1.9244,1.9651,1.9552,2.0096,2.0677,2.106,2.1123,2.1187,2.1491,2.1491,2.1491,2.1491,2.0933,2.0549,2.0549,2.0549,2.0549,2.0549,2.0549,2.0549,2.0549,2.0549,2.0291,1.9977,2.0355,2.0291,1.9977,2.0031,1.9966,1.9704,1.9639,1.9835,2.0107,1.9977,2.0096,2.0431,2.0366,2.0688,2.106,2.0892,2.0828,2.0903,2.1094,2.1221,2.1221,2.1221,2.1221,2.1221,2.1221,2.1031,2.0828,2.0828,2.0828,2.0828,2.0828,2.1031,2.1475,2.2567,2.2893,2.3344,2.441,2.5204,2.5791,2.6151,2.6552,2.6973,2.7456,2.7523,2.7523,2.7523,2.7523,2.7523,2.7523,2.7523,2.7523,2.7523,2.7523,2.7523,2.7523,2.7523,2.7523,2.7523,2.7523,2.7523,2.7523,2.7301,2.6896,2.6321,2.6086,2.5798,2.5458,2.4896,2.4609,2.4596,2.4269,2.4112,2.3417,2.3016,2.2698,2.1911,2.1468,2.1119,2.0698,2.0342,1.982,1.8873,1.8462,0.0,0.0,0.0,1.7448,1.7943,0.0,1.8732,1.8695,1.9236,1.9835,2.0484,2.0741,2.0805,2.0805,2.0805,2.0805,2.0805,2.0226,1.9846,1.9846,1.9846,1.9846,1.9846,1.9846,1.9846,1.9846,1.9846,1.9584,1.9142,1.9584,1.9584,1.9142,1.9584,1.9584,1.9075,1.9075,1.9208,1.9473,1.9208,1.9264,1.9473,1.9473,1.9846,2.0409,2.0431,2.0431,2.0495,2.0828,2.0892,2.0892,2.0892,2.0892,2.0892,2.0892,2.07,2.0431,2.0431,2.0431,2.0431,2.0431,2.07,2.1122,2.2005,2.2286,2.2604,2.3524,2.4236,2.4767,2.5252,2.5627,2.6114,2.6663,2.7108,2.7469,2.7456,2.7523,2.7523,2.7523,2.7523,2.7523,2.7523,2.7523,2.7523,2.7523,2.7523,2.7523,2.7523,2.7523,2.7523,2.7523,2.7523,2.734,2.6922,2.6752,2.6465,2.6059,2.5484,2.5118,2.5022,2.4387,2.4112,2.2879,2.2578,2.2213,2.2213,2.143,2.0628,2.0571,1.9644,1.8764,1.8704,1.7852,1.7191,1.7606,1.6951,1.649,1.6951,1.6996,0.0,0.0,1.8125,1.8539,1.9075,1.9715,2.0096,2.0096,2.0096,2.0096,2.0096,1.9518,1.9131,1.9131,1.9131,1.9131,1.9131,1.9131,1.9131,1.9131,1.9131,1.9142,1.9075,1.9131,1.9142,1.9075,1.9131,1.9142,1.9075,1.9075,1.9142,1.9142,1.9075,1.9142,1.9142,1.9142,1.9131,1.9264,1.9911,2.0107,2.0107,2.0096,2.0172,2.0172,2.0172,2.0172,2.0172,2.0172,2.0096,2.0107,2.0107,2.0107,2.0107,2.0107,2.0096,2.0237,2.0593,2.1104,2.1599,2.2104,2.3006,2.3769,2.3872,2.4385,2.4732,2.4815,2.6183,2.7335,2.7469,2.7523,2.7523,2.7523,2.7523,2.7523,2.7523,2.7523,2.7523,2.7523,2.7523,2.7523,2.7523,2.7523,2.7523,2.7523,2.7523,2.7523,2.7497,2.6948,2.6661,2.6648,2.6073,2.5511,2.5022,2.4387,2.4112,2.1385,2.072,2.0182,1.9846,1.9183,1.8519,1.8194,1.7568,1.7,1.6601,1.6009,1.567,1.5799,1.5609,1.5514,1.5984,1.6033,1.6319,0.0,1.7849,1.8337,1.8539,1.9187,1.9704,2.0096,2.0096,2.0096,2.0096,1.9452,1.9075,1.9075,1.9075,1.9075,1.9075,1.9075,1.9075,1.9075,1.9075,1.9075,1.9075,1.9075,1.9075,1.9075,1.9075,1.9075,1.9075,1.9075,1.9075,1.9075,1.9075,1.9075,1.9075,1.9075,1.9075,1.9131,1.9594,1.9791,1.9791,2.0042,2.0096,2.0096,2.0096,2.0096,2.0096,2.0096,1.9977,1.9791,1.9791,1.9791,1.9791,1.9791,1.9911,2.0096,2.0237,2.0688,2.1096,2.1261,2.2062,2.2876,2.3307,2.3697,2.4131,2.4601,2.511,2.5615,2.6471,2.6458,2.6607,2.7268,2.7268,2.7146,2.7146,2.7268,2.7403,2.7403,2.7469,2.7523,2.7523,2.7523,2.7523,2.7523,2.7523,2.7523,2.7523,2.734,2.7236,2.7236,2.6661,2.6282,2.6086,2.5511,2.4844,1.9838,1.9178,1.8797,1.8244,1.7699,1.7135,1.6574,1.612,1.5613,1.504,1.4579,1.441,1.4715,1.4478,1.4441,1.5018,1.5053,1.5376,0.0,1.6892,1.7463,1.7794,1.866,1.9386,1.9715,1.9715,1.9715,1.9715,1.933,1.9075,1.9075,1.9075,1.9075,1.9075,1.9075,1.9075,1.9075,1.9075,1.9075,1.9075,1.8899,1.8827,1.8827,1.8827,1.8827,1.8837,1.9003,1.9075,1.9075,1.9075,1.9075,1.9075,1.9075,1.9075,1.9131,1.9341,1.9407,1.9473,1.9649,1.9715,1.9715,1.9715,1.9715,1.9715,1.9715,1.9594,1.9407,1.9407,1.9407,1.9407,1.9407,1.9594,1.9781,1.9911,2.0171,2.0508,2.0625,2.1263,2.193,2.2358,2.2725,2.3128,2.3599,2.3537,2.3975,2.5392,2.5463,2.5673,2.6321,2.6483,2.6496,2.6208,2.6552,2.6756,2.6756,2.7188,2.7403,2.7335,2.7268,2.7108,2.6892,2.7108,2.7278,2.7336,2.7426,2.7628,2.7837,2.7262,2.687,2.6661,2.6295,2.5628]}]]